<?xml version="1.0" encoding="UTF-8" standalone="no" ?>
<gpx xmlns="http://www.topografix.com/GPX/1/1" xmlns:xsi="http://www.w3.org/2001/XMLSchema-instance" xsi:schemaLocation="http://www.topografix.com/GPX/1/1 http://www.topografix.com/GPX/1/1/gpx.xsd" version="1.1" creator="VisuGPX - https://www.visugpx.com">
  <metadata>
    <name>rando vtt creysse</name>
    <desc><![CDATA[belle rando vtt de 32km]]></desc>
  </metadata>
  <trk>
    <name><![CDATA[rando vtt creysse_1]]></name>
    <trkseg>
      <trkpt lat="44.86769" lon="0.54577">
        <ele>107.7</ele>
        <time>2016-08-07T07:16:22Z</time>
      </trkpt>
      <trkpt lat="44.8677" lon="0.54593">
        <ele>108.5</ele>
        <time>2016-08-07T07:16:26Z</time>
      </trkpt>
      <trkpt lat="44.86779" lon="0.54606">
        <ele>108.5</ele>
        <time>2016-08-07T07:16:30Z</time>
      </trkpt>
      <trkpt lat="44.86785" lon="0.54619">
        <ele>109</ele>
        <time>2016-08-07T07:16:34Z</time>
      </trkpt>
      <trkpt lat="44.86792" lon="0.54633">
        <ele>108.7</ele>
        <time>2016-08-07T07:16:38Z</time>
      </trkpt>
      <trkpt lat="44.86798" lon="0.54647">
        <ele>108.6</ele>
        <time>2016-08-07T07:16:42Z</time>
      </trkpt>
      <trkpt lat="44.86808" lon="0.54664">
        <ele>109.6</ele>
        <time>2016-08-07T07:16:46Z</time>
      </trkpt>
      <trkpt lat="44.86815" lon="0.54682">
        <ele>109.6</ele>
        <time>2016-08-07T07:16:50Z</time>
      </trkpt>
      <trkpt lat="44.86819" lon="0.54701">
        <ele>110.2</ele>
        <time>2016-08-07T07:16:54Z</time>
      </trkpt>
      <trkpt lat="44.86825" lon="0.54719">
        <ele>110.7</ele>
        <time>2016-08-07T07:16:58Z</time>
      </trkpt>
      <trkpt lat="44.8683" lon="0.54738">
        <ele>111.2</ele>
        <time>2016-08-07T07:17:02Z</time>
      </trkpt>
      <trkpt lat="44.86836" lon="0.54754">
        <ele>111.2</ele>
        <time>2016-08-07T07:17:06Z</time>
      </trkpt>
      <trkpt lat="44.8684" lon="0.54773">
        <ele>110.9</ele>
        <time>2016-08-07T07:17:10Z</time>
      </trkpt>
      <trkpt lat="44.86844" lon="0.54792">
        <ele>111.6</ele>
        <time>2016-08-07T07:17:14Z</time>
      </trkpt>
      <trkpt lat="44.86851" lon="0.54809">
        <ele>112</ele>
        <time>2016-08-07T07:17:18Z</time>
      </trkpt>
      <trkpt lat="44.86857" lon="0.54825">
        <ele>112</ele>
        <time>2016-08-07T07:17:22Z</time>
      </trkpt>
      <trkpt lat="44.86862" lon="0.54841">
        <ele>112.5</ele>
        <time>2016-08-07T07:17:26Z</time>
      </trkpt>
      <trkpt lat="44.86867" lon="0.5486">
        <ele>112.5</ele>
        <time>2016-08-07T07:17:30Z</time>
      </trkpt>
      <trkpt lat="44.86871" lon="0.54876">
        <ele>112.5</ele>
        <time>2016-08-07T07:17:34Z</time>
      </trkpt>
      <trkpt lat="44.86876" lon="0.54892">
        <ele>113.1</ele>
        <time>2016-08-07T07:17:38Z</time>
      </trkpt>
      <trkpt lat="44.86878" lon="0.5491">
        <ele>113.1</ele>
        <time>2016-08-07T07:17:42Z</time>
      </trkpt>
      <trkpt lat="44.8688" lon="0.54931">
        <ele>112.8</ele>
        <time>2016-08-07T07:17:46Z</time>
      </trkpt>
      <trkpt lat="44.86881" lon="0.54952">
        <ele>112.8</ele>
        <time>2016-08-07T07:17:50Z</time>
      </trkpt>
      <trkpt lat="44.86884" lon="0.54974">
        <ele>112.2</ele>
        <time>2016-08-07T07:17:54Z</time>
      </trkpt>
      <trkpt lat="44.86889" lon="0.54995">
        <ele>112.1</ele>
        <time>2016-08-07T07:17:58Z</time>
      </trkpt>
      <trkpt lat="44.86898" lon="0.55014">
        <ele>111.3</ele>
        <time>2016-08-07T07:18:02Z</time>
      </trkpt>
      <trkpt lat="44.86907" lon="0.55035">
        <ele>111.7</ele>
        <time>2016-08-07T07:18:06Z</time>
      </trkpt>
      <trkpt lat="44.86904" lon="0.5505">
        <ele>112</ele>
        <time>2016-08-07T07:18:10Z</time>
      </trkpt>
      <trkpt lat="44.86884" lon="0.55069">
        <ele>111.2</ele>
        <time>2016-08-07T07:18:14Z</time>
      </trkpt>
      <trkpt lat="44.8686" lon="0.55092">
        <ele>109.5</ele>
        <time>2016-08-07T07:18:18Z</time>
      </trkpt>
      <trkpt lat="44.8685" lon="0.55113">
        <ele>109.5</ele>
        <time>2016-08-07T07:18:22Z</time>
      </trkpt>
      <trkpt lat="44.86861" lon="0.55135">
        <ele>109.5</ele>
        <time>2016-08-07T07:18:26Z</time>
      </trkpt>
      <trkpt lat="44.86873" lon="0.55156">
        <ele>109.1</ele>
        <time>2016-08-07T07:18:30Z</time>
      </trkpt>
      <trkpt lat="44.86882" lon="0.55172">
        <ele>109.1</ele>
        <time>2016-08-07T07:18:34Z</time>
      </trkpt>
      <trkpt lat="44.86886" lon="0.55178">
        <ele>108.2</ele>
        <time>2016-08-07T07:18:38Z</time>
      </trkpt>
      <trkpt lat="44.86887" lon="0.55181">
        <ele>109.4</ele>
        <time>2016-08-07T07:18:42Z</time>
      </trkpt>
      <trkpt lat="44.86889" lon="0.55183">
        <ele>109.1</ele>
        <time>2016-08-07T07:18:46Z</time>
      </trkpt>
      <trkpt lat="44.8689" lon="0.55187">
        <ele>109.1</ele>
        <time>2016-08-07T07:18:50Z</time>
      </trkpt>
      <trkpt lat="44.86892" lon="0.55191">
        <ele>109.1</ele>
        <time>2016-08-07T07:18:54Z</time>
      </trkpt>
      <trkpt lat="44.86893" lon="0.55191">
        <ele>109.3</ele>
        <time>2016-08-07T07:18:58Z</time>
      </trkpt>
      <trkpt lat="44.86894" lon="0.55197">
        <ele>109.4</ele>
        <time>2016-08-07T07:19:06Z</time>
      </trkpt>
      <trkpt lat="44.86897" lon="0.5521">
        <ele>108.7</ele>
        <time>2016-08-07T07:19:10Z</time>
      </trkpt>
      <trkpt lat="44.869" lon="0.55228">
        <ele>108.5</ele>
        <time>2016-08-07T07:19:14Z</time>
      </trkpt>
      <trkpt lat="44.86902" lon="0.55239">
        <ele>107.8</ele>
        <time>2016-08-07T07:19:18Z</time>
      </trkpt>
      <trkpt lat="44.86903" lon="0.55245">
        <ele>107.8</ele>
        <time>2016-08-07T07:19:22Z</time>
      </trkpt>
      <trkpt lat="44.86904" lon="0.55246">
        <ele>108.7</ele>
        <time>2016-08-07T07:19:26Z</time>
      </trkpt>
      <trkpt lat="44.86908" lon="0.55253">
        <ele>108.8</ele>
        <time>2016-08-07T07:19:34Z</time>
      </trkpt>
      <trkpt lat="44.86912" lon="0.55261">
        <ele>109</ele>
        <time>2016-08-07T07:19:38Z</time>
      </trkpt>
      <trkpt lat="44.86917" lon="0.55268">
        <ele>109.2</ele>
        <time>2016-08-07T07:19:42Z</time>
      </trkpt>
      <trkpt lat="44.8692" lon="0.55275">
        <ele>109.4</ele>
        <time>2016-08-07T07:19:46Z</time>
      </trkpt>
      <trkpt lat="44.86922" lon="0.55282">
        <ele>109.7</ele>
        <time>2016-08-07T07:19:50Z</time>
      </trkpt>
      <trkpt lat="44.86924" lon="0.55292">
        <ele>110</ele>
        <time>2016-08-07T07:19:54Z</time>
      </trkpt>
      <trkpt lat="44.86923" lon="0.55301">
        <ele>110.3</ele>
        <time>2016-08-07T07:19:58Z</time>
      </trkpt>
      <trkpt lat="44.86924" lon="0.55314">
        <ele>110.3</ele>
        <time>2016-08-07T07:20:02Z</time>
      </trkpt>
      <trkpt lat="44.86934" lon="0.55327">
        <ele>111.5</ele>
        <time>2016-08-07T07:20:06Z</time>
      </trkpt>
      <trkpt lat="44.86946" lon="0.55321">
        <ele>112.2</ele>
        <time>2016-08-07T07:20:10Z</time>
      </trkpt>
      <trkpt lat="44.86951" lon="0.55318">
        <ele>111.4</ele>
        <time>2016-08-07T07:20:14Z</time>
      </trkpt>
      <trkpt lat="44.86955" lon="0.55314">
        <ele>112.5</ele>
        <time>2016-08-07T07:20:18Z</time>
      </trkpt>
      <trkpt lat="44.86962" lon="0.55311">
        <ele>112.5</ele>
        <time>2016-08-07T07:20:22Z</time>
      </trkpt>
      <trkpt lat="44.86963" lon="0.55318">
        <ele>113.2</ele>
        <time>2016-08-07T07:20:26Z</time>
      </trkpt>
      <trkpt lat="44.86944" lon="0.5533">
        <ele>112.5</ele>
        <time>2016-08-07T07:20:30Z</time>
      </trkpt>
      <trkpt lat="44.86927" lon="0.55357">
        <ele>111.7</ele>
        <time>2016-08-07T07:20:34Z</time>
      </trkpt>
      <trkpt lat="44.86908" lon="0.55382">
        <ele>112.2</ele>
        <time>2016-08-07T07:20:38Z</time>
      </trkpt>
      <trkpt lat="44.86887" lon="0.55402">
        <ele>111.4</ele>
        <time>2016-08-07T07:20:42Z</time>
      </trkpt>
      <trkpt lat="44.86889" lon="0.55423">
        <ele>111.4</ele>
        <time>2016-08-07T07:20:46Z</time>
      </trkpt>
      <trkpt lat="44.86901" lon="0.55435">
        <ele>110.1</ele>
        <time>2016-08-07T07:20:50Z</time>
      </trkpt>
      <trkpt lat="44.86916" lon="0.55448">
        <ele>110.1</ele>
        <time>2016-08-07T07:20:54Z</time>
      </trkpt>
      <trkpt lat="44.86927" lon="0.55462">
        <ele>110.3</ele>
        <time>2016-08-07T07:20:58Z</time>
      </trkpt>
      <trkpt lat="44.8694" lon="0.55479">
        <ele>110.9</ele>
        <time>2016-08-07T07:21:02Z</time>
      </trkpt>
      <trkpt lat="44.8695" lon="0.55497">
        <ele>110.9</ele>
        <time>2016-08-07T07:21:06Z</time>
      </trkpt>
      <trkpt lat="44.86958" lon="0.55512">
        <ele>110</ele>
        <time>2016-08-07T07:21:10Z</time>
      </trkpt>
      <trkpt lat="44.86965" lon="0.55527">
        <ele>111.1</ele>
        <time>2016-08-07T07:21:14Z</time>
      </trkpt>
      <trkpt lat="44.86973" lon="0.55545">
        <ele>109.9</ele>
        <time>2016-08-07T07:21:18Z</time>
      </trkpt>
      <trkpt lat="44.86978" lon="0.5556">
        <ele>109.3</ele>
        <time>2016-08-07T07:21:22Z</time>
      </trkpt>
      <trkpt lat="44.86981" lon="0.55571">
        <ele>109.9</ele>
        <time>2016-08-07T07:21:26Z</time>
      </trkpt>
      <trkpt lat="44.86983" lon="0.5558">
        <ele>109.7</ele>
        <time>2016-08-07T07:21:30Z</time>
      </trkpt>
      <trkpt lat="44.86985" lon="0.55588">
        <ele>109.7</ele>
        <time>2016-08-07T07:21:34Z</time>
      </trkpt>
      <trkpt lat="44.86985" lon="0.55596">
        <ele>109.5</ele>
        <time>2016-08-07T07:21:38Z</time>
      </trkpt>
      <trkpt lat="44.86988" lon="0.55607">
        <ele>109.8</ele>
        <time>2016-08-07T07:21:42Z</time>
      </trkpt>
      <trkpt lat="44.86998" lon="0.55629">
        <ele>109.8</ele>
        <time>2016-08-07T07:21:46Z</time>
      </trkpt>
      <trkpt lat="44.87009" lon="0.55655">
        <ele>109.8</ele>
        <time>2016-08-07T07:21:50Z</time>
      </trkpt>
      <trkpt lat="44.87021" lon="0.5568">
        <ele>109.8</ele>
        <time>2016-08-07T07:21:54Z</time>
      </trkpt>
      <trkpt lat="44.87035" lon="0.55704">
        <ele>109.2</ele>
        <time>2016-08-07T07:21:58Z</time>
      </trkpt>
      <trkpt lat="44.8705" lon="0.55731">
        <ele>110.9</ele>
        <time>2016-08-07T07:22:02Z</time>
      </trkpt>
      <trkpt lat="44.8706" lon="0.55756">
        <ele>111.8</ele>
        <time>2016-08-07T07:22:06Z</time>
      </trkpt>
      <trkpt lat="44.87069" lon="0.55783">
        <ele>108.8</ele>
        <time>2016-08-07T07:22:10Z</time>
      </trkpt>
      <trkpt lat="44.87077" lon="0.55803">
        <ele>107.8</ele>
        <time>2016-08-07T07:22:14Z</time>
      </trkpt>
      <trkpt lat="44.87081" lon="0.55813">
        <ele>108.6</ele>
        <time>2016-08-07T07:22:18Z</time>
      </trkpt>
      <trkpt lat="44.87088" lon="0.55819">
        <ele>108.6</ele>
        <time>2016-08-07T07:22:22Z</time>
      </trkpt>
      <trkpt lat="44.87089" lon="0.55827">
        <ele>108.7</ele>
        <time>2016-08-07T07:22:26Z</time>
      </trkpt>
      <trkpt lat="44.87091" lon="0.55833">
        <ele>108.2</ele>
        <time>2016-08-07T07:22:30Z</time>
      </trkpt>
      <trkpt lat="44.87094" lon="0.55839">
        <ele>108.2</ele>
        <time>2016-08-07T07:22:34Z</time>
      </trkpt>
      <trkpt lat="44.87094" lon="0.55848">
        <ele>107.6</ele>
        <time>2016-08-07T07:22:38Z</time>
      </trkpt>
      <trkpt lat="44.87094" lon="0.55851">
        <ele>108.5</ele>
        <time>2016-08-07T07:22:42Z</time>
      </trkpt>
      <trkpt lat="44.87087" lon="0.55864">
        <ele>108.5</ele>
        <time>2016-08-07T07:22:50Z</time>
      </trkpt>
      <trkpt lat="44.87085" lon="0.55878">
        <ele>107.5</ele>
        <time>2016-08-07T07:22:54Z</time>
      </trkpt>
      <trkpt lat="44.87084" lon="0.55893">
        <ele>107.5</ele>
        <time>2016-08-07T07:22:58Z</time>
      </trkpt>
      <trkpt lat="44.87079" lon="0.55912">
        <ele>107.1</ele>
        <time>2016-08-07T07:23:02Z</time>
      </trkpt>
      <trkpt lat="44.8707" lon="0.55931">
        <ele>107.4</ele>
        <time>2016-08-07T07:23:06Z</time>
      </trkpt>
      <trkpt lat="44.8706" lon="0.5595">
        <ele>104.5</ele>
        <time>2016-08-07T07:23:10Z</time>
      </trkpt>
      <trkpt lat="44.87059" lon="0.55961">
        <ele>106.1</ele>
        <time>2016-08-07T07:23:14Z</time>
      </trkpt>
      <trkpt lat="44.87055" lon="0.55978">
        <ele>106.1</ele>
        <time>2016-08-07T07:23:18Z</time>
      </trkpt>
      <trkpt lat="44.87057" lon="0.5599">
        <ele>105.7</ele>
        <time>2016-08-07T07:23:22Z</time>
      </trkpt>
      <trkpt lat="44.87053" lon="0.56001">
        <ele>105.7</ele>
        <time>2016-08-07T07:23:26Z</time>
      </trkpt>
      <trkpt lat="44.87046" lon="0.56006">
        <ele>104.8</ele>
        <time>2016-08-07T07:23:30Z</time>
      </trkpt>
      <trkpt lat="44.87041" lon="0.5602">
        <ele>105.4</ele>
        <time>2016-08-07T07:23:34Z</time>
      </trkpt>
      <trkpt lat="44.87041" lon="0.56039">
        <ele>105.7</ele>
        <time>2016-08-07T07:23:38Z</time>
      </trkpt>
      <trkpt lat="44.87041" lon="0.56053">
        <ele>106</ele>
        <time>2016-08-07T07:23:42Z</time>
      </trkpt>
      <trkpt lat="44.87039" lon="0.56074">
        <ele>107.1</ele>
        <time>2016-08-07T07:23:46Z</time>
      </trkpt>
      <trkpt lat="44.87038" lon="0.56093">
        <ele>108</ele>
        <time>2016-08-07T07:23:50Z</time>
      </trkpt>
      <trkpt lat="44.8704" lon="0.56106">
        <ele>108</ele>
        <time>2016-08-07T07:23:54Z</time>
      </trkpt>
      <trkpt lat="44.87049" lon="0.56113">
        <ele>108.4</ele>
        <time>2016-08-07T07:23:58Z</time>
      </trkpt>
      <trkpt lat="44.8706" lon="0.56116">
        <ele>108.7</ele>
        <time>2016-08-07T07:24:02Z</time>
      </trkpt>
      <trkpt lat="44.87071" lon="0.56117">
        <ele>108.8</ele>
        <time>2016-08-07T07:24:06Z</time>
      </trkpt>
      <trkpt lat="44.87075" lon="0.56116">
        <ele>108.5</ele>
        <time>2016-08-07T07:24:10Z</time>
      </trkpt>
      <trkpt lat="44.87081" lon="0.56111">
        <ele>108.4</ele>
        <time>2016-08-07T07:24:14Z</time>
      </trkpt>
      <trkpt lat="44.87083" lon="0.56103">
        <ele>107</ele>
        <time>2016-08-07T07:24:18Z</time>
      </trkpt>
      <trkpt lat="44.87089" lon="0.56092">
        <ele>103.6</ele>
        <time>2016-08-07T07:24:22Z</time>
      </trkpt>
      <trkpt lat="44.87097" lon="0.56073">
        <ele>99.7</ele>
        <time>2016-08-07T07:24:26Z</time>
      </trkpt>
      <trkpt lat="44.87103" lon="0.56065">
        <ele>98.8</ele>
        <time>2016-08-07T07:24:30Z</time>
      </trkpt>
      <trkpt lat="44.87108" lon="0.56059">
        <ele>99.3</ele>
        <time>2016-08-07T07:24:34Z</time>
      </trkpt>
      <trkpt lat="44.87119" lon="0.5605">
        <ele>100.1</ele>
        <time>2016-08-07T07:24:38Z</time>
      </trkpt>
      <trkpt lat="44.87131" lon="0.5604">
        <ele>101.2</ele>
        <time>2016-08-07T07:24:42Z</time>
      </trkpt>
      <trkpt lat="44.87134" lon="0.56017">
        <ele>103.7</ele>
        <time>2016-08-07T07:24:46Z</time>
      </trkpt>
      <trkpt lat="44.87152" lon="0.56005">
        <ele>103</ele>
        <time>2016-08-07T07:24:50Z</time>
      </trkpt>
      <trkpt lat="44.87166" lon="0.56">
        <ele>103</ele>
        <time>2016-08-07T07:24:54Z</time>
      </trkpt>
      <trkpt lat="44.87177" lon="0.5599">
        <ele>101.8</ele>
        <time>2016-08-07T07:24:58Z</time>
      </trkpt>
      <trkpt lat="44.87191" lon="0.5598">
        <ele>100.9</ele>
        <time>2016-08-07T07:25:02Z</time>
      </trkpt>
      <trkpt lat="44.87206" lon="0.55969">
        <ele>101.8</ele>
        <time>2016-08-07T07:25:06Z</time>
      </trkpt>
      <trkpt lat="44.87218" lon="0.55961">
        <ele>101.2</ele>
        <time>2016-08-07T07:25:10Z</time>
      </trkpt>
      <trkpt lat="44.87228" lon="0.55956">
        <ele>101.2</ele>
        <time>2016-08-07T07:25:14Z</time>
      </trkpt>
      <trkpt lat="44.87237" lon="0.55951">
        <ele>101.5</ele>
        <time>2016-08-07T07:25:18Z</time>
      </trkpt>
      <trkpt lat="44.87246" lon="0.55945">
        <ele>102.6</ele>
        <time>2016-08-07T07:25:22Z</time>
      </trkpt>
      <trkpt lat="44.87253" lon="0.55943">
        <ele>101.9</ele>
        <time>2016-08-07T07:25:26Z</time>
      </trkpt>
      <trkpt lat="44.87263" lon="0.55944">
        <ele>101.9</ele>
        <time>2016-08-07T07:25:30Z</time>
      </trkpt>
      <trkpt lat="44.87271" lon="0.55944">
        <ele>104.5</ele>
        <time>2016-08-07T07:25:34Z</time>
      </trkpt>
      <trkpt lat="44.87281" lon="0.55941">
        <ele>105.7</ele>
        <time>2016-08-07T07:25:38Z</time>
      </trkpt>
      <trkpt lat="44.87292" lon="0.55936">
        <ele>107</ele>
        <time>2016-08-07T07:25:42Z</time>
      </trkpt>
      <trkpt lat="44.87304" lon="0.55933">
        <ele>107.4</ele>
        <time>2016-08-07T07:25:46Z</time>
      </trkpt>
      <trkpt lat="44.87317" lon="0.55934">
        <ele>107.9</ele>
        <time>2016-08-07T07:25:50Z</time>
      </trkpt>
      <trkpt lat="44.87329" lon="0.55937">
        <ele>107.7</ele>
        <time>2016-08-07T07:25:54Z</time>
      </trkpt>
      <trkpt lat="44.87344" lon="0.55936">
        <ele>107.5</ele>
        <time>2016-08-07T07:25:58Z</time>
      </trkpt>
      <trkpt lat="44.87356" lon="0.55938">
        <ele>108.2</ele>
        <time>2016-08-07T07:26:02Z</time>
      </trkpt>
      <trkpt lat="44.87362" lon="0.55952">
        <ele>108.8</ele>
        <time>2016-08-07T07:26:06Z</time>
      </trkpt>
      <trkpt lat="44.87364" lon="0.55967">
        <ele>109.2</ele>
        <time>2016-08-07T07:26:10Z</time>
      </trkpt>
      <trkpt lat="44.87366" lon="0.55982">
        <ele>108.9</ele>
        <time>2016-08-07T07:26:14Z</time>
      </trkpt>
      <trkpt lat="44.8737" lon="0.55996">
        <ele>109.1</ele>
        <time>2016-08-07T07:26:18Z</time>
      </trkpt>
      <trkpt lat="44.87374" lon="0.56007">
        <ele>109.1</ele>
        <time>2016-08-07T07:26:22Z</time>
      </trkpt>
      <trkpt lat="44.87374" lon="0.56018">
        <ele>109.2</ele>
        <time>2016-08-07T07:26:26Z</time>
      </trkpt>
      <trkpt lat="44.87381" lon="0.56036">
        <ele>108.4</ele>
        <time>2016-08-07T07:26:30Z</time>
      </trkpt>
      <trkpt lat="44.87387" lon="0.56055">
        <ele>108.2</ele>
        <time>2016-08-07T07:26:34Z</time>
      </trkpt>
      <trkpt lat="44.87391" lon="0.56068">
        <ele>108.5</ele>
        <time>2016-08-07T07:26:38Z</time>
      </trkpt>
      <trkpt lat="44.87396" lon="0.56077">
        <ele>108.2</ele>
        <time>2016-08-07T07:26:42Z</time>
      </trkpt>
      <trkpt lat="44.87395" lon="0.56091">
        <ele>108.2</ele>
        <time>2016-08-07T07:26:46Z</time>
      </trkpt>
      <trkpt lat="44.87388" lon="0.56103">
        <ele>108.6</ele>
        <time>2016-08-07T07:26:50Z</time>
      </trkpt>
      <trkpt lat="44.87386" lon="0.56111">
        <ele>109.3</ele>
        <time>2016-08-07T07:26:54Z</time>
      </trkpt>
      <trkpt lat="44.87383" lon="0.56117">
        <ele>110.1</ele>
        <time>2016-08-07T07:26:58Z</time>
      </trkpt>
      <trkpt lat="44.8738" lon="0.56122">
        <ele>110.7</ele>
        <time>2016-08-07T07:27:02Z</time>
      </trkpt>
      <trkpt lat="44.87377" lon="0.56126">
        <ele>111.4</ele>
        <time>2016-08-07T07:27:06Z</time>
      </trkpt>
      <trkpt lat="44.87371" lon="0.56131">
        <ele>112.9</ele>
        <time>2016-08-07T07:27:10Z</time>
      </trkpt>
      <trkpt lat="44.87367" lon="0.56136">
        <ele>113.4</ele>
        <time>2016-08-07T07:27:14Z</time>
      </trkpt>
      <trkpt lat="44.87361" lon="0.56142">
        <ele>113.7</ele>
        <time>2016-08-07T07:27:18Z</time>
      </trkpt>
      <trkpt lat="44.87353" lon="0.56148">
        <ele>114</ele>
        <time>2016-08-07T07:27:22Z</time>
      </trkpt>
      <trkpt lat="44.87346" lon="0.56155">
        <ele>114</ele>
        <time>2016-08-07T07:27:26Z</time>
      </trkpt>
      <trkpt lat="44.87344" lon="0.56165">
        <ele>114.5</ele>
        <time>2016-08-07T07:27:30Z</time>
      </trkpt>
      <trkpt lat="44.87354" lon="0.56176">
        <ele>114.6</ele>
        <time>2016-08-07T07:27:34Z</time>
      </trkpt>
      <trkpt lat="44.87366" lon="0.56193">
        <ele>114.4</ele>
        <time>2016-08-07T07:27:38Z</time>
      </trkpt>
      <trkpt lat="44.87377" lon="0.56209">
        <ele>114.4</ele>
        <time>2016-08-07T07:27:42Z</time>
      </trkpt>
      <trkpt lat="44.87385" lon="0.5622">
        <ele>113.4</ele>
        <time>2016-08-07T07:27:46Z</time>
      </trkpt>
      <trkpt lat="44.87393" lon="0.56223">
        <ele>113.6</ele>
        <time>2016-08-07T07:27:50Z</time>
      </trkpt>
      <trkpt lat="44.87403" lon="0.56223">
        <ele>112.1</ele>
        <time>2016-08-07T07:27:54Z</time>
      </trkpt>
      <trkpt lat="44.8741" lon="0.5623">
        <ele>112.1</ele>
        <time>2016-08-07T07:27:58Z</time>
      </trkpt>
      <trkpt lat="44.87416" lon="0.56226">
        <ele>113.3</ele>
        <time>2016-08-07T07:28:02Z</time>
      </trkpt>
      <trkpt lat="44.87423" lon="0.56215">
        <ele>112.7</ele>
        <time>2016-08-07T07:28:06Z</time>
      </trkpt>
      <trkpt lat="44.87424" lon="0.56208">
        <ele>112.7</ele>
        <time>2016-08-07T07:28:10Z</time>
      </trkpt>
      <trkpt lat="44.87427" lon="0.56198">
        <ele>112.7</ele>
        <time>2016-08-07T07:28:14Z</time>
      </trkpt>
      <trkpt lat="44.87427" lon="0.56189">
        <ele>111.9</ele>
        <time>2016-08-07T07:28:18Z</time>
      </trkpt>
      <trkpt lat="44.87422" lon="0.56179">
        <ele>111.9</ele>
        <time>2016-08-07T07:28:22Z</time>
      </trkpt>
      <trkpt lat="44.87422" lon="0.56168">
        <ele>111</ele>
        <time>2016-08-07T07:28:26Z</time>
      </trkpt>
      <trkpt lat="44.8742" lon="0.56155">
        <ele>111</ele>
        <time>2016-08-07T07:28:30Z</time>
      </trkpt>
      <trkpt lat="44.87425" lon="0.56158">
        <ele>111.3</ele>
        <time>2016-08-07T07:28:34Z</time>
      </trkpt>
      <trkpt lat="44.87431" lon="0.56166">
        <ele>111.1</ele>
        <time>2016-08-07T07:28:38Z</time>
      </trkpt>
      <trkpt lat="44.87442" lon="0.56178">
        <ele>111.1</ele>
        <time>2016-08-07T07:28:42Z</time>
      </trkpt>
      <trkpt lat="44.87449" lon="0.56194">
        <ele>110.9</ele>
        <time>2016-08-07T07:28:46Z</time>
      </trkpt>
      <trkpt lat="44.87452" lon="0.56208">
        <ele>112.3</ele>
        <time>2016-08-07T07:28:50Z</time>
      </trkpt>
      <trkpt lat="44.8746" lon="0.56226">
        <ele>113.4</ele>
        <time>2016-08-07T07:28:54Z</time>
      </trkpt>
      <trkpt lat="44.87473" lon="0.56234">
        <ele>114.2</ele>
        <time>2016-08-07T07:28:58Z</time>
      </trkpt>
      <trkpt lat="44.87487" lon="0.5624">
        <ele>113.7</ele>
        <time>2016-08-07T07:29:02Z</time>
      </trkpt>
      <trkpt lat="44.87503" lon="0.56253">
        <ele>113.5</ele>
        <time>2016-08-07T07:29:06Z</time>
      </trkpt>
      <trkpt lat="44.87509" lon="0.5626">
        <ele>114.4</ele>
        <time>2016-08-07T07:29:10Z</time>
      </trkpt>
      <trkpt lat="44.87512" lon="0.56267">
        <ele>114.8</ele>
        <time>2016-08-07T07:29:14Z</time>
      </trkpt>
      <trkpt lat="44.87514" lon="0.56277">
        <ele>114.5</ele>
        <time>2016-08-07T07:29:18Z</time>
      </trkpt>
      <trkpt lat="44.87519" lon="0.5629">
        <ele>115.7</ele>
        <time>2016-08-07T07:29:22Z</time>
      </trkpt>
      <trkpt lat="44.87525" lon="0.56307">
        <ele>116.9</ele>
        <time>2016-08-07T07:29:26Z</time>
      </trkpt>
      <trkpt lat="44.87529" lon="0.56319">
        <ele>118</ele>
        <time>2016-08-07T07:29:30Z</time>
      </trkpt>
      <trkpt lat="44.87533" lon="0.56332">
        <ele>119.6</ele>
        <time>2016-08-07T07:29:34Z</time>
      </trkpt>
      <trkpt lat="44.8754" lon="0.5635">
        <ele>120.3</ele>
        <time>2016-08-07T07:29:38Z</time>
      </trkpt>
      <trkpt lat="44.87541" lon="0.56366">
        <ele>121.5</ele>
        <time>2016-08-07T07:29:42Z</time>
      </trkpt>
      <trkpt lat="44.8754" lon="0.5638">
        <ele>121.8</ele>
        <time>2016-08-07T07:29:46Z</time>
      </trkpt>
      <trkpt lat="44.87545" lon="0.56387">
        <ele>121.8</ele>
        <time>2016-08-07T07:29:50Z</time>
      </trkpt>
      <trkpt lat="44.87554" lon="0.56388">
        <ele>122.1</ele>
        <time>2016-08-07T07:29:54Z</time>
      </trkpt>
      <trkpt lat="44.87567" lon="0.56389">
        <ele>120.8</ele>
        <time>2016-08-07T07:29:58Z</time>
      </trkpt>
      <trkpt lat="44.87579" lon="0.56404">
        <ele>120.5</ele>
        <time>2016-08-07T07:30:02Z</time>
      </trkpt>
      <trkpt lat="44.87589" lon="0.56418">
        <ele>120.4</ele>
        <time>2016-08-07T07:30:06Z</time>
      </trkpt>
      <trkpt lat="44.87596" lon="0.56432">
        <ele>121</ele>
        <time>2016-08-07T07:30:10Z</time>
      </trkpt>
      <trkpt lat="44.87598" lon="0.56446">
        <ele>121.9</ele>
        <time>2016-08-07T07:30:14Z</time>
      </trkpt>
      <trkpt lat="44.87601" lon="0.56458">
        <ele>122.7</ele>
        <time>2016-08-07T07:30:18Z</time>
      </trkpt>
      <trkpt lat="44.87602" lon="0.56473">
        <ele>122.7</ele>
        <time>2016-08-07T07:30:22Z</time>
      </trkpt>
      <trkpt lat="44.87596" lon="0.56492">
        <ele>122.6</ele>
        <time>2016-08-07T07:30:26Z</time>
      </trkpt>
      <trkpt lat="44.87591" lon="0.56504">
        <ele>124.1</ele>
        <time>2016-08-07T07:30:30Z</time>
      </trkpt>
      <trkpt lat="44.87589" lon="0.56518">
        <ele>124.3</ele>
        <time>2016-08-07T07:30:34Z</time>
      </trkpt>
      <trkpt lat="44.87589" lon="0.56531">
        <ele>125.5</ele>
        <time>2016-08-07T07:30:38Z</time>
      </trkpt>
      <trkpt lat="44.87588" lon="0.56544">
        <ele>125.5</ele>
        <time>2016-08-07T07:30:42Z</time>
      </trkpt>
      <trkpt lat="44.87581" lon="0.56556">
        <ele>126</ele>
        <time>2016-08-07T07:30:46Z</time>
      </trkpt>
      <trkpt lat="44.8757" lon="0.56566">
        <ele>126.2</ele>
        <time>2016-08-07T07:30:50Z</time>
      </trkpt>
      <trkpt lat="44.87559" lon="0.5658">
        <ele>127</ele>
        <time>2016-08-07T07:30:54Z</time>
      </trkpt>
      <trkpt lat="44.87547" lon="0.56591">
        <ele>127.6</ele>
        <time>2016-08-07T07:30:58Z</time>
      </trkpt>
      <trkpt lat="44.87535" lon="0.56602">
        <ele>127.6</ele>
        <time>2016-08-07T07:31:02Z</time>
      </trkpt>
      <trkpt lat="44.87526" lon="0.56614">
        <ele>128.1</ele>
        <time>2016-08-07T07:31:06Z</time>
      </trkpt>
      <trkpt lat="44.87525" lon="0.56631">
        <ele>127.7</ele>
        <time>2016-08-07T07:31:10Z</time>
      </trkpt>
      <trkpt lat="44.87533" lon="0.56647">
        <ele>127.7</ele>
        <time>2016-08-07T07:31:14Z</time>
      </trkpt>
      <trkpt lat="44.87544" lon="0.56666">
        <ele>127.7</ele>
        <time>2016-08-07T07:31:18Z</time>
      </trkpt>
      <trkpt lat="44.87558" lon="0.56687">
        <ele>127.3</ele>
        <time>2016-08-07T07:31:22Z</time>
      </trkpt>
      <trkpt lat="44.87572" lon="0.56705">
        <ele>129.4</ele>
        <time>2016-08-07T07:31:26Z</time>
      </trkpt>
      <trkpt lat="44.87592" lon="0.5673">
        <ele>130.2</ele>
        <time>2016-08-07T07:31:30Z</time>
      </trkpt>
      <trkpt lat="44.87614" lon="0.56751">
        <ele>130.1</ele>
        <time>2016-08-07T07:31:34Z</time>
      </trkpt>
      <trkpt lat="44.87639" lon="0.56769">
        <ele>130.1</ele>
        <time>2016-08-07T07:31:38Z</time>
      </trkpt>
      <trkpt lat="44.87656" lon="0.56785">
        <ele>129.4</ele>
        <time>2016-08-07T07:31:42Z</time>
      </trkpt>
      <trkpt lat="44.87675" lon="0.56802">
        <ele>130.3</ele>
        <time>2016-08-07T07:31:46Z</time>
      </trkpt>
      <trkpt lat="44.87698" lon="0.56816">
        <ele>129.8</ele>
        <time>2016-08-07T07:31:50Z</time>
      </trkpt>
      <trkpt lat="44.87722" lon="0.56832">
        <ele>129.5</ele>
        <time>2016-08-07T07:31:54Z</time>
      </trkpt>
      <trkpt lat="44.87749" lon="0.5685">
        <ele>130.7</ele>
        <time>2016-08-07T07:31:58Z</time>
      </trkpt>
      <trkpt lat="44.87777" lon="0.56868">
        <ele>131.3</ele>
        <time>2016-08-07T07:32:02Z</time>
      </trkpt>
      <trkpt lat="44.87801" lon="0.56891">
        <ele>133.6</ele>
        <time>2016-08-07T07:32:06Z</time>
      </trkpt>
      <trkpt lat="44.87819" lon="0.56921">
        <ele>133.6</ele>
        <time>2016-08-07T07:32:10Z</time>
      </trkpt>
      <trkpt lat="44.87841" lon="0.56961">
        <ele>131.6</ele>
        <time>2016-08-07T07:32:14Z</time>
      </trkpt>
      <trkpt lat="44.87857" lon="0.56988">
        <ele>130.5</ele>
        <time>2016-08-07T07:32:18Z</time>
      </trkpt>
      <trkpt lat="44.87871" lon="0.56998">
        <ele>131.4</ele>
        <time>2016-08-07T07:32:22Z</time>
      </trkpt>
      <trkpt lat="44.87888" lon="0.56999">
        <ele>129.4</ele>
        <time>2016-08-07T07:32:26Z</time>
      </trkpt>
      <trkpt lat="44.87901" lon="0.56998">
        <ele>127</ele>
        <time>2016-08-07T07:32:30Z</time>
      </trkpt>
      <trkpt lat="44.87912" lon="0.56987">
        <ele>127</ele>
        <time>2016-08-07T07:32:34Z</time>
      </trkpt>
      <trkpt lat="44.87923" lon="0.56973">
        <ele>125.1</ele>
        <time>2016-08-07T07:32:38Z</time>
      </trkpt>
      <trkpt lat="44.87943" lon="0.56954">
        <ele>121.5</ele>
        <time>2016-08-07T07:32:42Z</time>
      </trkpt>
      <trkpt lat="44.87957" lon="0.56932">
        <ele>116.9</ele>
        <time>2016-08-07T07:32:46Z</time>
      </trkpt>
      <trkpt lat="44.87979" lon="0.56911">
        <ele>113.8</ele>
        <time>2016-08-07T07:32:50Z</time>
      </trkpt>
      <trkpt lat="44.87995" lon="0.56905">
        <ele>114.1</ele>
        <time>2016-08-07T07:32:54Z</time>
      </trkpt>
      <trkpt lat="44.88012" lon="0.56887">
        <ele>114.1</ele>
        <time>2016-08-07T07:32:58Z</time>
      </trkpt>
      <trkpt lat="44.88045" lon="0.56871">
        <ele>111.1</ele>
        <time>2016-08-07T07:33:02Z</time>
      </trkpt>
      <trkpt lat="44.88086" lon="0.56847">
        <ele>108.1</ele>
        <time>2016-08-07T07:33:06Z</time>
      </trkpt>
      <trkpt lat="44.88115" lon="0.56833">
        <ele>108.1</ele>
        <time>2016-08-07T07:33:10Z</time>
      </trkpt>
      <trkpt lat="44.88138" lon="0.56826">
        <ele>104.7</ele>
        <time>2016-08-07T07:33:14Z</time>
      </trkpt>
      <trkpt lat="44.88158" lon="0.56833">
        <ele>105.3</ele>
        <time>2016-08-07T07:33:18Z</time>
      </trkpt>
      <trkpt lat="44.88171" lon="0.56835">
        <ele>107.1</ele>
        <time>2016-08-07T07:33:22Z</time>
      </trkpt>
      <trkpt lat="44.88184" lon="0.56832">
        <ele>105.9</ele>
        <time>2016-08-07T07:33:26Z</time>
      </trkpt>
      <trkpt lat="44.88194" lon="0.56825">
        <ele>105.2</ele>
        <time>2016-08-07T07:33:30Z</time>
      </trkpt>
      <trkpt lat="44.88202" lon="0.56818">
        <ele>102.3</ele>
        <time>2016-08-07T07:33:34Z</time>
      </trkpt>
      <trkpt lat="44.88203" lon="0.56811">
        <ele>98.8</ele>
        <time>2016-08-07T07:33:38Z</time>
      </trkpt>
      <trkpt lat="44.88206" lon="0.56805">
        <ele>98.8</ele>
        <time>2016-08-07T07:33:42Z</time>
      </trkpt>
      <trkpt lat="44.88214" lon="0.568">
        <ele>97.4</ele>
        <time>2016-08-07T07:33:46Z</time>
      </trkpt>
      <trkpt lat="44.88224" lon="0.56796">
        <ele>94.9</ele>
        <time>2016-08-07T07:33:50Z</time>
      </trkpt>
      <trkpt lat="44.88235" lon="0.56794">
        <ele>94</ele>
        <time>2016-08-07T07:33:54Z</time>
      </trkpt>
      <trkpt lat="44.88248" lon="0.56792">
        <ele>92</ele>
        <time>2016-08-07T07:33:58Z</time>
      </trkpt>
      <trkpt lat="44.88266" lon="0.56784">
        <ele>90.7</ele>
        <time>2016-08-07T07:34:02Z</time>
      </trkpt>
      <trkpt lat="44.88276" lon="0.56782">
        <ele>86.8</ele>
        <time>2016-08-07T07:34:06Z</time>
      </trkpt>
      <trkpt lat="44.88287" lon="0.56782">
        <ele>86</ele>
        <time>2016-08-07T07:34:10Z</time>
      </trkpt>
      <trkpt lat="44.883" lon="0.56783">
        <ele>84</ele>
        <time>2016-08-07T07:34:14Z</time>
      </trkpt>
      <trkpt lat="44.88316" lon="0.56783">
        <ele>81.1</ele>
        <time>2016-08-07T07:34:18Z</time>
      </trkpt>
      <trkpt lat="44.88333" lon="0.56777">
        <ele>81.1</ele>
        <time>2016-08-07T07:34:22Z</time>
      </trkpt>
      <trkpt lat="44.88341" lon="0.56781">
        <ele>78.1</ele>
        <time>2016-08-07T07:34:26Z</time>
      </trkpt>
      <trkpt lat="44.88345" lon="0.56786">
        <ele>78</ele>
        <time>2016-08-07T07:34:30Z</time>
      </trkpt>
      <trkpt lat="44.88345" lon="0.56793">
        <ele>79.2</ele>
        <time>2016-08-07T07:34:34Z</time>
      </trkpt>
      <trkpt lat="44.88341" lon="0.56794">
        <ele>81.2</ele>
        <time>2016-08-07T07:34:38Z</time>
      </trkpt>
      <trkpt lat="44.88338" lon="0.568">
        <ele>82.2</ele>
        <time>2016-08-07T07:34:42Z</time>
      </trkpt>
      <trkpt lat="44.88334" lon="0.56804">
        <ele>83.4</ele>
        <time>2016-08-07T07:34:46Z</time>
      </trkpt>
      <trkpt lat="44.88328" lon="0.56803">
        <ele>83.8</ele>
        <time>2016-08-07T07:34:50Z</time>
      </trkpt>
      <trkpt lat="44.88321" lon="0.56801">
        <ele>85.1</ele>
        <time>2016-08-07T07:34:54Z</time>
      </trkpt>
      <trkpt lat="44.88312" lon="0.56799">
        <ele>86.1</ele>
        <time>2016-08-07T07:34:58Z</time>
      </trkpt>
      <trkpt lat="44.88306" lon="0.56799">
        <ele>86.2</ele>
        <time>2016-08-07T07:35:02Z</time>
      </trkpt>
      <trkpt lat="44.88304" lon="0.56805">
        <ele>87.6</ele>
        <time>2016-08-07T07:35:06Z</time>
      </trkpt>
      <trkpt lat="44.88306" lon="0.56811">
        <ele>87.6</ele>
        <time>2016-08-07T07:35:10Z</time>
      </trkpt>
      <trkpt lat="44.88304" lon="0.56813">
        <ele>88.9</ele>
        <time>2016-08-07T07:35:14Z</time>
      </trkpt>
      <trkpt lat="44.88306" lon="0.56818">
        <ele>89.4</ele>
        <time>2016-08-07T07:35:26Z</time>
      </trkpt>
      <trkpt lat="44.88308" lon="0.56823">
        <ele>89.5</ele>
        <time>2016-08-07T07:35:30Z</time>
      </trkpt>
      <trkpt lat="44.88311" lon="0.56829">
        <ele>90</ele>
        <time>2016-08-07T07:35:34Z</time>
      </trkpt>
      <trkpt lat="44.88312" lon="0.56837">
        <ele>90.9</ele>
        <time>2016-08-07T07:35:38Z</time>
      </trkpt>
      <trkpt lat="44.88315" lon="0.56845">
        <ele>91.7</ele>
        <time>2016-08-07T07:35:42Z</time>
      </trkpt>
      <trkpt lat="44.88318" lon="0.56853">
        <ele>92.3</ele>
        <time>2016-08-07T07:35:46Z</time>
      </trkpt>
      <trkpt lat="44.88321" lon="0.56863">
        <ele>92.8</ele>
        <time>2016-08-07T07:35:50Z</time>
      </trkpt>
      <trkpt lat="44.88324" lon="0.56873">
        <ele>94.5</ele>
        <time>2016-08-07T07:35:54Z</time>
      </trkpt>
      <trkpt lat="44.88327" lon="0.56885">
        <ele>95.2</ele>
        <time>2016-08-07T07:35:58Z</time>
      </trkpt>
      <trkpt lat="44.8833" lon="0.56898">
        <ele>95.6</ele>
        <time>2016-08-07T07:36:02Z</time>
      </trkpt>
      <trkpt lat="44.88334" lon="0.5691">
        <ele>96.7</ele>
        <time>2016-08-07T07:36:06Z</time>
      </trkpt>
      <trkpt lat="44.8834" lon="0.56922">
        <ele>96.7</ele>
        <time>2016-08-07T07:36:10Z</time>
      </trkpt>
      <trkpt lat="44.88342" lon="0.56939">
        <ele>94.3</ele>
        <time>2016-08-07T07:36:14Z</time>
      </trkpt>
      <trkpt lat="44.88353" lon="0.56956">
        <ele>93</ele>
        <time>2016-08-07T07:36:18Z</time>
      </trkpt>
      <trkpt lat="44.88367" lon="0.56983">
        <ele>90</ele>
        <time>2016-08-07T07:36:22Z</time>
      </trkpt>
      <trkpt lat="44.88372" lon="0.57012">
        <ele>87.7</ele>
        <time>2016-08-07T07:36:26Z</time>
      </trkpt>
      <trkpt lat="44.88385" lon="0.57039">
        <ele>87.2</ele>
        <time>2016-08-07T07:36:30Z</time>
      </trkpt>
      <trkpt lat="44.884" lon="0.57058">
        <ele>89</ele>
        <time>2016-08-07T07:36:34Z</time>
      </trkpt>
      <trkpt lat="44.88413" lon="0.57072">
        <ele>91.5</ele>
        <time>2016-08-07T07:36:38Z</time>
      </trkpt>
      <trkpt lat="44.88425" lon="0.57088">
        <ele>93</ele>
        <time>2016-08-07T07:36:42Z</time>
      </trkpt>
      <trkpt lat="44.88434" lon="0.57107">
        <ele>95.3</ele>
        <time>2016-08-07T07:36:46Z</time>
      </trkpt>
      <trkpt lat="44.88443" lon="0.57126">
        <ele>95.5</ele>
        <time>2016-08-07T07:36:50Z</time>
      </trkpt>
      <trkpt lat="44.88449" lon="0.5715">
        <ele>97.9</ele>
        <time>2016-08-07T07:36:54Z</time>
      </trkpt>
      <trkpt lat="44.88452" lon="0.57173">
        <ele>97.9</ele>
        <time>2016-08-07T07:36:58Z</time>
      </trkpt>
      <trkpt lat="44.88452" lon="0.57193">
        <ele>99.5</ele>
        <time>2016-08-07T07:37:02Z</time>
      </trkpt>
      <trkpt lat="44.88453" lon="0.5721">
        <ele>99.1</ele>
        <time>2016-08-07T07:37:06Z</time>
      </trkpt>
      <trkpt lat="44.88456" lon="0.57228">
        <ele>100.7</ele>
        <time>2016-08-07T07:37:10Z</time>
      </trkpt>
      <trkpt lat="44.8846" lon="0.57256">
        <ele>98.5</ele>
        <time>2016-08-07T07:37:14Z</time>
      </trkpt>
      <trkpt lat="44.8846" lon="0.57289">
        <ele>98.1</ele>
        <time>2016-08-07T07:37:18Z</time>
      </trkpt>
      <trkpt lat="44.88462" lon="0.57315">
        <ele>96.2</ele>
        <time>2016-08-07T07:37:22Z</time>
      </trkpt>
      <trkpt lat="44.88463" lon="0.57333">
        <ele>97.8</ele>
        <time>2016-08-07T07:37:26Z</time>
      </trkpt>
      <trkpt lat="44.88466" lon="0.57345">
        <ele>97.8</ele>
        <time>2016-08-07T07:37:30Z</time>
      </trkpt>
      <trkpt lat="44.88467" lon="0.57358">
        <ele>99.2</ele>
        <time>2016-08-07T07:37:34Z</time>
      </trkpt>
      <trkpt lat="44.88467" lon="0.57377">
        <ele>98.2</ele>
        <time>2016-08-07T07:37:38Z</time>
      </trkpt>
      <trkpt lat="44.8847" lon="0.57403">
        <ele>96.9</ele>
        <time>2016-08-07T07:37:42Z</time>
      </trkpt>
      <trkpt lat="44.88475" lon="0.57422">
        <ele>97.7</ele>
        <time>2016-08-07T07:37:46Z</time>
      </trkpt>
      <trkpt lat="44.88477" lon="0.57443">
        <ele>97.9</ele>
        <time>2016-08-07T07:37:50Z</time>
      </trkpt>
      <trkpt lat="44.88476" lon="0.57456">
        <ele>98.8</ele>
        <time>2016-08-07T07:37:54Z</time>
      </trkpt>
      <trkpt lat="44.88471" lon="0.57468">
        <ele>98.8</ele>
        <time>2016-08-07T07:37:58Z</time>
      </trkpt>
      <trkpt lat="44.88462" lon="0.57471">
        <ele>100</ele>
        <time>2016-08-07T07:38:02Z</time>
      </trkpt>
      <trkpt lat="44.88455" lon="0.57475">
        <ele>102.6</ele>
        <time>2016-08-07T07:38:06Z</time>
      </trkpt>
      <trkpt lat="44.88446" lon="0.57479">
        <ele>103.7</ele>
        <time>2016-08-07T07:38:10Z</time>
      </trkpt>
      <trkpt lat="44.88436" lon="0.57483">
        <ele>104.3</ele>
        <time>2016-08-07T07:38:14Z</time>
      </trkpt>
      <trkpt lat="44.88427" lon="0.57483">
        <ele>106.6</ele>
        <time>2016-08-07T07:38:18Z</time>
      </trkpt>
      <trkpt lat="44.88422" lon="0.57475">
        <ele>107.7</ele>
        <time>2016-08-07T07:38:22Z</time>
      </trkpt>
      <trkpt lat="44.88411" lon="0.57469">
        <ele>107.7</ele>
        <time>2016-08-07T07:38:26Z</time>
      </trkpt>
      <trkpt lat="44.88401" lon="0.5747">
        <ele>109.7</ele>
        <time>2016-08-07T07:38:30Z</time>
      </trkpt>
      <trkpt lat="44.88388" lon="0.57469">
        <ele>109.7</ele>
        <time>2016-08-07T07:38:34Z</time>
      </trkpt>
      <trkpt lat="44.88379" lon="0.57464">
        <ele>111.4</ele>
        <time>2016-08-07T07:38:38Z</time>
      </trkpt>
      <trkpt lat="44.88367" lon="0.57456">
        <ele>111.6</ele>
        <time>2016-08-07T07:38:42Z</time>
      </trkpt>
      <trkpt lat="44.88362" lon="0.5745">
        <ele>112.7</ele>
        <time>2016-08-07T07:38:46Z</time>
      </trkpt>
      <trkpt lat="44.88357" lon="0.57441">
        <ele>113.9</ele>
        <time>2016-08-07T07:38:50Z</time>
      </trkpt>
      <trkpt lat="44.88352" lon="0.57433">
        <ele>114.7</ele>
        <time>2016-08-07T07:38:54Z</time>
      </trkpt>
      <trkpt lat="44.88345" lon="0.57423">
        <ele>115.4</ele>
        <time>2016-08-07T07:38:58Z</time>
      </trkpt>
      <trkpt lat="44.8834" lon="0.57415">
        <ele>116.2</ele>
        <time>2016-08-07T07:39:02Z</time>
      </trkpt>
      <trkpt lat="44.88333" lon="0.57407">
        <ele>117.5</ele>
        <time>2016-08-07T07:39:06Z</time>
      </trkpt>
      <trkpt lat="44.88328" lon="0.57398">
        <ele>119.2</ele>
        <time>2016-08-07T07:39:10Z</time>
      </trkpt>
      <trkpt lat="44.8832" lon="0.57387">
        <ele>119.2</ele>
        <time>2016-08-07T07:39:14Z</time>
      </trkpt>
      <trkpt lat="44.88316" lon="0.57381">
        <ele>120.3</ele>
        <time>2016-08-07T07:39:18Z</time>
      </trkpt>
      <trkpt lat="44.8831" lon="0.57373">
        <ele>121.5</ele>
        <time>2016-08-07T07:39:22Z</time>
      </trkpt>
      <trkpt lat="44.88306" lon="0.57364">
        <ele>122.5</ele>
        <time>2016-08-07T07:39:26Z</time>
      </trkpt>
      <trkpt lat="44.883" lon="0.57352">
        <ele>123.4</ele>
        <time>2016-08-07T07:39:30Z</time>
      </trkpt>
      <trkpt lat="44.88295" lon="0.57343">
        <ele>123.7</ele>
        <time>2016-08-07T07:39:34Z</time>
      </trkpt>
      <trkpt lat="44.88286" lon="0.5734">
        <ele>124.6</ele>
        <time>2016-08-07T07:39:38Z</time>
      </trkpt>
      <trkpt lat="44.8828" lon="0.57338">
        <ele>125.4</ele>
        <time>2016-08-07T07:39:42Z</time>
      </trkpt>
      <trkpt lat="44.88272" lon="0.57339">
        <ele>126.1</ele>
        <time>2016-08-07T07:39:46Z</time>
      </trkpt>
      <trkpt lat="44.88262" lon="0.57344">
        <ele>125.5</ele>
        <time>2016-08-07T07:39:50Z</time>
      </trkpt>
      <trkpt lat="44.88252" lon="0.57352">
        <ele>125.4</ele>
        <time>2016-08-07T07:39:54Z</time>
      </trkpt>
      <trkpt lat="44.88246" lon="0.57355">
        <ele>125.6</ele>
        <time>2016-08-07T07:39:58Z</time>
      </trkpt>
      <trkpt lat="44.88242" lon="0.57359">
        <ele>125.7</ele>
        <time>2016-08-07T07:40:02Z</time>
      </trkpt>
      <trkpt lat="44.88235" lon="0.57364">
        <ele>126.1</ele>
        <time>2016-08-07T07:40:06Z</time>
      </trkpt>
      <trkpt lat="44.8823" lon="0.57369">
        <ele>126.2</ele>
        <time>2016-08-07T07:40:10Z</time>
      </trkpt>
      <trkpt lat="44.88225" lon="0.57373">
        <ele>125.8</ele>
        <time>2016-08-07T07:40:14Z</time>
      </trkpt>
      <trkpt lat="44.88222" lon="0.57377">
        <ele>125.7</ele>
        <time>2016-08-07T07:40:18Z</time>
      </trkpt>
      <trkpt lat="44.88219" lon="0.57379">
        <ele>125.9</ele>
        <time>2016-08-07T07:40:22Z</time>
      </trkpt>
      <trkpt lat="44.88219" lon="0.57387">
        <ele>125.9</ele>
        <time>2016-08-07T07:40:30Z</time>
      </trkpt>
      <trkpt lat="44.8822" lon="0.5739">
        <ele>125</ele>
        <time>2016-08-07T07:40:34Z</time>
      </trkpt>
      <trkpt lat="44.88227" lon="0.57396">
        <ele>124</ele>
        <time>2016-08-07T07:41:30Z</time>
      </trkpt>
      <trkpt lat="44.88232" lon="0.57404">
        <ele>123.5</ele>
        <time>2016-08-07T07:41:34Z</time>
      </trkpt>
      <trkpt lat="44.88232" lon="0.57412">
        <ele>122.2</ele>
        <time>2016-08-07T07:41:38Z</time>
      </trkpt>
      <trkpt lat="44.88232" lon="0.57413">
        <ele>121.1</ele>
        <time>2016-08-07T07:41:42Z</time>
      </trkpt>
      <trkpt lat="44.88233" lon="0.57421">
        <ele>119.8</ele>
        <time>2016-08-07T07:41:46Z</time>
      </trkpt>
      <trkpt lat="44.8824" lon="0.57424">
        <ele>119.3</ele>
        <time>2016-08-07T07:41:50Z</time>
      </trkpt>
      <trkpt lat="44.88245" lon="0.57422">
        <ele>118.8</ele>
        <time>2016-08-07T07:41:54Z</time>
      </trkpt>
      <trkpt lat="44.88248" lon="0.57434">
        <ele>118.8</ele>
        <time>2016-08-07T07:41:58Z</time>
      </trkpt>
      <trkpt lat="44.88252" lon="0.57448">
        <ele>117</ele>
        <time>2016-08-07T07:42:02Z</time>
      </trkpt>
      <trkpt lat="44.88255" lon="0.57461">
        <ele>116.7</ele>
        <time>2016-08-07T07:42:06Z</time>
      </trkpt>
      <trkpt lat="44.88265" lon="0.57471">
        <ele>115.3</ele>
        <time>2016-08-07T07:42:10Z</time>
      </trkpt>
      <trkpt lat="44.88278" lon="0.57486">
        <ele>111.6</ele>
        <time>2016-08-07T07:42:14Z</time>
      </trkpt>
      <trkpt lat="44.88298" lon="0.57489">
        <ele>108.6</ele>
        <time>2016-08-07T07:42:18Z</time>
      </trkpt>
      <trkpt lat="44.88319" lon="0.57498">
        <ele>104.9</ele>
        <time>2016-08-07T07:42:22Z</time>
      </trkpt>
      <trkpt lat="44.8834" lon="0.57516">
        <ele>100</ele>
        <time>2016-08-07T07:42:26Z</time>
      </trkpt>
      <trkpt lat="44.88359" lon="0.57528">
        <ele>96.6</ele>
        <time>2016-08-07T07:42:30Z</time>
      </trkpt>
      <trkpt lat="44.88375" lon="0.57532">
        <ele>98.1</ele>
        <time>2016-08-07T07:42:34Z</time>
      </trkpt>
      <trkpt lat="44.88398" lon="0.57541">
        <ele>96.5</ele>
        <time>2016-08-07T07:42:38Z</time>
      </trkpt>
      <trkpt lat="44.88431" lon="0.57553">
        <ele>97.8</ele>
        <time>2016-08-07T07:42:42Z</time>
      </trkpt>
      <trkpt lat="44.88453" lon="0.57565">
        <ele>93.2</ele>
        <time>2016-08-07T07:42:46Z</time>
      </trkpt>
      <trkpt lat="44.88457" lon="0.57579">
        <ele>93.8</ele>
        <time>2016-08-07T07:42:50Z</time>
      </trkpt>
      <trkpt lat="44.88458" lon="0.57599">
        <ele>94.3</ele>
        <time>2016-08-07T07:42:54Z</time>
      </trkpt>
      <trkpt lat="44.88475" lon="0.57609">
        <ele>94.1</ele>
        <time>2016-08-07T07:42:58Z</time>
      </trkpt>
      <trkpt lat="44.88485" lon="0.57614">
        <ele>95.3</ele>
        <time>2016-08-07T07:43:02Z</time>
      </trkpt>
      <trkpt lat="44.88499" lon="0.57619">
        <ele>96.2</ele>
        <time>2016-08-07T07:43:06Z</time>
      </trkpt>
      <trkpt lat="44.88512" lon="0.57626">
        <ele>97</ele>
        <time>2016-08-07T07:43:10Z</time>
      </trkpt>
      <trkpt lat="44.88517" lon="0.57638">
        <ele>97.2</ele>
        <time>2016-08-07T07:43:14Z</time>
      </trkpt>
      <trkpt lat="44.88515" lon="0.57643">
        <ele>96.4</ele>
        <time>2016-08-07T07:43:18Z</time>
      </trkpt>
      <trkpt lat="44.8851" lon="0.5765">
        <ele>98.7</ele>
        <time>2016-08-07T07:43:22Z</time>
      </trkpt>
      <trkpt lat="44.88505" lon="0.57653">
        <ele>100.1</ele>
        <time>2016-08-07T07:43:26Z</time>
      </trkpt>
      <trkpt lat="44.88498" lon="0.57656">
        <ele>100.1</ele>
        <time>2016-08-07T07:43:30Z</time>
      </trkpt>
      <trkpt lat="44.88491" lon="0.57659">
        <ele>101.3</ele>
        <time>2016-08-07T07:43:34Z</time>
      </trkpt>
      <trkpt lat="44.88484" lon="0.57663">
        <ele>102.8</ele>
        <time>2016-08-07T07:43:38Z</time>
      </trkpt>
      <trkpt lat="44.88477" lon="0.57668">
        <ele>104.4</ele>
        <time>2016-08-07T07:43:42Z</time>
      </trkpt>
      <trkpt lat="44.88471" lon="0.57674">
        <ele>105.1</ele>
        <time>2016-08-07T07:43:46Z</time>
      </trkpt>
      <trkpt lat="44.88465" lon="0.57682">
        <ele>105.7</ele>
        <time>2016-08-07T07:43:50Z</time>
      </trkpt>
      <trkpt lat="44.88457" lon="0.5769">
        <ele>106.3</ele>
        <time>2016-08-07T07:43:54Z</time>
      </trkpt>
      <trkpt lat="44.8845" lon="0.57697">
        <ele>106.9</ele>
        <time>2016-08-07T07:43:58Z</time>
      </trkpt>
      <trkpt lat="44.88442" lon="0.57702">
        <ele>108.2</ele>
        <time>2016-08-07T07:44:02Z</time>
      </trkpt>
      <trkpt lat="44.88433" lon="0.57707">
        <ele>108.4</ele>
        <time>2016-08-07T07:44:06Z</time>
      </trkpt>
      <trkpt lat="44.88425" lon="0.57716">
        <ele>109.2</ele>
        <time>2016-08-07T07:44:10Z</time>
      </trkpt>
      <trkpt lat="44.88418" lon="0.57723">
        <ele>110.2</ele>
        <time>2016-08-07T07:44:14Z</time>
      </trkpt>
      <trkpt lat="44.88409" lon="0.57729">
        <ele>110.3</ele>
        <time>2016-08-07T07:44:18Z</time>
      </trkpt>
      <trkpt lat="44.88399" lon="0.57738">
        <ele>110.6</ele>
        <time>2016-08-07T07:44:22Z</time>
      </trkpt>
      <trkpt lat="44.88389" lon="0.57743">
        <ele>111.1</ele>
        <time>2016-08-07T07:44:26Z</time>
      </trkpt>
      <trkpt lat="44.88381" lon="0.57745">
        <ele>112.1</ele>
        <time>2016-08-07T07:44:30Z</time>
      </trkpt>
      <trkpt lat="44.88368" lon="0.57751">
        <ele>112</ele>
        <time>2016-08-07T07:44:34Z</time>
      </trkpt>
      <trkpt lat="44.8836" lon="0.57755">
        <ele>112.6</ele>
        <time>2016-08-07T07:44:38Z</time>
      </trkpt>
      <trkpt lat="44.88351" lon="0.57757">
        <ele>113.1</ele>
        <time>2016-08-07T07:44:42Z</time>
      </trkpt>
      <trkpt lat="44.88344" lon="0.57755">
        <ele>114.5</ele>
        <time>2016-08-07T07:44:46Z</time>
      </trkpt>
      <trkpt lat="44.88333" lon="0.57753">
        <ele>116</ele>
        <time>2016-08-07T07:44:50Z</time>
      </trkpt>
      <trkpt lat="44.88323" lon="0.57754">
        <ele>116</ele>
        <time>2016-08-07T07:44:54Z</time>
      </trkpt>
      <trkpt lat="44.88312" lon="0.57753">
        <ele>117.5</ele>
        <time>2016-08-07T07:44:58Z</time>
      </trkpt>
      <trkpt lat="44.88304" lon="0.57753">
        <ele>118.3</ele>
        <time>2016-08-07T07:45:02Z</time>
      </trkpt>
      <trkpt lat="44.88295" lon="0.57755">
        <ele>118.3</ele>
        <time>2016-08-07T07:45:06Z</time>
      </trkpt>
      <trkpt lat="44.88286" lon="0.57758">
        <ele>119.2</ele>
        <time>2016-08-07T07:45:10Z</time>
      </trkpt>
      <trkpt lat="44.88277" lon="0.57761">
        <ele>120</ele>
        <time>2016-08-07T07:45:14Z</time>
      </trkpt>
      <trkpt lat="44.88268" lon="0.57766">
        <ele>120.7</ele>
        <time>2016-08-07T07:45:18Z</time>
      </trkpt>
      <trkpt lat="44.88261" lon="0.57769">
        <ele>121.6</ele>
        <time>2016-08-07T07:45:22Z</time>
      </trkpt>
      <trkpt lat="44.88253" lon="0.57772">
        <ele>121.6</ele>
        <time>2016-08-07T07:45:26Z</time>
      </trkpt>
      <trkpt lat="44.88241" lon="0.57776">
        <ele>122.6</ele>
        <time>2016-08-07T07:45:30Z</time>
      </trkpt>
      <trkpt lat="44.88233" lon="0.5778">
        <ele>123.7</ele>
        <time>2016-08-07T07:45:34Z</time>
      </trkpt>
      <trkpt lat="44.88224" lon="0.57784">
        <ele>124.7</ele>
        <time>2016-08-07T07:45:38Z</time>
      </trkpt>
      <trkpt lat="44.88215" lon="0.5779">
        <ele>126.2</ele>
        <time>2016-08-07T07:45:42Z</time>
      </trkpt>
      <trkpt lat="44.88207" lon="0.57794">
        <ele>127</ele>
        <time>2016-08-07T07:45:46Z</time>
      </trkpt>
      <trkpt lat="44.882" lon="0.57797">
        <ele>128.3</ele>
        <time>2016-08-07T07:45:50Z</time>
      </trkpt>
      <trkpt lat="44.8819" lon="0.57802">
        <ele>128.9</ele>
        <time>2016-08-07T07:45:54Z</time>
      </trkpt>
      <trkpt lat="44.88181" lon="0.57804">
        <ele>128.9</ele>
        <time>2016-08-07T07:45:58Z</time>
      </trkpt>
      <trkpt lat="44.88172" lon="0.57806">
        <ele>130.3</ele>
        <time>2016-08-07T07:46:02Z</time>
      </trkpt>
      <trkpt lat="44.88164" lon="0.5781">
        <ele>131.3</ele>
        <time>2016-08-07T07:46:06Z</time>
      </trkpt>
      <trkpt lat="44.88155" lon="0.57816">
        <ele>131.9</ele>
        <time>2016-08-07T07:46:10Z</time>
      </trkpt>
      <trkpt lat="44.88148" lon="0.57822">
        <ele>132.3</ele>
        <time>2016-08-07T07:46:14Z</time>
      </trkpt>
      <trkpt lat="44.8814" lon="0.57829">
        <ele>132.7</ele>
        <time>2016-08-07T07:46:18Z</time>
      </trkpt>
      <trkpt lat="44.88132" lon="0.57836">
        <ele>133.1</ele>
        <time>2016-08-07T07:46:22Z</time>
      </trkpt>
      <trkpt lat="44.88124" lon="0.57841">
        <ele>133.2</ele>
        <time>2016-08-07T07:46:26Z</time>
      </trkpt>
      <trkpt lat="44.88113" lon="0.57846">
        <ele>133.2</ele>
        <time>2016-08-07T07:46:30Z</time>
      </trkpt>
      <trkpt lat="44.88103" lon="0.57855">
        <ele>134.3</ele>
        <time>2016-08-07T07:46:34Z</time>
      </trkpt>
      <trkpt lat="44.88092" lon="0.57862">
        <ele>134.3</ele>
        <time>2016-08-07T07:46:38Z</time>
      </trkpt>
      <trkpt lat="44.88082" lon="0.57871">
        <ele>134.9</ele>
        <time>2016-08-07T07:46:42Z</time>
      </trkpt>
      <trkpt lat="44.88071" lon="0.5788">
        <ele>134.9</ele>
        <time>2016-08-07T07:46:46Z</time>
      </trkpt>
      <trkpt lat="44.8806" lon="0.57883">
        <ele>135.6</ele>
        <time>2016-08-07T07:46:50Z</time>
      </trkpt>
      <trkpt lat="44.88048" lon="0.57883">
        <ele>136.7</ele>
        <time>2016-08-07T07:46:54Z</time>
      </trkpt>
      <trkpt lat="44.88035" lon="0.57883">
        <ele>136.8</ele>
        <time>2016-08-07T07:46:58Z</time>
      </trkpt>
      <trkpt lat="44.88022" lon="0.57885">
        <ele>137.6</ele>
        <time>2016-08-07T07:47:02Z</time>
      </trkpt>
      <trkpt lat="44.88011" lon="0.5789">
        <ele>137.9</ele>
        <time>2016-08-07T07:47:06Z</time>
      </trkpt>
      <trkpt lat="44.88001" lon="0.57894">
        <ele>138.7</ele>
        <time>2016-08-07T07:47:10Z</time>
      </trkpt>
      <trkpt lat="44.87989" lon="0.579">
        <ele>139</ele>
        <time>2016-08-07T07:47:14Z</time>
      </trkpt>
      <trkpt lat="44.87978" lon="0.57906">
        <ele>139</ele>
        <time>2016-08-07T07:47:18Z</time>
      </trkpt>
      <trkpt lat="44.87967" lon="0.57915">
        <ele>140.3</ele>
        <time>2016-08-07T07:47:22Z</time>
      </trkpt>
      <trkpt lat="44.87957" lon="0.57925">
        <ele>140.3</ele>
        <time>2016-08-07T07:47:26Z</time>
      </trkpt>
      <trkpt lat="44.87948" lon="0.57945">
        <ele>139.9</ele>
        <time>2016-08-07T07:47:30Z</time>
      </trkpt>
      <trkpt lat="44.87944" lon="0.57968">
        <ele>139.5</ele>
        <time>2016-08-07T07:47:34Z</time>
      </trkpt>
      <trkpt lat="44.87938" lon="0.5799">
        <ele>138.2</ele>
        <time>2016-08-07T07:47:38Z</time>
      </trkpt>
      <trkpt lat="44.8793" lon="0.5801">
        <ele>137.7</ele>
        <time>2016-08-07T07:47:42Z</time>
      </trkpt>
      <trkpt lat="44.87925" lon="0.58035">
        <ele>137.7</ele>
        <time>2016-08-07T07:47:46Z</time>
      </trkpt>
      <trkpt lat="44.8792" lon="0.58058">
        <ele>136.6</ele>
        <time>2016-08-07T07:47:50Z</time>
      </trkpt>
      <trkpt lat="44.87911" lon="0.58086">
        <ele>135.5</ele>
        <time>2016-08-07T07:47:54Z</time>
      </trkpt>
      <trkpt lat="44.87906" lon="0.5812">
        <ele>135.5</ele>
        <time>2016-08-07T07:47:58Z</time>
      </trkpt>
      <trkpt lat="44.87897" lon="0.58146">
        <ele>134.1</ele>
        <time>2016-08-07T07:48:02Z</time>
      </trkpt>
      <trkpt lat="44.87896" lon="0.58178">
        <ele>132.4</ele>
        <time>2016-08-07T07:48:06Z</time>
      </trkpt>
      <trkpt lat="44.87903" lon="0.58212">
        <ele>131.2</ele>
        <time>2016-08-07T07:48:10Z</time>
      </trkpt>
      <trkpt lat="44.87908" lon="0.58255">
        <ele>127.4</ele>
        <time>2016-08-07T07:48:14Z</time>
      </trkpt>
      <trkpt lat="44.87918" lon="0.58285">
        <ele>127.4</ele>
        <time>2016-08-07T07:48:18Z</time>
      </trkpt>
      <trkpt lat="44.87929" lon="0.58315">
        <ele>128.5</ele>
        <time>2016-08-07T07:48:22Z</time>
      </trkpt>
      <trkpt lat="44.87933" lon="0.58342">
        <ele>129.6</ele>
        <time>2016-08-07T07:48:26Z</time>
      </trkpt>
      <trkpt lat="44.87942" lon="0.5837">
        <ele>130.2</ele>
        <time>2016-08-07T07:48:30Z</time>
      </trkpt>
      <trkpt lat="44.87948" lon="0.58393">
        <ele>131.5</ele>
        <time>2016-08-07T07:48:34Z</time>
      </trkpt>
      <trkpt lat="44.87952" lon="0.5842">
        <ele>133</ele>
        <time>2016-08-07T07:48:38Z</time>
      </trkpt>
      <trkpt lat="44.8796" lon="0.58443">
        <ele>133.4</ele>
        <time>2016-08-07T07:48:42Z</time>
      </trkpt>
      <trkpt lat="44.8796" lon="0.58468">
        <ele>133.4</ele>
        <time>2016-08-07T07:48:46Z</time>
      </trkpt>
      <trkpt lat="44.87959" lon="0.58489">
        <ele>134.6</ele>
        <time>2016-08-07T07:48:50Z</time>
      </trkpt>
      <trkpt lat="44.87964" lon="0.58514">
        <ele>135.3</ele>
        <time>2016-08-07T07:48:54Z</time>
      </trkpt>
      <trkpt lat="44.87966" lon="0.58535">
        <ele>136.3</ele>
        <time>2016-08-07T07:48:58Z</time>
      </trkpt>
      <trkpt lat="44.87967" lon="0.58554">
        <ele>136.3</ele>
        <time>2016-08-07T07:49:02Z</time>
      </trkpt>
      <trkpt lat="44.87965" lon="0.58567">
        <ele>136.3</ele>
        <time>2016-08-07T07:49:06Z</time>
      </trkpt>
      <trkpt lat="44.87962" lon="0.58584">
        <ele>138</ele>
        <time>2016-08-07T07:49:10Z</time>
      </trkpt>
      <trkpt lat="44.87953" lon="0.58599">
        <ele>138.7</ele>
        <time>2016-08-07T07:49:14Z</time>
      </trkpt>
      <trkpt lat="44.87942" lon="0.58605">
        <ele>139.8</ele>
        <time>2016-08-07T07:49:18Z</time>
      </trkpt>
      <trkpt lat="44.87932" lon="0.58601">
        <ele>140.1</ele>
        <time>2016-08-07T07:49:22Z</time>
      </trkpt>
      <trkpt lat="44.87923" lon="0.58597">
        <ele>140.1</ele>
        <time>2016-08-07T07:49:26Z</time>
      </trkpt>
      <trkpt lat="44.87914" lon="0.58593">
        <ele>140.7</ele>
        <time>2016-08-07T07:49:30Z</time>
      </trkpt>
      <trkpt lat="44.87903" lon="0.58588">
        <ele>141.3</ele>
        <time>2016-08-07T07:49:34Z</time>
      </trkpt>
      <trkpt lat="44.8789" lon="0.58581">
        <ele>141.3</ele>
        <time>2016-08-07T07:49:38Z</time>
      </trkpt>
      <trkpt lat="44.87875" lon="0.58574">
        <ele>142.2</ele>
        <time>2016-08-07T07:49:42Z</time>
      </trkpt>
      <trkpt lat="44.87861" lon="0.58573">
        <ele>142.7</ele>
        <time>2016-08-07T07:49:46Z</time>
      </trkpt>
      <trkpt lat="44.8785" lon="0.58577">
        <ele>143.7</ele>
        <time>2016-08-07T07:49:50Z</time>
      </trkpt>
      <trkpt lat="44.8784" lon="0.58586">
        <ele>143.7</ele>
        <time>2016-08-07T07:49:54Z</time>
      </trkpt>
      <trkpt lat="44.87827" lon="0.58594">
        <ele>143</ele>
        <time>2016-08-07T07:49:58Z</time>
      </trkpt>
      <trkpt lat="44.87812" lon="0.58603">
        <ele>143.5</ele>
        <time>2016-08-07T07:50:02Z</time>
      </trkpt>
      <trkpt lat="44.87799" lon="0.58609">
        <ele>143.5</ele>
        <time>2016-08-07T07:50:06Z</time>
      </trkpt>
      <trkpt lat="44.87788" lon="0.58617">
        <ele>144.8</ele>
        <time>2016-08-07T07:50:10Z</time>
      </trkpt>
      <trkpt lat="44.87778" lon="0.58629">
        <ele>145.3</ele>
        <time>2016-08-07T07:50:14Z</time>
      </trkpt>
      <trkpt lat="44.87768" lon="0.5864">
        <ele>145.3</ele>
        <time>2016-08-07T07:50:18Z</time>
      </trkpt>
      <trkpt lat="44.87759" lon="0.58654">
        <ele>146.6</ele>
        <time>2016-08-07T07:50:22Z</time>
      </trkpt>
      <trkpt lat="44.87753" lon="0.58663">
        <ele>146.6</ele>
        <time>2016-08-07T07:50:26Z</time>
      </trkpt>
      <trkpt lat="44.87747" lon="0.5867">
        <ele>147.3</ele>
        <time>2016-08-07T07:50:30Z</time>
      </trkpt>
      <trkpt lat="44.8775" lon="0.58683">
        <ele>147.3</ele>
        <time>2016-08-07T07:50:34Z</time>
      </trkpt>
      <trkpt lat="44.87752" lon="0.58702">
        <ele>145</ele>
        <time>2016-08-07T07:50:38Z</time>
      </trkpt>
      <trkpt lat="44.87758" lon="0.58727">
        <ele>143.6</ele>
        <time>2016-08-07T07:50:42Z</time>
      </trkpt>
      <trkpt lat="44.87764" lon="0.58754">
        <ele>141.2</ele>
        <time>2016-08-07T07:50:46Z</time>
      </trkpt>
      <trkpt lat="44.8777" lon="0.58779">
        <ele>140.9</ele>
        <time>2016-08-07T07:50:50Z</time>
      </trkpt>
      <trkpt lat="44.87771" lon="0.588">
        <ele>138.9</ele>
        <time>2016-08-07T07:50:54Z</time>
      </trkpt>
      <trkpt lat="44.87776" lon="0.58816">
        <ele>137.7</ele>
        <time>2016-08-07T07:50:58Z</time>
      </trkpt>
      <trkpt lat="44.87779" lon="0.58834">
        <ele>136.5</ele>
        <time>2016-08-07T07:51:02Z</time>
      </trkpt>
      <trkpt lat="44.87787" lon="0.58851">
        <ele>137.2</ele>
        <time>2016-08-07T07:51:06Z</time>
      </trkpt>
      <trkpt lat="44.87794" lon="0.58875">
        <ele>134.1</ele>
        <time>2016-08-07T07:51:10Z</time>
      </trkpt>
      <trkpt lat="44.878" lon="0.58904">
        <ele>134.1</ele>
        <time>2016-08-07T07:51:14Z</time>
      </trkpt>
      <trkpt lat="44.87805" lon="0.58929">
        <ele>133.9</ele>
        <time>2016-08-07T07:51:18Z</time>
      </trkpt>
      <trkpt lat="44.87808" lon="0.58951">
        <ele>133.7</ele>
        <time>2016-08-07T07:51:22Z</time>
      </trkpt>
      <trkpt lat="44.8781" lon="0.5897">
        <ele>133.7</ele>
        <time>2016-08-07T07:51:26Z</time>
      </trkpt>
      <trkpt lat="44.87812" lon="0.58993">
        <ele>132.8</ele>
        <time>2016-08-07T07:51:30Z</time>
      </trkpt>
      <trkpt lat="44.87813" lon="0.59016">
        <ele>132.8</ele>
        <time>2016-08-07T07:51:34Z</time>
      </trkpt>
      <trkpt lat="44.87814" lon="0.59043">
        <ele>133.1</ele>
        <time>2016-08-07T07:51:38Z</time>
      </trkpt>
      <trkpt lat="44.87812" lon="0.59073">
        <ele>131.7</ele>
        <time>2016-08-07T07:51:42Z</time>
      </trkpt>
      <trkpt lat="44.87811" lon="0.59103">
        <ele>130.5</ele>
        <time>2016-08-07T07:51:46Z</time>
      </trkpt>
      <trkpt lat="44.87826" lon="0.59116">
        <ele>129.5</ele>
        <time>2016-08-07T07:51:50Z</time>
      </trkpt>
      <trkpt lat="44.87846" lon="0.59124">
        <ele>127.6</ele>
        <time>2016-08-07T07:51:54Z</time>
      </trkpt>
      <trkpt lat="44.87868" lon="0.59132">
        <ele>127.6</ele>
        <time>2016-08-07T07:51:58Z</time>
      </trkpt>
      <trkpt lat="44.87887" lon="0.5914">
        <ele>126.9</ele>
        <time>2016-08-07T07:52:02Z</time>
      </trkpt>
      <trkpt lat="44.87905" lon="0.59148">
        <ele>126.6</ele>
        <time>2016-08-07T07:52:06Z</time>
      </trkpt>
      <trkpt lat="44.87921" lon="0.59155">
        <ele>126.6</ele>
        <time>2016-08-07T07:52:10Z</time>
      </trkpt>
      <trkpt lat="44.87933" lon="0.5916">
        <ele>125.6</ele>
        <time>2016-08-07T07:52:14Z</time>
      </trkpt>
      <trkpt lat="44.87947" lon="0.59163">
        <ele>125.6</ele>
        <time>2016-08-07T07:52:18Z</time>
      </trkpt>
      <trkpt lat="44.8796" lon="0.59171">
        <ele>126.5</ele>
        <time>2016-08-07T07:52:22Z</time>
      </trkpt>
      <trkpt lat="44.87973" lon="0.5918">
        <ele>126.9</ele>
        <time>2016-08-07T07:52:26Z</time>
      </trkpt>
      <trkpt lat="44.87991" lon="0.59191">
        <ele>127.3</ele>
        <time>2016-08-07T07:52:30Z</time>
      </trkpt>
      <trkpt lat="44.88002" lon="0.59202">
        <ele>127.3</ele>
        <time>2016-08-07T07:52:34Z</time>
      </trkpt>
      <trkpt lat="44.88013" lon="0.59213">
        <ele>128.2</ele>
        <time>2016-08-07T07:52:38Z</time>
      </trkpt>
      <trkpt lat="44.88023" lon="0.59223">
        <ele>129.3</ele>
        <time>2016-08-07T07:52:42Z</time>
      </trkpt>
      <trkpt lat="44.88036" lon="0.59234">
        <ele>130.2</ele>
        <time>2016-08-07T07:52:46Z</time>
      </trkpt>
      <trkpt lat="44.88053" lon="0.59243">
        <ele>130.3</ele>
        <time>2016-08-07T07:52:50Z</time>
      </trkpt>
      <trkpt lat="44.88068" lon="0.59254">
        <ele>129.2</ele>
        <time>2016-08-07T07:52:54Z</time>
      </trkpt>
      <trkpt lat="44.8809" lon="0.59258">
        <ele>130.3</ele>
        <time>2016-08-07T07:52:58Z</time>
      </trkpt>
      <trkpt lat="44.88104" lon="0.59268">
        <ele>129.3</ele>
        <time>2016-08-07T07:53:02Z</time>
      </trkpt>
      <trkpt lat="44.88119" lon="0.59286">
        <ele>130</ele>
        <time>2016-08-07T07:53:06Z</time>
      </trkpt>
      <trkpt lat="44.88122" lon="0.59304">
        <ele>130.9</ele>
        <time>2016-08-07T07:53:10Z</time>
      </trkpt>
      <trkpt lat="44.88136" lon="0.59321">
        <ele>131.7</ele>
        <time>2016-08-07T07:53:14Z</time>
      </trkpt>
      <trkpt lat="44.8814" lon="0.59337">
        <ele>132.9</ele>
        <time>2016-08-07T07:53:18Z</time>
      </trkpt>
      <trkpt lat="44.88135" lon="0.59352">
        <ele>133.7</ele>
        <time>2016-08-07T07:53:22Z</time>
      </trkpt>
      <trkpt lat="44.88127" lon="0.59367">
        <ele>133.5</ele>
        <time>2016-08-07T07:53:26Z</time>
      </trkpt>
      <trkpt lat="44.88118" lon="0.59387">
        <ele>133.8</ele>
        <time>2016-08-07T07:53:30Z</time>
      </trkpt>
      <trkpt lat="44.88109" lon="0.59409">
        <ele>134.3</ele>
        <time>2016-08-07T07:53:34Z</time>
      </trkpt>
      <trkpt lat="44.88101" lon="0.59436">
        <ele>134.1</ele>
        <time>2016-08-07T07:53:38Z</time>
      </trkpt>
      <trkpt lat="44.88092" lon="0.59463">
        <ele>134.8</ele>
        <time>2016-08-07T07:53:42Z</time>
      </trkpt>
      <trkpt lat="44.88083" lon="0.59489">
        <ele>134.8</ele>
        <time>2016-08-07T07:53:46Z</time>
      </trkpt>
      <trkpt lat="44.88074" lon="0.59513">
        <ele>136.4</ele>
        <time>2016-08-07T07:53:50Z</time>
      </trkpt>
      <trkpt lat="44.88064" lon="0.5954">
        <ele>137.3</ele>
        <time>2016-08-07T07:53:54Z</time>
      </trkpt>
      <trkpt lat="44.88052" lon="0.59563">
        <ele>138.5</ele>
        <time>2016-08-07T07:53:58Z</time>
      </trkpt>
      <trkpt lat="44.88042" lon="0.59581">
        <ele>139.9</ele>
        <time>2016-08-07T07:54:02Z</time>
      </trkpt>
      <trkpt lat="44.88033" lon="0.59599">
        <ele>139.9</ele>
        <time>2016-08-07T07:54:06Z</time>
      </trkpt>
      <trkpt lat="44.88024" lon="0.59617">
        <ele>140.6</ele>
        <time>2016-08-07T07:54:10Z</time>
      </trkpt>
      <trkpt lat="44.88014" lon="0.59634">
        <ele>141.5</ele>
        <time>2016-08-07T07:54:14Z</time>
      </trkpt>
      <trkpt lat="44.88003" lon="0.59651">
        <ele>141.6</ele>
        <time>2016-08-07T07:54:18Z</time>
      </trkpt>
      <trkpt lat="44.8799" lon="0.59667">
        <ele>141.1</ele>
        <time>2016-08-07T07:54:22Z</time>
      </trkpt>
      <trkpt lat="44.87977" lon="0.59683">
        <ele>141.1</ele>
        <time>2016-08-07T07:54:26Z</time>
      </trkpt>
      <trkpt lat="44.87963" lon="0.59697">
        <ele>141.4</ele>
        <time>2016-08-07T07:54:30Z</time>
      </trkpt>
      <trkpt lat="44.87952" lon="0.59713">
        <ele>141.1</ele>
        <time>2016-08-07T07:54:34Z</time>
      </trkpt>
      <trkpt lat="44.87946" lon="0.59738">
        <ele>140.4</ele>
        <time>2016-08-07T07:54:38Z</time>
      </trkpt>
      <trkpt lat="44.87965" lon="0.59747">
        <ele>140.4</ele>
        <time>2016-08-07T07:54:42Z</time>
      </trkpt>
      <trkpt lat="44.87983" lon="0.59749">
        <ele>139.7</ele>
        <time>2016-08-07T07:54:46Z</time>
      </trkpt>
      <trkpt lat="44.88" lon="0.59753">
        <ele>138.4</ele>
        <time>2016-08-07T07:54:50Z</time>
      </trkpt>
      <trkpt lat="44.8802" lon="0.59758">
        <ele>137.5</ele>
        <time>2016-08-07T07:54:54Z</time>
      </trkpt>
      <trkpt lat="44.88041" lon="0.59767">
        <ele>138.5</ele>
        <time>2016-08-07T07:54:58Z</time>
      </trkpt>
      <trkpt lat="44.88064" lon="0.59777">
        <ele>137.5</ele>
        <time>2016-08-07T07:55:02Z</time>
      </trkpt>
      <trkpt lat="44.88085" lon="0.59787">
        <ele>137.3</ele>
        <time>2016-08-07T07:55:06Z</time>
      </trkpt>
      <trkpt lat="44.88106" lon="0.59796">
        <ele>137.9</ele>
        <time>2016-08-07T07:55:10Z</time>
      </trkpt>
      <trkpt lat="44.8812" lon="0.59803">
        <ele>137.5</ele>
        <time>2016-08-07T07:55:14Z</time>
      </trkpt>
      <trkpt lat="44.88137" lon="0.59812">
        <ele>137.3</ele>
        <time>2016-08-07T07:55:18Z</time>
      </trkpt>
      <trkpt lat="44.88151" lon="0.59828">
        <ele>137.2</ele>
        <time>2016-08-07T07:55:22Z</time>
      </trkpt>
      <trkpt lat="44.88162" lon="0.59844">
        <ele>137.6</ele>
        <time>2016-08-07T07:55:26Z</time>
      </trkpt>
      <trkpt lat="44.88177" lon="0.5986">
        <ele>136.7</ele>
        <time>2016-08-07T07:55:30Z</time>
      </trkpt>
      <trkpt lat="44.88192" lon="0.59875">
        <ele>135.3</ele>
        <time>2016-08-07T07:55:34Z</time>
      </trkpt>
      <trkpt lat="44.88215" lon="0.59893">
        <ele>134.6</ele>
        <time>2016-08-07T07:55:38Z</time>
      </trkpt>
      <trkpt lat="44.88242" lon="0.59911">
        <ele>131.9</ele>
        <time>2016-08-07T07:55:42Z</time>
      </trkpt>
      <trkpt lat="44.88275" lon="0.59909">
        <ele>130.6</ele>
        <time>2016-08-07T07:55:46Z</time>
      </trkpt>
      <trkpt lat="44.88301" lon="0.59903">
        <ele>130.6</ele>
        <time>2016-08-07T07:55:50Z</time>
      </trkpt>
      <trkpt lat="44.88326" lon="0.59893">
        <ele>130.2</ele>
        <time>2016-08-07T07:55:54Z</time>
      </trkpt>
      <trkpt lat="44.88346" lon="0.59883">
        <ele>130.2</ele>
        <time>2016-08-07T07:55:58Z</time>
      </trkpt>
      <trkpt lat="44.8837" lon="0.59872">
        <ele>129.3</ele>
        <time>2016-08-07T07:56:02Z</time>
      </trkpt>
      <trkpt lat="44.88392" lon="0.59877">
        <ele>127.1</ele>
        <time>2016-08-07T07:56:06Z</time>
      </trkpt>
      <trkpt lat="44.88407" lon="0.59896">
        <ele>127.8</ele>
        <time>2016-08-07T07:56:10Z</time>
      </trkpt>
      <trkpt lat="44.8843" lon="0.59927">
        <ele>124.5</ele>
        <time>2016-08-07T07:56:14Z</time>
      </trkpt>
      <trkpt lat="44.88455" lon="0.59964">
        <ele>121.4</ele>
        <time>2016-08-07T07:56:18Z</time>
      </trkpt>
      <trkpt lat="44.88477" lon="0.59999">
        <ele>121.4</ele>
        <time>2016-08-07T07:56:22Z</time>
      </trkpt>
      <trkpt lat="44.88485" lon="0.60026">
        <ele>125</ele>
        <time>2016-08-07T07:56:26Z</time>
      </trkpt>
      <trkpt lat="44.88493" lon="0.6004">
        <ele>127.9</ele>
        <time>2016-08-07T07:56:30Z</time>
      </trkpt>
      <trkpt lat="44.88501" lon="0.60042">
        <ele>129.4</ele>
        <time>2016-08-07T07:56:34Z</time>
      </trkpt>
      <trkpt lat="44.88514" lon="0.60041">
        <ele>129.4</ele>
        <time>2016-08-07T07:56:38Z</time>
      </trkpt>
      <trkpt lat="44.88528" lon="0.60035">
        <ele>129.7</ele>
        <time>2016-08-07T07:56:42Z</time>
      </trkpt>
      <trkpt lat="44.88542" lon="0.60027">
        <ele>129.7</ele>
        <time>2016-08-07T07:56:46Z</time>
      </trkpt>
      <trkpt lat="44.88554" lon="0.60019">
        <ele>130.6</ele>
        <time>2016-08-07T07:56:50Z</time>
      </trkpt>
      <trkpt lat="44.88567" lon="0.60011">
        <ele>130.6</ele>
        <time>2016-08-07T07:56:54Z</time>
      </trkpt>
      <trkpt lat="44.8858" lon="0.59998">
        <ele>131.4</ele>
        <time>2016-08-07T07:56:58Z</time>
      </trkpt>
      <trkpt lat="44.88593" lon="0.59985">
        <ele>131.4</ele>
        <time>2016-08-07T07:57:02Z</time>
      </trkpt>
      <trkpt lat="44.88604" lon="0.59973">
        <ele>132.8</ele>
        <time>2016-08-07T07:57:06Z</time>
      </trkpt>
      <trkpt lat="44.88618" lon="0.5996">
        <ele>131.7</ele>
        <time>2016-08-07T07:57:10Z</time>
      </trkpt>
      <trkpt lat="44.88631" lon="0.59944">
        <ele>131.6</ele>
        <time>2016-08-07T07:57:14Z</time>
      </trkpt>
      <trkpt lat="44.88646" lon="0.59933">
        <ele>133.2</ele>
        <time>2016-08-07T07:57:18Z</time>
      </trkpt>
      <trkpt lat="44.88653" lon="0.59927">
        <ele>133.2</ele>
        <time>2016-08-07T07:57:22Z</time>
      </trkpt>
      <trkpt lat="44.88667" lon="0.5993">
        <ele>133.5</ele>
        <time>2016-08-07T07:57:26Z</time>
      </trkpt>
      <trkpt lat="44.88676" lon="0.59935">
        <ele>133.4</ele>
        <time>2016-08-07T07:57:30Z</time>
      </trkpt>
      <trkpt lat="44.88686" lon="0.59941">
        <ele>134.6</ele>
        <time>2016-08-07T07:57:34Z</time>
      </trkpt>
      <trkpt lat="44.88696" lon="0.59948">
        <ele>135.5</ele>
        <time>2016-08-07T07:57:38Z</time>
      </trkpt>
      <trkpt lat="44.88708" lon="0.59948">
        <ele>136.5</ele>
        <time>2016-08-07T07:57:42Z</time>
      </trkpt>
      <trkpt lat="44.8872" lon="0.59945">
        <ele>136.2</ele>
        <time>2016-08-07T07:57:46Z</time>
      </trkpt>
      <trkpt lat="44.88733" lon="0.59942">
        <ele>137.4</ele>
        <time>2016-08-07T07:57:50Z</time>
      </trkpt>
      <trkpt lat="44.88747" lon="0.59938">
        <ele>138.3</ele>
        <time>2016-08-07T07:57:54Z</time>
      </trkpt>
      <trkpt lat="44.8876" lon="0.59936">
        <ele>138.3</ele>
        <time>2016-08-07T07:57:58Z</time>
      </trkpt>
      <trkpt lat="44.88774" lon="0.59931">
        <ele>138</ele>
        <time>2016-08-07T07:58:02Z</time>
      </trkpt>
      <trkpt lat="44.88787" lon="0.59927">
        <ele>139.3</ele>
        <time>2016-08-07T07:58:06Z</time>
      </trkpt>
      <trkpt lat="44.888" lon="0.59923">
        <ele>140</ele>
        <time>2016-08-07T07:58:10Z</time>
      </trkpt>
      <trkpt lat="44.88813" lon="0.5992">
        <ele>140.8</ele>
        <time>2016-08-07T07:58:14Z</time>
      </trkpt>
      <trkpt lat="44.88826" lon="0.59914">
        <ele>140.1</ele>
        <time>2016-08-07T07:58:18Z</time>
      </trkpt>
      <trkpt lat="44.8884" lon="0.59909">
        <ele>141.1</ele>
        <time>2016-08-07T07:58:22Z</time>
      </trkpt>
      <trkpt lat="44.88854" lon="0.59904">
        <ele>141.1</ele>
        <time>2016-08-07T07:58:26Z</time>
      </trkpt>
      <trkpt lat="44.88868" lon="0.59899">
        <ele>141.7</ele>
        <time>2016-08-07T07:58:30Z</time>
      </trkpt>
      <trkpt lat="44.88882" lon="0.59895">
        <ele>141.7</ele>
        <time>2016-08-07T07:58:34Z</time>
      </trkpt>
      <trkpt lat="44.88898" lon="0.59891">
        <ele>142.4</ele>
        <time>2016-08-07T07:58:38Z</time>
      </trkpt>
      <trkpt lat="44.88917" lon="0.59884">
        <ele>141.3</ele>
        <time>2016-08-07T07:58:42Z</time>
      </trkpt>
      <trkpt lat="44.88938" lon="0.59877">
        <ele>141.2</ele>
        <time>2016-08-07T07:58:46Z</time>
      </trkpt>
      <trkpt lat="44.88957" lon="0.59875">
        <ele>140</ele>
        <time>2016-08-07T07:58:50Z</time>
      </trkpt>
      <trkpt lat="44.88969" lon="0.59888">
        <ele>137.3</ele>
        <time>2016-08-07T07:58:54Z</time>
      </trkpt>
      <trkpt lat="44.88979" lon="0.59908">
        <ele>135.8</ele>
        <time>2016-08-07T07:58:58Z</time>
      </trkpt>
      <trkpt lat="44.88992" lon="0.59932">
        <ele>134.6</ele>
        <time>2016-08-07T07:59:02Z</time>
      </trkpt>
      <trkpt lat="44.88996" lon="0.59959">
        <ele>133.1</ele>
        <time>2016-08-07T07:59:06Z</time>
      </trkpt>
      <trkpt lat="44.88997" lon="0.59984">
        <ele>134.3</ele>
        <time>2016-08-07T07:59:10Z</time>
      </trkpt>
      <trkpt lat="44.89" lon="0.60001">
        <ele>135.4</ele>
        <time>2016-08-07T07:59:14Z</time>
      </trkpt>
      <trkpt lat="44.89003" lon="0.60019">
        <ele>134.4</ele>
        <time>2016-08-07T07:59:18Z</time>
      </trkpt>
      <trkpt lat="44.89013" lon="0.60047">
        <ele>132.2</ele>
        <time>2016-08-07T07:59:22Z</time>
      </trkpt>
      <trkpt lat="44.89026" lon="0.60052">
        <ele>130.9</ele>
        <time>2016-08-07T07:59:26Z</time>
      </trkpt>
      <trkpt lat="44.89037" lon="0.60032">
        <ele>126.2</ele>
        <time>2016-08-07T07:59:30Z</time>
      </trkpt>
      <trkpt lat="44.89044" lon="0.60023">
        <ele>125</ele>
        <time>2016-08-07T07:59:34Z</time>
      </trkpt>
      <trkpt lat="44.89054" lon="0.60035">
        <ele>123.7</ele>
        <time>2016-08-07T07:59:38Z</time>
      </trkpt>
      <trkpt lat="44.89069" lon="0.60052">
        <ele>122</ele>
        <time>2016-08-07T07:59:42Z</time>
      </trkpt>
      <trkpt lat="44.891" lon="0.60066">
        <ele>115.6</ele>
        <time>2016-08-07T07:59:46Z</time>
      </trkpt>
      <trkpt lat="44.8912" lon="0.60092">
        <ele>110.5</ele>
        <time>2016-08-07T07:59:50Z</time>
      </trkpt>
      <trkpt lat="44.89141" lon="0.60129">
        <ele>107.7</ele>
        <time>2016-08-07T07:59:54Z</time>
      </trkpt>
      <trkpt lat="44.89161" lon="0.60138">
        <ele>106.5</ele>
        <time>2016-08-07T07:59:58Z</time>
      </trkpt>
      <trkpt lat="44.89186" lon="0.60139">
        <ele>103.5</ele>
        <time>2016-08-07T08:00:02Z</time>
      </trkpt>
      <trkpt lat="44.89208" lon="0.60164">
        <ele>103.5</ele>
        <time>2016-08-07T08:00:06Z</time>
      </trkpt>
      <trkpt lat="44.89224" lon="0.60192">
        <ele>101.2</ele>
        <time>2016-08-07T08:00:10Z</time>
      </trkpt>
      <trkpt lat="44.89229" lon="0.60216">
        <ele>103.8</ele>
        <time>2016-08-07T08:00:14Z</time>
      </trkpt>
      <trkpt lat="44.89231" lon="0.6024">
        <ele>103.1</ele>
        <time>2016-08-07T08:00:18Z</time>
      </trkpt>
      <trkpt lat="44.89227" lon="0.60252">
        <ele>102.1</ele>
        <time>2016-08-07T08:00:22Z</time>
      </trkpt>
      <trkpt lat="44.89224" lon="0.60258">
        <ele>103.4</ele>
        <time>2016-08-07T08:00:26Z</time>
      </trkpt>
      <trkpt lat="44.89223" lon="0.6027">
        <ele>104.7</ele>
        <time>2016-08-07T08:00:30Z</time>
      </trkpt>
      <trkpt lat="44.89223" lon="0.60283">
        <ele>105.3</ele>
        <time>2016-08-07T08:00:34Z</time>
      </trkpt>
      <trkpt lat="44.89223" lon="0.60305">
        <ele>103.6</ele>
        <time>2016-08-07T08:00:38Z</time>
      </trkpt>
      <trkpt lat="44.89222" lon="0.60323">
        <ele>103.3</ele>
        <time>2016-08-07T08:00:42Z</time>
      </trkpt>
      <trkpt lat="44.89221" lon="0.60336">
        <ele>104</ele>
        <time>2016-08-07T08:00:46Z</time>
      </trkpt>
      <trkpt lat="44.89223" lon="0.60349">
        <ele>103.1</ele>
        <time>2016-08-07T08:00:50Z</time>
      </trkpt>
      <trkpt lat="44.89223" lon="0.60363">
        <ele>102.6</ele>
        <time>2016-08-07T08:00:54Z</time>
      </trkpt>
      <trkpt lat="44.89221" lon="0.60377">
        <ele>103.9</ele>
        <time>2016-08-07T08:00:58Z</time>
      </trkpt>
      <trkpt lat="44.89221" lon="0.60386">
        <ele>103.9</ele>
        <time>2016-08-07T08:01:02Z</time>
      </trkpt>
      <trkpt lat="44.89224" lon="0.60399">
        <ele>103.7</ele>
        <time>2016-08-07T08:01:06Z</time>
      </trkpt>
      <trkpt lat="44.89223" lon="0.60407">
        <ele>103.7</ele>
        <time>2016-08-07T08:01:10Z</time>
      </trkpt>
      <trkpt lat="44.89223" lon="0.60414">
        <ele>104</ele>
        <time>2016-08-07T08:01:14Z</time>
      </trkpt>
      <trkpt lat="44.89222" lon="0.60417">
        <ele>104</ele>
        <time>2016-08-07T08:01:18Z</time>
      </trkpt>
      <trkpt lat="44.89224" lon="0.60431">
        <ele>103.9</ele>
        <time>2016-08-07T08:01:34Z</time>
      </trkpt>
      <trkpt lat="44.89226" lon="0.6044">
        <ele>103.7</ele>
        <time>2016-08-07T08:01:38Z</time>
      </trkpt>
      <trkpt lat="44.89227" lon="0.60446">
        <ele>103.7</ele>
        <time>2016-08-07T08:01:42Z</time>
      </trkpt>
      <trkpt lat="44.89228" lon="0.60453">
        <ele>103.7</ele>
        <time>2016-08-07T08:01:46Z</time>
      </trkpt>
      <trkpt lat="44.89229" lon="0.60456">
        <ele>104</ele>
        <time>2016-08-07T08:01:50Z</time>
      </trkpt>
      <trkpt lat="44.89231" lon="0.60473">
        <ele>103.7</ele>
        <time>2016-08-07T08:02:06Z</time>
      </trkpt>
      <trkpt lat="44.89231" lon="0.60481">
        <ele>104.1</ele>
        <time>2016-08-07T08:02:10Z</time>
      </trkpt>
      <trkpt lat="44.89231" lon="0.60489">
        <ele>104.5</ele>
        <time>2016-08-07T08:02:14Z</time>
      </trkpt>
      <trkpt lat="44.89233" lon="0.60497">
        <ele>104.7</ele>
        <time>2016-08-07T08:02:18Z</time>
      </trkpt>
      <trkpt lat="44.89232" lon="0.60509">
        <ele>104.8</ele>
        <time>2016-08-07T08:02:22Z</time>
      </trkpt>
      <trkpt lat="44.89231" lon="0.60518">
        <ele>103.6</ele>
        <time>2016-08-07T08:02:26Z</time>
      </trkpt>
      <trkpt lat="44.89231" lon="0.60531">
        <ele>103</ele>
        <time>2016-08-07T08:02:30Z</time>
      </trkpt>
      <trkpt lat="44.8923" lon="0.60548">
        <ele>101.8</ele>
        <time>2016-08-07T08:02:34Z</time>
      </trkpt>
      <trkpt lat="44.8923" lon="0.60568">
        <ele>100.5</ele>
        <time>2016-08-07T08:02:38Z</time>
      </trkpt>
      <trkpt lat="44.89233" lon="0.60581">
        <ele>100.2</ele>
        <time>2016-08-07T08:02:42Z</time>
      </trkpt>
      <trkpt lat="44.89232" lon="0.60596">
        <ele>100.1</ele>
        <time>2016-08-07T08:02:46Z</time>
      </trkpt>
      <trkpt lat="44.89232" lon="0.6061">
        <ele>100.1</ele>
        <time>2016-08-07T08:02:50Z</time>
      </trkpt>
      <trkpt lat="44.89232" lon="0.60629">
        <ele>100.1</ele>
        <time>2016-08-07T08:02:54Z</time>
      </trkpt>
      <trkpt lat="44.89233" lon="0.6065">
        <ele>98.2</ele>
        <time>2016-08-07T08:02:58Z</time>
      </trkpt>
      <trkpt lat="44.89235" lon="0.60664">
        <ele>97.9</ele>
        <time>2016-08-07T08:03:02Z</time>
      </trkpt>
      <trkpt lat="44.89237" lon="0.60679">
        <ele>98</ele>
        <time>2016-08-07T08:03:06Z</time>
      </trkpt>
      <trkpt lat="44.89236" lon="0.60694">
        <ele>97.8</ele>
        <time>2016-08-07T08:03:10Z</time>
      </trkpt>
      <trkpt lat="44.89236" lon="0.60703">
        <ele>100.5</ele>
        <time>2016-08-07T08:03:14Z</time>
      </trkpt>
      <trkpt lat="44.89237" lon="0.60712">
        <ele>101.8</ele>
        <time>2016-08-07T08:03:18Z</time>
      </trkpt>
      <trkpt lat="44.89237" lon="0.6072">
        <ele>103.1</ele>
        <time>2016-08-07T08:03:22Z</time>
      </trkpt>
      <trkpt lat="44.8924" lon="0.60731">
        <ele>104.2</ele>
        <time>2016-08-07T08:03:26Z</time>
      </trkpt>
      <trkpt lat="44.89237" lon="0.6074">
        <ele>105.4</ele>
        <time>2016-08-07T08:03:30Z</time>
      </trkpt>
      <trkpt lat="44.89235" lon="0.60745">
        <ele>106.5</ele>
        <time>2016-08-07T08:03:34Z</time>
      </trkpt>
      <trkpt lat="44.89238" lon="0.60757">
        <ele>105.1</ele>
        <time>2016-08-07T08:03:38Z</time>
      </trkpt>
      <trkpt lat="44.89244" lon="0.60769">
        <ele>103.8</ele>
        <time>2016-08-07T08:03:42Z</time>
      </trkpt>
      <trkpt lat="44.89252" lon="0.60784">
        <ele>101.9</ele>
        <time>2016-08-07T08:03:46Z</time>
      </trkpt>
      <trkpt lat="44.89263" lon="0.60797">
        <ele>100.5</ele>
        <time>2016-08-07T08:03:50Z</time>
      </trkpt>
      <trkpt lat="44.8928" lon="0.60813">
        <ele>94.9</ele>
        <time>2016-08-07T08:03:54Z</time>
      </trkpt>
      <trkpt lat="44.89296" lon="0.6083">
        <ele>92</ele>
        <time>2016-08-07T08:03:58Z</time>
      </trkpt>
      <trkpt lat="44.89308" lon="0.60861">
        <ele>90</ele>
        <time>2016-08-07T08:04:02Z</time>
      </trkpt>
      <trkpt lat="44.8931" lon="0.60889">
        <ele>88.7</ele>
        <time>2016-08-07T08:04:06Z</time>
      </trkpt>
      <trkpt lat="44.89316" lon="0.60913">
        <ele>90.3</ele>
        <time>2016-08-07T08:04:10Z</time>
      </trkpt>
      <trkpt lat="44.89334" lon="0.60912">
        <ele>90.4</ele>
        <time>2016-08-07T08:04:14Z</time>
      </trkpt>
      <trkpt lat="44.89346" lon="0.60887">
        <ele>89.5</ele>
        <time>2016-08-07T08:04:18Z</time>
      </trkpt>
      <trkpt lat="44.8936" lon="0.6086">
        <ele>89</ele>
        <time>2016-08-07T08:04:22Z</time>
      </trkpt>
      <trkpt lat="44.89375" lon="0.60829">
        <ele>87.6</ele>
        <time>2016-08-07T08:04:26Z</time>
      </trkpt>
      <trkpt lat="44.8939" lon="0.60799">
        <ele>86.5</ele>
        <time>2016-08-07T08:04:30Z</time>
      </trkpt>
      <trkpt lat="44.89403" lon="0.6077">
        <ele>86.1</ele>
        <time>2016-08-07T08:04:34Z</time>
      </trkpt>
      <trkpt lat="44.89416" lon="0.60743">
        <ele>86.6</ele>
        <time>2016-08-07T08:04:38Z</time>
      </trkpt>
      <trkpt lat="44.89428" lon="0.60715">
        <ele>85.4</ele>
        <time>2016-08-07T08:04:42Z</time>
      </trkpt>
      <trkpt lat="44.89438" lon="0.60683">
        <ele>85.4</ele>
        <time>2016-08-07T08:04:46Z</time>
      </trkpt>
      <trkpt lat="44.89449" lon="0.60653">
        <ele>86.3</ele>
        <time>2016-08-07T08:04:50Z</time>
      </trkpt>
      <trkpt lat="44.89459" lon="0.60619">
        <ele>87.3</ele>
        <time>2016-08-07T08:04:54Z</time>
      </trkpt>
      <trkpt lat="44.89458" lon="0.60578">
        <ele>87.3</ele>
        <time>2016-08-07T08:04:58Z</time>
      </trkpt>
      <trkpt lat="44.89456" lon="0.60549">
        <ele>88.6</ele>
        <time>2016-08-07T08:05:02Z</time>
      </trkpt>
      <trkpt lat="44.89454" lon="0.60536">
        <ele>91.6</ele>
        <time>2016-08-07T08:05:06Z</time>
      </trkpt>
      <trkpt lat="44.89451" lon="0.60524">
        <ele>92.5</ele>
        <time>2016-08-07T08:05:10Z</time>
      </trkpt>
      <trkpt lat="44.89449" lon="0.60508">
        <ele>92.9</ele>
        <time>2016-08-07T08:05:14Z</time>
      </trkpt>
      <trkpt lat="44.89452" lon="0.60494">
        <ele>94.7</ele>
        <time>2016-08-07T08:05:18Z</time>
      </trkpt>
      <trkpt lat="44.89456" lon="0.60483">
        <ele>96.1</ele>
        <time>2016-08-07T08:05:22Z</time>
      </trkpt>
      <trkpt lat="44.89461" lon="0.60475">
        <ele>96.4</ele>
        <time>2016-08-07T08:05:26Z</time>
      </trkpt>
      <trkpt lat="44.89465" lon="0.60466">
        <ele>96.4</ele>
        <time>2016-08-07T08:05:30Z</time>
      </trkpt>
      <trkpt lat="44.89469" lon="0.6046">
        <ele>98.1</ele>
        <time>2016-08-07T08:05:34Z</time>
      </trkpt>
      <trkpt lat="44.89473" lon="0.60454">
        <ele>98.6</ele>
        <time>2016-08-07T08:05:38Z</time>
      </trkpt>
      <trkpt lat="44.89479" lon="0.60447">
        <ele>99.4</ele>
        <time>2016-08-07T08:05:42Z</time>
      </trkpt>
      <trkpt lat="44.89483" lon="0.60439">
        <ele>100.5</ele>
        <time>2016-08-07T08:05:46Z</time>
      </trkpt>
      <trkpt lat="44.89488" lon="0.6043">
        <ele>100.7</ele>
        <time>2016-08-07T08:05:50Z</time>
      </trkpt>
      <trkpt lat="44.89494" lon="0.6042">
        <ele>100.9</ele>
        <time>2016-08-07T08:05:54Z</time>
      </trkpt>
      <trkpt lat="44.89501" lon="0.60411">
        <ele>100.2</ele>
        <time>2016-08-07T08:05:58Z</time>
      </trkpt>
      <trkpt lat="44.89506" lon="0.60405">
        <ele>99.8</ele>
        <time>2016-08-07T08:06:02Z</time>
      </trkpt>
      <trkpt lat="44.89514" lon="0.60401">
        <ele>101</ele>
        <time>2016-08-07T08:06:06Z</time>
      </trkpt>
      <trkpt lat="44.89521" lon="0.60397">
        <ele>102</ele>
        <time>2016-08-07T08:06:10Z</time>
      </trkpt>
      <trkpt lat="44.89529" lon="0.60398">
        <ele>103.4</ele>
        <time>2016-08-07T08:06:14Z</time>
      </trkpt>
      <trkpt lat="44.89535" lon="0.60399">
        <ele>105.6</ele>
        <time>2016-08-07T08:06:18Z</time>
      </trkpt>
      <trkpt lat="44.89538" lon="0.60397">
        <ele>106.3</ele>
        <time>2016-08-07T08:06:22Z</time>
      </trkpt>
      <trkpt lat="44.89543" lon="0.60393">
        <ele>106.3</ele>
        <time>2016-08-07T08:06:26Z</time>
      </trkpt>
      <trkpt lat="44.89548" lon="0.60387">
        <ele>106.5</ele>
        <time>2016-08-07T08:06:30Z</time>
      </trkpt>
      <trkpt lat="44.89555" lon="0.60381">
        <ele>106.5</ele>
        <time>2016-08-07T08:06:34Z</time>
      </trkpt>
      <trkpt lat="44.89561" lon="0.60386">
        <ele>106.8</ele>
        <time>2016-08-07T08:06:38Z</time>
      </trkpt>
      <trkpt lat="44.89564" lon="0.60391">
        <ele>107.4</ele>
        <time>2016-08-07T08:06:42Z</time>
      </trkpt>
      <trkpt lat="44.89572" lon="0.60395">
        <ele>108.4</ele>
        <time>2016-08-07T08:06:46Z</time>
      </trkpt>
      <trkpt lat="44.89578" lon="0.60393">
        <ele>109.5</ele>
        <time>2016-08-07T08:06:50Z</time>
      </trkpt>
      <trkpt lat="44.89585" lon="0.6039">
        <ele>111.5</ele>
        <time>2016-08-07T08:06:54Z</time>
      </trkpt>
      <trkpt lat="44.89591" lon="0.60384">
        <ele>113.4</ele>
        <time>2016-08-07T08:06:58Z</time>
      </trkpt>
      <trkpt lat="44.89597" lon="0.60378">
        <ele>115</ele>
        <time>2016-08-07T08:07:02Z</time>
      </trkpt>
      <trkpt lat="44.89604" lon="0.60372">
        <ele>116.5</ele>
        <time>2016-08-07T08:07:06Z</time>
      </trkpt>
      <trkpt lat="44.8961" lon="0.60372">
        <ele>117.8</ele>
        <time>2016-08-07T08:07:10Z</time>
      </trkpt>
      <trkpt lat="44.89615" lon="0.60376">
        <ele>119.2</ele>
        <time>2016-08-07T08:07:14Z</time>
      </trkpt>
      <trkpt lat="44.89616" lon="0.60382">
        <ele>119.2</ele>
        <time>2016-08-07T08:07:18Z</time>
      </trkpt>
      <trkpt lat="44.8962" lon="0.6039">
        <ele>119.7</ele>
        <time>2016-08-07T08:07:22Z</time>
      </trkpt>
      <trkpt lat="44.89627" lon="0.60396">
        <ele>120.7</ele>
        <time>2016-08-07T08:07:26Z</time>
      </trkpt>
      <trkpt lat="44.89633" lon="0.604">
        <ele>121.7</ele>
        <time>2016-08-07T08:07:30Z</time>
      </trkpt>
      <trkpt lat="44.89629" lon="0.60405">
        <ele>122.7</ele>
        <time>2016-08-07T08:07:34Z</time>
      </trkpt>
      <trkpt lat="44.89625" lon="0.60414">
        <ele>121.8</ele>
        <time>2016-08-07T08:07:38Z</time>
      </trkpt>
      <trkpt lat="44.89621" lon="0.60423">
        <ele>121.6</ele>
        <time>2016-08-07T08:07:42Z</time>
      </trkpt>
      <trkpt lat="44.89615" lon="0.60431">
        <ele>122.3</ele>
        <time>2016-08-07T08:07:46Z</time>
      </trkpt>
      <trkpt lat="44.89614" lon="0.60442">
        <ele>122.3</ele>
        <time>2016-08-07T08:07:50Z</time>
      </trkpt>
      <trkpt lat="44.89607" lon="0.60452">
        <ele>121.9</ele>
        <time>2016-08-07T08:07:54Z</time>
      </trkpt>
      <trkpt lat="44.89603" lon="0.60464">
        <ele>121.9</ele>
        <time>2016-08-07T08:07:58Z</time>
      </trkpt>
      <trkpt lat="44.89598" lon="0.60478">
        <ele>121.6</ele>
        <time>2016-08-07T08:08:02Z</time>
      </trkpt>
      <trkpt lat="44.89594" lon="0.60494">
        <ele>120.6</ele>
        <time>2016-08-07T08:08:06Z</time>
      </trkpt>
      <trkpt lat="44.89588" lon="0.6051">
        <ele>119.5</ele>
        <time>2016-08-07T08:08:10Z</time>
      </trkpt>
      <trkpt lat="44.89588" lon="0.60526">
        <ele>118.2</ele>
        <time>2016-08-07T08:08:14Z</time>
      </trkpt>
      <trkpt lat="44.89588" lon="0.6054">
        <ele>114.8</ele>
        <time>2016-08-07T08:08:18Z</time>
      </trkpt>
      <trkpt lat="44.89592" lon="0.60552">
        <ele>114</ele>
        <time>2016-08-07T08:08:22Z</time>
      </trkpt>
      <trkpt lat="44.89597" lon="0.60562">
        <ele>115</ele>
        <time>2016-08-07T08:08:26Z</time>
      </trkpt>
      <trkpt lat="44.89602" lon="0.60575">
        <ele>112.6</ele>
        <time>2016-08-07T08:08:30Z</time>
      </trkpt>
      <trkpt lat="44.89604" lon="0.60585">
        <ele>108.9</ele>
        <time>2016-08-07T08:08:34Z</time>
      </trkpt>
      <trkpt lat="44.89603" lon="0.60598">
        <ele>105.1</ele>
        <time>2016-08-07T08:08:38Z</time>
      </trkpt>
      <trkpt lat="44.8961" lon="0.60614">
        <ele>104.1</ele>
        <time>2016-08-07T08:08:42Z</time>
      </trkpt>
      <trkpt lat="44.89613" lon="0.60625">
        <ele>103.3</ele>
        <time>2016-08-07T08:08:46Z</time>
      </trkpt>
      <trkpt lat="44.89619" lon="0.60634">
        <ele>103.4</ele>
        <time>2016-08-07T08:08:50Z</time>
      </trkpt>
      <trkpt lat="44.89621" lon="0.60643">
        <ele>103</ele>
        <time>2016-08-07T08:08:54Z</time>
      </trkpt>
      <trkpt lat="44.89621" lon="0.60646">
        <ele>103</ele>
        <time>2016-08-07T08:08:58Z</time>
      </trkpt>
      <trkpt lat="44.89629" lon="0.60653">
        <ele>103</ele>
        <time>2016-08-07T08:09:10Z</time>
      </trkpt>
      <trkpt lat="44.89633" lon="0.60656">
        <ele>103.2</ele>
        <time>2016-08-07T08:09:14Z</time>
      </trkpt>
      <trkpt lat="44.89636" lon="0.60658">
        <ele>104</ele>
        <time>2016-08-07T08:09:18Z</time>
      </trkpt>
      <trkpt lat="44.89641" lon="0.60662">
        <ele>103</ele>
        <time>2016-08-07T08:09:22Z</time>
      </trkpt>
      <trkpt lat="44.89647" lon="0.6067">
        <ele>101.7</ele>
        <time>2016-08-07T08:09:26Z</time>
      </trkpt>
      <trkpt lat="44.89656" lon="0.60675">
        <ele>100.8</ele>
        <time>2016-08-07T08:09:30Z</time>
      </trkpt>
      <trkpt lat="44.89665" lon="0.6068">
        <ele>101</ele>
        <time>2016-08-07T08:09:34Z</time>
      </trkpt>
      <trkpt lat="44.89676" lon="0.60686">
        <ele>101.3</ele>
        <time>2016-08-07T08:09:38Z</time>
      </trkpt>
      <trkpt lat="44.89685" lon="0.60692">
        <ele>102.1</ele>
        <time>2016-08-07T08:09:42Z</time>
      </trkpt>
      <trkpt lat="44.89687" lon="0.60698">
        <ele>102.2</ele>
        <time>2016-08-07T08:09:46Z</time>
      </trkpt>
      <trkpt lat="44.89689" lon="0.60705">
        <ele>99.7</ele>
        <time>2016-08-07T08:09:50Z</time>
      </trkpt>
      <trkpt lat="44.89691" lon="0.60722">
        <ele>97.3</ele>
        <time>2016-08-07T08:10:02Z</time>
      </trkpt>
      <trkpt lat="44.89695" lon="0.60731">
        <ele>97.3</ele>
        <time>2016-08-07T08:10:06Z</time>
      </trkpt>
      <trkpt lat="44.89699" lon="0.60746">
        <ele>94.6</ele>
        <time>2016-08-07T08:10:10Z</time>
      </trkpt>
      <trkpt lat="44.89707" lon="0.60765">
        <ele>93.6</ele>
        <time>2016-08-07T08:10:14Z</time>
      </trkpt>
      <trkpt lat="44.89712" lon="0.60772">
        <ele>94.4</ele>
        <time>2016-08-07T08:10:18Z</time>
      </trkpt>
      <trkpt lat="44.89718" lon="0.60773">
        <ele>95.3</ele>
        <time>2016-08-07T08:10:22Z</time>
      </trkpt>
      <trkpt lat="44.89723" lon="0.6078">
        <ele>96.2</ele>
        <time>2016-08-07T08:10:26Z</time>
      </trkpt>
      <trkpt lat="44.8973" lon="0.6079">
        <ele>97.2</ele>
        <time>2016-08-07T08:10:30Z</time>
      </trkpt>
      <trkpt lat="44.89739" lon="0.60805">
        <ele>96.2</ele>
        <time>2016-08-07T08:10:34Z</time>
      </trkpt>
      <trkpt lat="44.8975" lon="0.60819">
        <ele>96.2</ele>
        <time>2016-08-07T08:10:38Z</time>
      </trkpt>
      <trkpt lat="44.8976" lon="0.60833">
        <ele>96.2</ele>
        <time>2016-08-07T08:10:42Z</time>
      </trkpt>
      <trkpt lat="44.89768" lon="0.60848">
        <ele>97.4</ele>
        <time>2016-08-07T08:10:46Z</time>
      </trkpt>
      <trkpt lat="44.89776" lon="0.60868">
        <ele>96.3</ele>
        <time>2016-08-07T08:10:50Z</time>
      </trkpt>
      <trkpt lat="44.89788" lon="0.60886">
        <ele>96.2</ele>
        <time>2016-08-07T08:10:54Z</time>
      </trkpt>
      <trkpt lat="44.8979" lon="0.60897">
        <ele>97.2</ele>
        <time>2016-08-07T08:10:58Z</time>
      </trkpt>
      <trkpt lat="44.89797" lon="0.6091">
        <ele>95.9</ele>
        <time>2016-08-07T08:11:02Z</time>
      </trkpt>
      <trkpt lat="44.89801" lon="0.60916">
        <ele>95.9</ele>
        <time>2016-08-07T08:11:06Z</time>
      </trkpt>
      <trkpt lat="44.89805" lon="0.60944">
        <ele>97.1</ele>
        <time>2016-08-07T08:11:38Z</time>
      </trkpt>
      <trkpt lat="44.89805" lon="0.60946">
        <ele>97.1</ele>
        <time>2016-08-07T08:11:42Z</time>
      </trkpt>
      <trkpt lat="44.89816" lon="0.60963">
        <ele>98.5</ele>
        <time>2016-08-07T08:12:30Z</time>
      </trkpt>
      <trkpt lat="44.89816" lon="0.60966">
        <ele>98.6</ele>
        <time>2016-08-07T08:12:34Z</time>
      </trkpt>
      <trkpt lat="44.89817" lon="0.60971">
        <ele>97.5</ele>
        <time>2016-08-07T08:12:38Z</time>
      </trkpt>
      <trkpt lat="44.89814" lon="0.60975">
        <ele>96.1</ele>
        <time>2016-08-07T08:12:42Z</time>
      </trkpt>
      <trkpt lat="44.89811" lon="0.60979">
        <ele>95</ele>
        <time>2016-08-07T08:12:46Z</time>
      </trkpt>
      <trkpt lat="44.898" lon="0.60989">
        <ele>88.8</ele>
        <time>2016-08-07T08:12:54Z</time>
      </trkpt>
      <trkpt lat="44.89794" lon="0.61">
        <ele>87.6</ele>
        <time>2016-08-07T08:12:58Z</time>
      </trkpt>
      <trkpt lat="44.89787" lon="0.61005">
        <ele>86.8</ele>
        <time>2016-08-07T08:13:02Z</time>
      </trkpt>
      <trkpt lat="44.89786" lon="0.61021">
        <ele>87</ele>
        <time>2016-08-07T08:19:30Z</time>
      </trkpt>
      <trkpt lat="44.89788" lon="0.61027">
        <ele>87.1</ele>
        <time>2016-08-07T08:19:34Z</time>
      </trkpt>
      <trkpt lat="44.89791" lon="0.61037">
        <ele>86.5</ele>
        <time>2016-08-07T08:19:38Z</time>
      </trkpt>
      <trkpt lat="44.89795" lon="0.61051">
        <ele>86.8</ele>
        <time>2016-08-07T08:19:42Z</time>
      </trkpt>
      <trkpt lat="44.89799" lon="0.6107">
        <ele>86.9</ele>
        <time>2016-08-07T08:19:46Z</time>
      </trkpt>
      <trkpt lat="44.898" lon="0.61089">
        <ele>87.2</ele>
        <time>2016-08-07T08:19:50Z</time>
      </trkpt>
      <trkpt lat="44.89802" lon="0.61106">
        <ele>87.5</ele>
        <time>2016-08-07T08:19:54Z</time>
      </trkpt>
      <trkpt lat="44.89805" lon="0.61123">
        <ele>88.1</ele>
        <time>2016-08-07T08:19:58Z</time>
      </trkpt>
      <trkpt lat="44.89805" lon="0.61137">
        <ele>87.9</ele>
        <time>2016-08-07T08:20:02Z</time>
      </trkpt>
      <trkpt lat="44.89809" lon="0.61152">
        <ele>88.2</ele>
        <time>2016-08-07T08:20:06Z</time>
      </trkpt>
      <trkpt lat="44.89814" lon="0.61169">
        <ele>88.2</ele>
        <time>2016-08-07T08:20:10Z</time>
      </trkpt>
      <trkpt lat="44.89818" lon="0.61187">
        <ele>89.2</ele>
        <time>2016-08-07T08:20:14Z</time>
      </trkpt>
      <trkpt lat="44.89824" lon="0.61205">
        <ele>90</ele>
        <time>2016-08-07T08:20:18Z</time>
      </trkpt>
      <trkpt lat="44.89829" lon="0.61224">
        <ele>90</ele>
        <time>2016-08-07T08:20:22Z</time>
      </trkpt>
      <trkpt lat="44.89833" lon="0.61246">
        <ele>90.7</ele>
        <time>2016-08-07T08:20:26Z</time>
      </trkpt>
      <trkpt lat="44.8984" lon="0.61269">
        <ele>90</ele>
        <time>2016-08-07T08:20:30Z</time>
      </trkpt>
      <trkpt lat="44.89845" lon="0.61292">
        <ele>90</ele>
        <time>2016-08-07T08:20:34Z</time>
      </trkpt>
      <trkpt lat="44.89851" lon="0.61313">
        <ele>90</ele>
        <time>2016-08-07T08:20:38Z</time>
      </trkpt>
      <trkpt lat="44.89855" lon="0.61336">
        <ele>90.5</ele>
        <time>2016-08-07T08:20:42Z</time>
      </trkpt>
      <trkpt lat="44.89858" lon="0.61361">
        <ele>91.1</ele>
        <time>2016-08-07T08:20:46Z</time>
      </trkpt>
      <trkpt lat="44.89861" lon="0.61386">
        <ele>91.1</ele>
        <time>2016-08-07T08:20:50Z</time>
      </trkpt>
      <trkpt lat="44.89857" lon="0.61414">
        <ele>89.7</ele>
        <time>2016-08-07T08:20:54Z</time>
      </trkpt>
      <trkpt lat="44.89858" lon="0.61441">
        <ele>89.3</ele>
        <time>2016-08-07T08:20:58Z</time>
      </trkpt>
      <trkpt lat="44.8986" lon="0.6147">
        <ele>88.1</ele>
        <time>2016-08-07T08:21:02Z</time>
      </trkpt>
      <trkpt lat="44.89865" lon="0.61491">
        <ele>88.1</ele>
        <time>2016-08-07T08:21:06Z</time>
      </trkpt>
      <trkpt lat="44.89874" lon="0.61512">
        <ele>88.9</ele>
        <time>2016-08-07T08:21:10Z</time>
      </trkpt>
      <trkpt lat="44.89882" lon="0.61532">
        <ele>88.5</ele>
        <time>2016-08-07T08:21:14Z</time>
      </trkpt>
      <trkpt lat="44.89886" lon="0.61548">
        <ele>89</ele>
        <time>2016-08-07T08:21:18Z</time>
      </trkpt>
      <trkpt lat="44.89878" lon="0.61564">
        <ele>88.8</ele>
        <time>2016-08-07T08:21:22Z</time>
      </trkpt>
      <trkpt lat="44.89866" lon="0.61579">
        <ele>88.6</ele>
        <time>2016-08-07T08:21:26Z</time>
      </trkpt>
      <trkpt lat="44.89855" lon="0.61594">
        <ele>88.2</ele>
        <time>2016-08-07T08:21:30Z</time>
      </trkpt>
      <trkpt lat="44.89843" lon="0.61606">
        <ele>88</ele>
        <time>2016-08-07T08:21:34Z</time>
      </trkpt>
      <trkpt lat="44.89829" lon="0.61622">
        <ele>88.3</ele>
        <time>2016-08-07T08:21:38Z</time>
      </trkpt>
      <trkpt lat="44.89815" lon="0.61636">
        <ele>89</ele>
        <time>2016-08-07T08:21:42Z</time>
      </trkpt>
      <trkpt lat="44.89801" lon="0.61654">
        <ele>89.3</ele>
        <time>2016-08-07T08:21:46Z</time>
      </trkpt>
      <trkpt lat="44.8979" lon="0.61672">
        <ele>89.1</ele>
        <time>2016-08-07T08:21:50Z</time>
      </trkpt>
      <trkpt lat="44.8978" lon="0.6169">
        <ele>90.1</ele>
        <time>2016-08-07T08:21:54Z</time>
      </trkpt>
      <trkpt lat="44.8977" lon="0.61708">
        <ele>91.2</ele>
        <time>2016-08-07T08:21:58Z</time>
      </trkpt>
      <trkpt lat="44.8976" lon="0.61725">
        <ele>91.2</ele>
        <time>2016-08-07T08:22:02Z</time>
      </trkpt>
      <trkpt lat="44.89749" lon="0.61738">
        <ele>91.8</ele>
        <time>2016-08-07T08:22:06Z</time>
      </trkpt>
      <trkpt lat="44.89736" lon="0.61746">
        <ele>92.2</ele>
        <time>2016-08-07T08:22:10Z</time>
      </trkpt>
      <trkpt lat="44.89726" lon="0.6175">
        <ele>94.6</ele>
        <time>2016-08-07T08:22:14Z</time>
      </trkpt>
      <trkpt lat="44.89718" lon="0.61747">
        <ele>94.6</ele>
        <time>2016-08-07T08:22:18Z</time>
      </trkpt>
      <trkpt lat="44.89713" lon="0.61742">
        <ele>95.7</ele>
        <time>2016-08-07T08:22:22Z</time>
      </trkpt>
      <trkpt lat="44.89703" lon="0.61737">
        <ele>96.4</ele>
        <time>2016-08-07T08:22:26Z</time>
      </trkpt>
      <trkpt lat="44.89695" lon="0.61727">
        <ele>97.3</ele>
        <time>2016-08-07T08:22:30Z</time>
      </trkpt>
      <trkpt lat="44.89685" lon="0.61716">
        <ele>97.6</ele>
        <time>2016-08-07T08:22:34Z</time>
      </trkpt>
      <trkpt lat="44.8968" lon="0.61706">
        <ele>97.6</ele>
        <time>2016-08-07T08:22:38Z</time>
      </trkpt>
      <trkpt lat="44.89675" lon="0.61693">
        <ele>98.6</ele>
        <time>2016-08-07T08:22:42Z</time>
      </trkpt>
      <trkpt lat="44.89669" lon="0.61678">
        <ele>99</ele>
        <time>2016-08-07T08:22:46Z</time>
      </trkpt>
      <trkpt lat="44.89666" lon="0.61661">
        <ele>100</ele>
        <time>2016-08-07T08:22:50Z</time>
      </trkpt>
      <trkpt lat="44.89665" lon="0.61641">
        <ele>100</ele>
        <time>2016-08-07T08:22:54Z</time>
      </trkpt>
      <trkpt lat="44.89664" lon="0.61616">
        <ele>99.4</ele>
        <time>2016-08-07T08:22:58Z</time>
      </trkpt>
      <trkpt lat="44.89661" lon="0.61592">
        <ele>99</ele>
        <time>2016-08-07T08:23:02Z</time>
      </trkpt>
      <trkpt lat="44.89661" lon="0.61567">
        <ele>99.6</ele>
        <time>2016-08-07T08:23:06Z</time>
      </trkpt>
      <trkpt lat="44.89658" lon="0.61546">
        <ele>100.4</ele>
        <time>2016-08-07T08:23:10Z</time>
      </trkpt>
      <trkpt lat="44.89656" lon="0.61526">
        <ele>100.4</ele>
        <time>2016-08-07T08:23:14Z</time>
      </trkpt>
      <trkpt lat="44.89653" lon="0.61504">
        <ele>101.7</ele>
        <time>2016-08-07T08:23:18Z</time>
      </trkpt>
      <trkpt lat="44.89654" lon="0.6148">
        <ele>103.1</ele>
        <time>2016-08-07T08:23:22Z</time>
      </trkpt>
      <trkpt lat="44.89654" lon="0.61459">
        <ele>103</ele>
        <time>2016-08-07T08:23:26Z</time>
      </trkpt>
      <trkpt lat="44.89653" lon="0.6144">
        <ele>102.8</ele>
        <time>2016-08-07T08:23:30Z</time>
      </trkpt>
      <trkpt lat="44.8965" lon="0.6142">
        <ele>103.1</ele>
        <time>2016-08-07T08:23:34Z</time>
      </trkpt>
      <trkpt lat="44.8965" lon="0.61398">
        <ele>102.7</ele>
        <time>2016-08-07T08:23:38Z</time>
      </trkpt>
      <trkpt lat="44.8965" lon="0.61376">
        <ele>102.2</ele>
        <time>2016-08-07T08:23:42Z</time>
      </trkpt>
      <trkpt lat="44.89652" lon="0.61352">
        <ele>102.2</ele>
        <time>2016-08-07T08:23:46Z</time>
      </trkpt>
      <trkpt lat="44.89656" lon="0.61327">
        <ele>102.4</ele>
        <time>2016-08-07T08:23:50Z</time>
      </trkpt>
      <trkpt lat="44.89656" lon="0.613">
        <ele>101.6</ele>
        <time>2016-08-07T08:23:54Z</time>
      </trkpt>
      <trkpt lat="44.89654" lon="0.61274">
        <ele>102.3</ele>
        <time>2016-08-07T08:23:58Z</time>
      </trkpt>
      <trkpt lat="44.89652" lon="0.6125">
        <ele>102.4</ele>
        <time>2016-08-07T08:24:02Z</time>
      </trkpt>
      <trkpt lat="44.89649" lon="0.61225">
        <ele>101.2</ele>
        <time>2016-08-07T08:24:06Z</time>
      </trkpt>
      <trkpt lat="44.89645" lon="0.61202">
        <ele>101.2</ele>
        <time>2016-08-07T08:24:10Z</time>
      </trkpt>
      <trkpt lat="44.89639" lon="0.6119">
        <ele>101.6</ele>
        <time>2016-08-07T08:24:14Z</time>
      </trkpt>
      <trkpt lat="44.89635" lon="0.61184">
        <ele>101.6</ele>
        <time>2016-08-07T08:24:18Z</time>
      </trkpt>
      <trkpt lat="44.89633" lon="0.61185">
        <ele>103.9</ele>
        <time>2016-08-07T08:24:22Z</time>
      </trkpt>
      <trkpt lat="44.89629" lon="0.61191">
        <ele>104.9</ele>
        <time>2016-08-07T08:24:26Z</time>
      </trkpt>
      <trkpt lat="44.89624" lon="0.61201">
        <ele>106.1</ele>
        <time>2016-08-07T08:24:30Z</time>
      </trkpt>
      <trkpt lat="44.89622" lon="0.6121">
        <ele>106.9</ele>
        <time>2016-08-07T08:24:34Z</time>
      </trkpt>
      <trkpt lat="44.89617" lon="0.61224">
        <ele>108.5</ele>
        <time>2016-08-07T08:24:38Z</time>
      </trkpt>
      <trkpt lat="44.89614" lon="0.61234">
        <ele>109.7</ele>
        <time>2016-08-07T08:24:42Z</time>
      </trkpt>
      <trkpt lat="44.89611" lon="0.61243">
        <ele>110.6</ele>
        <time>2016-08-07T08:24:46Z</time>
      </trkpt>
      <trkpt lat="44.89607" lon="0.61251">
        <ele>111</ele>
        <time>2016-08-07T08:24:50Z</time>
      </trkpt>
      <trkpt lat="44.89603" lon="0.61258">
        <ele>113.4</ele>
        <time>2016-08-07T08:24:54Z</time>
      </trkpt>
      <trkpt lat="44.89598" lon="0.61266">
        <ele>114.2</ele>
        <time>2016-08-07T08:24:58Z</time>
      </trkpt>
      <trkpt lat="44.89594" lon="0.61276">
        <ele>114.9</ele>
        <time>2016-08-07T08:25:02Z</time>
      </trkpt>
      <trkpt lat="44.89591" lon="0.61283">
        <ele>116.5</ele>
        <time>2016-08-07T08:25:06Z</time>
      </trkpt>
      <trkpt lat="44.89587" lon="0.61292">
        <ele>117.9</ele>
        <time>2016-08-07T08:25:10Z</time>
      </trkpt>
      <trkpt lat="44.89583" lon="0.61299">
        <ele>119.2</ele>
        <time>2016-08-07T08:25:14Z</time>
      </trkpt>
      <trkpt lat="44.89578" lon="0.61309">
        <ele>119.2</ele>
        <time>2016-08-07T08:25:18Z</time>
      </trkpt>
      <trkpt lat="44.89572" lon="0.61317">
        <ele>120.3</ele>
        <time>2016-08-07T08:25:22Z</time>
      </trkpt>
      <trkpt lat="44.89566" lon="0.61323">
        <ele>121.7</ele>
        <time>2016-08-07T08:25:26Z</time>
      </trkpt>
      <trkpt lat="44.89562" lon="0.61329">
        <ele>122.7</ele>
        <time>2016-08-07T08:25:30Z</time>
      </trkpt>
      <trkpt lat="44.89558" lon="0.61335">
        <ele>123.4</ele>
        <time>2016-08-07T08:25:34Z</time>
      </trkpt>
      <trkpt lat="44.89552" lon="0.61339">
        <ele>124</ele>
        <time>2016-08-07T08:25:38Z</time>
      </trkpt>
      <trkpt lat="44.89546" lon="0.61341">
        <ele>125.4</ele>
        <time>2016-08-07T08:25:42Z</time>
      </trkpt>
      <trkpt lat="44.8954" lon="0.61342">
        <ele>126.2</ele>
        <time>2016-08-07T08:25:46Z</time>
      </trkpt>
      <trkpt lat="44.89535" lon="0.61343">
        <ele>127.5</ele>
        <time>2016-08-07T08:25:50Z</time>
      </trkpt>
      <trkpt lat="44.8953" lon="0.61344">
        <ele>128.9</ele>
        <time>2016-08-07T08:25:54Z</time>
      </trkpt>
      <trkpt lat="44.89522" lon="0.61348">
        <ele>129.7</ele>
        <time>2016-08-07T08:25:58Z</time>
      </trkpt>
      <trkpt lat="44.89515" lon="0.61352">
        <ele>131.1</ele>
        <time>2016-08-07T08:26:02Z</time>
      </trkpt>
      <trkpt lat="44.89511" lon="0.61358">
        <ele>132.4</ele>
        <time>2016-08-07T08:26:06Z</time>
      </trkpt>
      <trkpt lat="44.89506" lon="0.61364">
        <ele>133.3</ele>
        <time>2016-08-07T08:26:10Z</time>
      </trkpt>
      <trkpt lat="44.89501" lon="0.61372">
        <ele>133.9</ele>
        <time>2016-08-07T08:26:14Z</time>
      </trkpt>
      <trkpt lat="44.89496" lon="0.61382">
        <ele>135</ele>
        <time>2016-08-07T08:26:18Z</time>
      </trkpt>
      <trkpt lat="44.89494" lon="0.61392">
        <ele>135.3</ele>
        <time>2016-08-07T08:26:22Z</time>
      </trkpt>
      <trkpt lat="44.89491" lon="0.61405">
        <ele>134.9</ele>
        <time>2016-08-07T08:26:26Z</time>
      </trkpt>
      <trkpt lat="44.89489" lon="0.61417">
        <ele>135.7</ele>
        <time>2016-08-07T08:26:30Z</time>
      </trkpt>
      <trkpt lat="44.89487" lon="0.61428">
        <ele>135.7</ele>
        <time>2016-08-07T08:26:34Z</time>
      </trkpt>
      <trkpt lat="44.89485" lon="0.61433">
        <ele>136.5</ele>
        <time>2016-08-07T08:26:38Z</time>
      </trkpt>
      <trkpt lat="44.89485" lon="0.61434">
        <ele>136.6</ele>
        <time>2016-08-07T08:26:42Z</time>
      </trkpt>
      <trkpt lat="44.89484" lon="0.61443">
        <ele>136.4</ele>
        <time>2016-08-07T08:26:58Z</time>
      </trkpt>
      <trkpt lat="44.8948" lon="0.61456">
        <ele>136.3</ele>
        <time>2016-08-07T08:27:02Z</time>
      </trkpt>
      <trkpt lat="44.89469" lon="0.61469">
        <ele>135.9</ele>
        <time>2016-08-07T08:27:06Z</time>
      </trkpt>
      <trkpt lat="44.89453" lon="0.61474">
        <ele>136.1</ele>
        <time>2016-08-07T08:27:10Z</time>
      </trkpt>
      <trkpt lat="44.89428" lon="0.61467">
        <ele>133.7</ele>
        <time>2016-08-07T08:27:14Z</time>
      </trkpt>
      <trkpt lat="44.89389" lon="0.61468">
        <ele>125.8</ele>
        <time>2016-08-07T08:27:18Z</time>
      </trkpt>
      <trkpt lat="44.89342" lon="0.61483">
        <ele>119.5</ele>
        <time>2016-08-07T08:27:22Z</time>
      </trkpt>
      <trkpt lat="44.89292" lon="0.61492">
        <ele>115.6</ele>
        <time>2016-08-07T08:27:26Z</time>
      </trkpt>
      <trkpt lat="44.89252" lon="0.61489">
        <ele>114.5</ele>
        <time>2016-08-07T08:27:30Z</time>
      </trkpt>
      <trkpt lat="44.89219" lon="0.61486">
        <ele>114.5</ele>
        <time>2016-08-07T08:27:34Z</time>
      </trkpt>
      <trkpt lat="44.89185" lon="0.61492">
        <ele>112.7</ele>
        <time>2016-08-07T08:27:38Z</time>
      </trkpt>
      <trkpt lat="44.89155" lon="0.61474">
        <ele>112.5</ele>
        <time>2016-08-07T08:27:42Z</time>
      </trkpt>
      <trkpt lat="44.89135" lon="0.61441">
        <ele>112.5</ele>
        <time>2016-08-07T08:27:46Z</time>
      </trkpt>
      <trkpt lat="44.89116" lon="0.61409">
        <ele>110</ele>
        <time>2016-08-07T08:27:50Z</time>
      </trkpt>
      <trkpt lat="44.89084" lon="0.61404">
        <ele>105.8</ele>
        <time>2016-08-07T08:27:54Z</time>
      </trkpt>
      <trkpt lat="44.89046" lon="0.61414">
        <ele>102.8</ele>
        <time>2016-08-07T08:27:58Z</time>
      </trkpt>
      <trkpt lat="44.89016" lon="0.61406">
        <ele>102.8</ele>
        <time>2016-08-07T08:28:02Z</time>
      </trkpt>
      <trkpt lat="44.88996" lon="0.61398">
        <ele>105.8</ele>
        <time>2016-08-07T08:28:06Z</time>
      </trkpt>
      <trkpt lat="44.88983" lon="0.614">
        <ele>108.7</ele>
        <time>2016-08-07T08:28:10Z</time>
      </trkpt>
      <trkpt lat="44.88969" lon="0.61399">
        <ele>109.9</ele>
        <time>2016-08-07T08:28:14Z</time>
      </trkpt>
      <trkpt lat="44.88959" lon="0.61404">
        <ele>110.8</ele>
        <time>2016-08-07T08:28:18Z</time>
      </trkpt>
      <trkpt lat="44.88951" lon="0.61405">
        <ele>110.3</ele>
        <time>2016-08-07T08:28:22Z</time>
      </trkpt>
      <trkpt lat="44.8894" lon="0.61406">
        <ele>110.3</ele>
        <time>2016-08-07T08:28:26Z</time>
      </trkpt>
      <trkpt lat="44.88929" lon="0.61409">
        <ele>111.7</ele>
        <time>2016-08-07T08:28:30Z</time>
      </trkpt>
      <trkpt lat="44.88915" lon="0.61412">
        <ele>111.7</ele>
        <time>2016-08-07T08:28:34Z</time>
      </trkpt>
      <trkpt lat="44.88899" lon="0.61419">
        <ele>112.3</ele>
        <time>2016-08-07T08:28:38Z</time>
      </trkpt>
      <trkpt lat="44.88884" lon="0.61423">
        <ele>112.3</ele>
        <time>2016-08-07T08:28:42Z</time>
      </trkpt>
      <trkpt lat="44.88875" lon="0.61427">
        <ele>112.8</ele>
        <time>2016-08-07T08:28:46Z</time>
      </trkpt>
      <trkpt lat="44.88867" lon="0.61428">
        <ele>112.8</ele>
        <time>2016-08-07T08:28:50Z</time>
      </trkpt>
      <trkpt lat="44.88851" lon="0.61434">
        <ele>113.9</ele>
        <time>2016-08-07T08:28:54Z</time>
      </trkpt>
      <trkpt lat="44.88839" lon="0.61434">
        <ele>115.4</ele>
        <time>2016-08-07T08:28:58Z</time>
      </trkpt>
      <trkpt lat="44.88826" lon="0.6144">
        <ele>116.7</ele>
        <time>2016-08-07T08:29:02Z</time>
      </trkpt>
      <trkpt lat="44.8881" lon="0.6145">
        <ele>116.7</ele>
        <time>2016-08-07T08:29:06Z</time>
      </trkpt>
      <trkpt lat="44.88792" lon="0.61461">
        <ele>117.9</ele>
        <time>2016-08-07T08:29:10Z</time>
      </trkpt>
      <trkpt lat="44.88777" lon="0.61468">
        <ele>119.6</ele>
        <time>2016-08-07T08:29:14Z</time>
      </trkpt>
      <trkpt lat="44.88763" lon="0.61476">
        <ele>119.8</ele>
        <time>2016-08-07T08:29:18Z</time>
      </trkpt>
      <trkpt lat="44.88751" lon="0.61484">
        <ele>119.1</ele>
        <time>2016-08-07T08:29:22Z</time>
      </trkpt>
      <trkpt lat="44.88737" lon="0.6149">
        <ele>120.7</ele>
        <time>2016-08-07T08:29:26Z</time>
      </trkpt>
      <trkpt lat="44.88713" lon="0.615">
        <ele>121.8</ele>
        <time>2016-08-07T08:29:30Z</time>
      </trkpt>
      <trkpt lat="44.88699" lon="0.61505">
        <ele>122.3</ele>
        <time>2016-08-07T08:29:34Z</time>
      </trkpt>
      <trkpt lat="44.88686" lon="0.61514">
        <ele>122.3</ele>
        <time>2016-08-07T08:29:38Z</time>
      </trkpt>
      <trkpt lat="44.88674" lon="0.61523">
        <ele>123.7</ele>
        <time>2016-08-07T08:29:42Z</time>
      </trkpt>
      <trkpt lat="44.88661" lon="0.6153">
        <ele>124.5</ele>
        <time>2016-08-07T08:29:46Z</time>
      </trkpt>
      <trkpt lat="44.88644" lon="0.61542">
        <ele>125.1</ele>
        <time>2016-08-07T08:29:50Z</time>
      </trkpt>
      <trkpt lat="44.88632" lon="0.6155">
        <ele>126</ele>
        <time>2016-08-07T08:29:54Z</time>
      </trkpt>
      <trkpt lat="44.88622" lon="0.61556">
        <ele>126.2</ele>
        <time>2016-08-07T08:29:58Z</time>
      </trkpt>
      <trkpt lat="44.88615" lon="0.61562">
        <ele>127</ele>
        <time>2016-08-07T08:30:02Z</time>
      </trkpt>
      <trkpt lat="44.88604" lon="0.61566">
        <ele>127.6</ele>
        <time>2016-08-07T08:30:06Z</time>
      </trkpt>
      <trkpt lat="44.88589" lon="0.6157">
        <ele>128.7</ele>
        <time>2016-08-07T08:30:10Z</time>
      </trkpt>
      <trkpt lat="44.88576" lon="0.61576">
        <ele>128.9</ele>
        <time>2016-08-07T08:30:14Z</time>
      </trkpt>
      <trkpt lat="44.88559" lon="0.61582">
        <ele>129.5</ele>
        <time>2016-08-07T08:30:18Z</time>
      </trkpt>
      <trkpt lat="44.88545" lon="0.61588">
        <ele>130.9</ele>
        <time>2016-08-07T08:30:22Z</time>
      </trkpt>
      <trkpt lat="44.88531" lon="0.61595">
        <ele>131.5</ele>
        <time>2016-08-07T08:30:26Z</time>
      </trkpt>
      <trkpt lat="44.88516" lon="0.61604">
        <ele>132.1</ele>
        <time>2016-08-07T08:30:30Z</time>
      </trkpt>
      <trkpt lat="44.88503" lon="0.61609">
        <ele>132.3</ele>
        <time>2016-08-07T08:30:34Z</time>
      </trkpt>
      <trkpt lat="44.88487" lon="0.61612">
        <ele>132.9</ele>
        <time>2016-08-07T08:30:38Z</time>
      </trkpt>
      <trkpt lat="44.88469" lon="0.61615">
        <ele>134.2</ele>
        <time>2016-08-07T08:30:42Z</time>
      </trkpt>
      <trkpt lat="44.88451" lon="0.61617">
        <ele>135.3</ele>
        <time>2016-08-07T08:30:46Z</time>
      </trkpt>
      <trkpt lat="44.88438" lon="0.61617">
        <ele>136.8</ele>
        <time>2016-08-07T08:30:50Z</time>
      </trkpt>
      <trkpt lat="44.88425" lon="0.61622">
        <ele>137.4</ele>
        <time>2016-08-07T08:30:54Z</time>
      </trkpt>
      <trkpt lat="44.88417" lon="0.61629">
        <ele>137.4</ele>
        <time>2016-08-07T08:30:58Z</time>
      </trkpt>
      <trkpt lat="44.88405" lon="0.61639">
        <ele>138.6</ele>
        <time>2016-08-07T08:31:02Z</time>
      </trkpt>
      <trkpt lat="44.88392" lon="0.61646">
        <ele>138.6</ele>
        <time>2016-08-07T08:31:06Z</time>
      </trkpt>
      <trkpt lat="44.88379" lon="0.61657">
        <ele>139.2</ele>
        <time>2016-08-07T08:31:10Z</time>
      </trkpt>
      <trkpt lat="44.88368" lon="0.61669">
        <ele>140.4</ele>
        <time>2016-08-07T08:31:14Z</time>
      </trkpt>
      <trkpt lat="44.88356" lon="0.61683">
        <ele>141</ele>
        <time>2016-08-07T08:31:18Z</time>
      </trkpt>
      <trkpt lat="44.88347" lon="0.61699">
        <ele>142</ele>
        <time>2016-08-07T08:31:22Z</time>
      </trkpt>
      <trkpt lat="44.88337" lon="0.61714">
        <ele>142.7</ele>
        <time>2016-08-07T08:31:26Z</time>
      </trkpt>
      <trkpt lat="44.88327" lon="0.61727">
        <ele>143.2</ele>
        <time>2016-08-07T08:31:30Z</time>
      </trkpt>
      <trkpt lat="44.88315" lon="0.61738">
        <ele>143.5</ele>
        <time>2016-08-07T08:31:34Z</time>
      </trkpt>
      <trkpt lat="44.88298" lon="0.6175">
        <ele>143.5</ele>
        <time>2016-08-07T08:31:38Z</time>
      </trkpt>
      <trkpt lat="44.88281" lon="0.61761">
        <ele>143.7</ele>
        <time>2016-08-07T08:31:42Z</time>
      </trkpt>
      <trkpt lat="44.88266" lon="0.61768">
        <ele>143.1</ele>
        <time>2016-08-07T08:31:46Z</time>
      </trkpt>
      <trkpt lat="44.8825" lon="0.61764">
        <ele>144.4</ele>
        <time>2016-08-07T08:31:50Z</time>
      </trkpt>
      <trkpt lat="44.88235" lon="0.61756">
        <ele>144.4</ele>
        <time>2016-08-07T08:31:54Z</time>
      </trkpt>
      <trkpt lat="44.88218" lon="0.61742">
        <ele>144</ele>
        <time>2016-08-07T08:31:58Z</time>
      </trkpt>
      <trkpt lat="44.88202" lon="0.61723">
        <ele>144</ele>
        <time>2016-08-07T08:32:02Z</time>
      </trkpt>
      <trkpt lat="44.88185" lon="0.61699">
        <ele>141.3</ele>
        <time>2016-08-07T08:32:06Z</time>
      </trkpt>
      <trkpt lat="44.88165" lon="0.61687">
        <ele>140</ele>
        <time>2016-08-07T08:32:10Z</time>
      </trkpt>
      <trkpt lat="44.8815" lon="0.61667">
        <ele>137.4</ele>
        <time>2016-08-07T08:32:14Z</time>
      </trkpt>
      <trkpt lat="44.88139" lon="0.61652">
        <ele>137.4</ele>
        <time>2016-08-07T08:32:18Z</time>
      </trkpt>
      <trkpt lat="44.88134" lon="0.61631">
        <ele>136.3</ele>
        <time>2016-08-07T08:32:22Z</time>
      </trkpt>
      <trkpt lat="44.8814" lon="0.61608">
        <ele>135.1</ele>
        <time>2016-08-07T08:32:26Z</time>
      </trkpt>
      <trkpt lat="44.88148" lon="0.61597">
        <ele>132.7</ele>
        <time>2016-08-07T08:32:30Z</time>
      </trkpt>
      <trkpt lat="44.8814" lon="0.61582">
        <ele>134.6</ele>
        <time>2016-08-07T08:32:34Z</time>
      </trkpt>
      <trkpt lat="44.88133" lon="0.61567">
        <ele>135.4</ele>
        <time>2016-08-07T08:32:38Z</time>
      </trkpt>
      <trkpt lat="44.88131" lon="0.61551">
        <ele>136.9</ele>
        <time>2016-08-07T08:32:42Z</time>
      </trkpt>
      <trkpt lat="44.88128" lon="0.61539">
        <ele>137</ele>
        <time>2016-08-07T08:32:46Z</time>
      </trkpt>
      <trkpt lat="44.88123" lon="0.61525">
        <ele>137</ele>
        <time>2016-08-07T08:32:50Z</time>
      </trkpt>
      <trkpt lat="44.88115" lon="0.61517">
        <ele>138</ele>
        <time>2016-08-07T08:32:54Z</time>
      </trkpt>
      <trkpt lat="44.88108" lon="0.6151">
        <ele>138.6</ele>
        <time>2016-08-07T08:32:58Z</time>
      </trkpt>
      <trkpt lat="44.881" lon="0.61501">
        <ele>138.6</ele>
        <time>2016-08-07T08:33:02Z</time>
      </trkpt>
      <trkpt lat="44.88099" lon="0.61494">
        <ele>139</ele>
        <time>2016-08-07T08:33:06Z</time>
      </trkpt>
      <trkpt lat="44.88101" lon="0.61485">
        <ele>138.5</ele>
        <time>2016-08-07T08:33:10Z</time>
      </trkpt>
      <trkpt lat="44.88105" lon="0.61474">
        <ele>137.5</ele>
        <time>2016-08-07T08:33:14Z</time>
      </trkpt>
      <trkpt lat="44.88101" lon="0.61466">
        <ele>136.6</ele>
        <time>2016-08-07T08:33:18Z</time>
      </trkpt>
      <trkpt lat="44.88094" lon="0.61459">
        <ele>135.6</ele>
        <time>2016-08-07T08:33:22Z</time>
      </trkpt>
      <trkpt lat="44.88084" lon="0.61451">
        <ele>135.2</ele>
        <time>2016-08-07T08:33:26Z</time>
      </trkpt>
      <trkpt lat="44.88074" lon="0.61449">
        <ele>135.6</ele>
        <time>2016-08-07T08:33:30Z</time>
      </trkpt>
      <trkpt lat="44.88068" lon="0.61455">
        <ele>134.6</ele>
        <time>2016-08-07T08:33:34Z</time>
      </trkpt>
      <trkpt lat="44.88056" lon="0.61467">
        <ele>135.2</ele>
        <time>2016-08-07T08:33:38Z</time>
      </trkpt>
      <trkpt lat="44.88039" lon="0.61487">
        <ele>135.4</ele>
        <time>2016-08-07T08:33:42Z</time>
      </trkpt>
      <trkpt lat="44.88028" lon="0.61499">
        <ele>136.3</ele>
        <time>2016-08-07T08:33:46Z</time>
      </trkpt>
      <trkpt lat="44.8801" lon="0.61508">
        <ele>136.3</ele>
        <time>2016-08-07T08:33:50Z</time>
      </trkpt>
      <trkpt lat="44.8799" lon="0.61519">
        <ele>136.3</ele>
        <time>2016-08-07T08:33:54Z</time>
      </trkpt>
      <trkpt lat="44.87978" lon="0.61525">
        <ele>137.6</ele>
        <time>2016-08-07T08:33:58Z</time>
      </trkpt>
      <trkpt lat="44.8797" lon="0.61529">
        <ele>140.2</ele>
        <time>2016-08-07T08:34:02Z</time>
      </trkpt>
      <trkpt lat="44.8796" lon="0.61536">
        <ele>141.3</ele>
        <time>2016-08-07T08:34:06Z</time>
      </trkpt>
      <trkpt lat="44.87954" lon="0.61545">
        <ele>142.2</ele>
        <time>2016-08-07T08:34:10Z</time>
      </trkpt>
      <trkpt lat="44.87946" lon="0.61561">
        <ele>143.1</ele>
        <time>2016-08-07T08:34:14Z</time>
      </trkpt>
      <trkpt lat="44.87951" lon="0.61571">
        <ele>143.5</ele>
        <time>2016-08-07T08:34:18Z</time>
      </trkpt>
      <trkpt lat="44.87958" lon="0.6158">
        <ele>144.8</ele>
        <time>2016-08-07T08:34:22Z</time>
      </trkpt>
      <trkpt lat="44.87959" lon="0.61591">
        <ele>143.6</ele>
        <time>2016-08-07T08:34:26Z</time>
      </trkpt>
      <trkpt lat="44.87952" lon="0.61594">
        <ele>143.6</ele>
        <time>2016-08-07T08:34:30Z</time>
      </trkpt>
      <trkpt lat="44.8795" lon="0.61606">
        <ele>145</ele>
        <time>2016-08-07T08:34:34Z</time>
      </trkpt>
      <trkpt lat="44.87948" lon="0.61621">
        <ele>144.6</ele>
        <time>2016-08-07T08:34:38Z</time>
      </trkpt>
      <trkpt lat="44.87941" lon="0.61642">
        <ele>143.8</ele>
        <time>2016-08-07T08:34:42Z</time>
      </trkpt>
      <trkpt lat="44.87938" lon="0.61665">
        <ele>142.6</ele>
        <time>2016-08-07T08:34:46Z</time>
      </trkpt>
      <trkpt lat="44.87927" lon="0.61677">
        <ele>142.5</ele>
        <time>2016-08-07T08:34:50Z</time>
      </trkpt>
      <trkpt lat="44.87917" lon="0.61686">
        <ele>144.1</ele>
        <time>2016-08-07T08:34:54Z</time>
      </trkpt>
      <trkpt lat="44.87902" lon="0.61696">
        <ele>145.7</ele>
        <time>2016-08-07T08:34:58Z</time>
      </trkpt>
      <trkpt lat="44.87893" lon="0.61697">
        <ele>145.7</ele>
        <time>2016-08-07T08:35:02Z</time>
      </trkpt>
      <trkpt lat="44.87881" lon="0.617">
        <ele>147.7</ele>
        <time>2016-08-07T08:35:06Z</time>
      </trkpt>
      <trkpt lat="44.87867" lon="0.61704">
        <ele>149.8</ele>
        <time>2016-08-07T08:35:10Z</time>
      </trkpt>
      <trkpt lat="44.8786" lon="0.61708">
        <ele>149.8</ele>
        <time>2016-08-07T08:35:14Z</time>
      </trkpt>
      <trkpt lat="44.8785" lon="0.61707">
        <ele>150.8</ele>
        <time>2016-08-07T08:35:18Z</time>
      </trkpt>
      <trkpt lat="44.87837" lon="0.61702">
        <ele>151.2</ele>
        <time>2016-08-07T08:35:22Z</time>
      </trkpt>
      <trkpt lat="44.87826" lon="0.61705">
        <ele>151.7</ele>
        <time>2016-08-07T08:35:26Z</time>
      </trkpt>
      <trkpt lat="44.87814" lon="0.61706">
        <ele>152</ele>
        <time>2016-08-07T08:35:30Z</time>
      </trkpt>
      <trkpt lat="44.87801" lon="0.61706">
        <ele>152</ele>
        <time>2016-08-07T08:35:34Z</time>
      </trkpt>
      <trkpt lat="44.87792" lon="0.61697">
        <ele>151.7</ele>
        <time>2016-08-07T08:35:38Z</time>
      </trkpt>
      <trkpt lat="44.87786" lon="0.61685">
        <ele>152.3</ele>
        <time>2016-08-07T08:35:42Z</time>
      </trkpt>
      <trkpt lat="44.87778" lon="0.61679">
        <ele>152.3</ele>
        <time>2016-08-07T08:35:46Z</time>
      </trkpt>
      <trkpt lat="44.87773" lon="0.61684">
        <ele>153.4</ele>
        <time>2016-08-07T08:35:50Z</time>
      </trkpt>
      <trkpt lat="44.87766" lon="0.61689">
        <ele>154.4</ele>
        <time>2016-08-07T08:35:54Z</time>
      </trkpt>
      <trkpt lat="44.87763" lon="0.61698">
        <ele>154.3</ele>
        <time>2016-08-07T08:35:58Z</time>
      </trkpt>
      <trkpt lat="44.87763" lon="0.61704">
        <ele>154.5</ele>
        <time>2016-08-07T08:36:02Z</time>
      </trkpt>
      <trkpt lat="44.87758" lon="0.6171">
        <ele>154.5</ele>
        <time>2016-08-07T08:36:06Z</time>
      </trkpt>
      <trkpt lat="44.87757" lon="0.61718">
        <ele>155.2</ele>
        <time>2016-08-07T08:36:10Z</time>
      </trkpt>
      <trkpt lat="44.87742" lon="0.61746">
        <ele>154.4</ele>
        <time>2016-08-07T08:36:34Z</time>
      </trkpt>
      <trkpt lat="44.8774" lon="0.61758">
        <ele>154.5</ele>
        <time>2016-08-07T08:36:38Z</time>
      </trkpt>
      <trkpt lat="44.87731" lon="0.61775">
        <ele>153.2</ele>
        <time>2016-08-07T08:36:42Z</time>
      </trkpt>
      <trkpt lat="44.87724" lon="0.61792">
        <ele>152.7</ele>
        <time>2016-08-07T08:36:46Z</time>
      </trkpt>
      <trkpt lat="44.87714" lon="0.618">
        <ele>153</ele>
        <time>2016-08-07T08:36:50Z</time>
      </trkpt>
      <trkpt lat="44.87701" lon="0.61802">
        <ele>152.9</ele>
        <time>2016-08-07T08:36:54Z</time>
      </trkpt>
      <trkpt lat="44.87687" lon="0.61808">
        <ele>153.6</ele>
        <time>2016-08-07T08:36:58Z</time>
      </trkpt>
      <trkpt lat="44.87676" lon="0.61818">
        <ele>155</ele>
        <time>2016-08-07T08:37:02Z</time>
      </trkpt>
      <trkpt lat="44.87663" lon="0.61822">
        <ele>155</ele>
        <time>2016-08-07T08:37:06Z</time>
      </trkpt>
      <trkpt lat="44.87659" lon="0.61815">
        <ele>155</ele>
        <time>2016-08-07T08:37:10Z</time>
      </trkpt>
      <trkpt lat="44.87659" lon="0.61803">
        <ele>155.7</ele>
        <time>2016-08-07T08:37:14Z</time>
      </trkpt>
      <trkpt lat="44.87654" lon="0.61791">
        <ele>155.8</ele>
        <time>2016-08-07T08:37:18Z</time>
      </trkpt>
      <trkpt lat="44.87648" lon="0.61777">
        <ele>155.3</ele>
        <time>2016-08-07T08:37:22Z</time>
      </trkpt>
      <trkpt lat="44.87637" lon="0.61769">
        <ele>154.2</ele>
        <time>2016-08-07T08:37:26Z</time>
      </trkpt>
      <trkpt lat="44.87633" lon="0.61777">
        <ele>154.2</ele>
        <time>2016-08-07T08:37:30Z</time>
      </trkpt>
      <trkpt lat="44.87624" lon="0.61788">
        <ele>153.8</ele>
        <time>2016-08-07T08:37:34Z</time>
      </trkpt>
      <trkpt lat="44.87617" lon="0.61802">
        <ele>153.8</ele>
        <time>2016-08-07T08:37:38Z</time>
      </trkpt>
      <trkpt lat="44.87607" lon="0.61816">
        <ele>154.5</ele>
        <time>2016-08-07T08:37:42Z</time>
      </trkpt>
      <trkpt lat="44.87596" lon="0.61837">
        <ele>153.2</ele>
        <time>2016-08-07T08:37:46Z</time>
      </trkpt>
      <trkpt lat="44.8759" lon="0.61863">
        <ele>152.4</ele>
        <time>2016-08-07T08:37:50Z</time>
      </trkpt>
      <trkpt lat="44.87588" lon="0.61893">
        <ele>151.8</ele>
        <time>2016-08-07T08:37:54Z</time>
      </trkpt>
      <trkpt lat="44.87598" lon="0.6191">
        <ele>151.8</ele>
        <time>2016-08-07T08:37:58Z</time>
      </trkpt>
      <trkpt lat="44.87609" lon="0.61929">
        <ele>151.1</ele>
        <time>2016-08-07T08:38:02Z</time>
      </trkpt>
      <trkpt lat="44.87618" lon="0.61956">
        <ele>151.1</ele>
        <time>2016-08-07T08:38:06Z</time>
      </trkpt>
      <trkpt lat="44.87624" lon="0.61984">
        <ele>150</ele>
        <time>2016-08-07T08:38:10Z</time>
      </trkpt>
      <trkpt lat="44.87617" lon="0.61997">
        <ele>150.3</ele>
        <time>2016-08-07T08:38:14Z</time>
      </trkpt>
      <trkpt lat="44.87595" lon="0.61999">
        <ele>149</ele>
        <time>2016-08-07T08:38:18Z</time>
      </trkpt>
      <trkpt lat="44.87572" lon="0.61999">
        <ele>148.1</ele>
        <time>2016-08-07T08:38:22Z</time>
      </trkpt>
      <trkpt lat="44.87544" lon="0.62004">
        <ele>148.1</ele>
        <time>2016-08-07T08:38:26Z</time>
      </trkpt>
      <trkpt lat="44.87513" lon="0.6201">
        <ele>146.7</ele>
        <time>2016-08-07T08:38:30Z</time>
      </trkpt>
      <trkpt lat="44.87481" lon="0.62014">
        <ele>146.1</ele>
        <time>2016-08-07T08:38:34Z</time>
      </trkpt>
      <trkpt lat="44.87448" lon="0.62016">
        <ele>143.5</ele>
        <time>2016-08-07T08:38:38Z</time>
      </trkpt>
      <trkpt lat="44.87415" lon="0.62021">
        <ele>142.2</ele>
        <time>2016-08-07T08:38:42Z</time>
      </trkpt>
      <trkpt lat="44.87384" lon="0.62032">
        <ele>142.1</ele>
        <time>2016-08-07T08:38:46Z</time>
      </trkpt>
      <trkpt lat="44.87351" lon="0.62044">
        <ele>140.6</ele>
        <time>2016-08-07T08:38:50Z</time>
      </trkpt>
      <trkpt lat="44.87314" lon="0.62048">
        <ele>136.8</ele>
        <time>2016-08-07T08:38:54Z</time>
      </trkpt>
      <trkpt lat="44.87278" lon="0.62044">
        <ele>134</ele>
        <time>2016-08-07T08:38:58Z</time>
      </trkpt>
      <trkpt lat="44.87243" lon="0.62046">
        <ele>132.1</ele>
        <time>2016-08-07T08:39:02Z</time>
      </trkpt>
      <trkpt lat="44.8721" lon="0.62043">
        <ele>130.6</ele>
        <time>2016-08-07T08:39:06Z</time>
      </trkpt>
      <trkpt lat="44.87177" lon="0.62051">
        <ele>129.7</ele>
        <time>2016-08-07T08:39:10Z</time>
      </trkpt>
      <trkpt lat="44.87148" lon="0.62061">
        <ele>129.7</ele>
        <time>2016-08-07T08:39:14Z</time>
      </trkpt>
      <trkpt lat="44.87127" lon="0.62071">
        <ele>129.9</ele>
        <time>2016-08-07T08:39:18Z</time>
      </trkpt>
      <trkpt lat="44.87112" lon="0.62084">
        <ele>129.9</ele>
        <time>2016-08-07T08:39:22Z</time>
      </trkpt>
      <trkpt lat="44.87103" lon="0.6209">
        <ele>128.5</ele>
        <time>2016-08-07T08:39:26Z</time>
      </trkpt>
      <trkpt lat="44.871" lon="0.62101">
        <ele>127.2</ele>
        <time>2016-08-07T08:39:30Z</time>
      </trkpt>
      <trkpt lat="44.87089" lon="0.62109">
        <ele>127.5</ele>
        <time>2016-08-07T08:39:34Z</time>
      </trkpt>
      <trkpt lat="44.87069" lon="0.62121">
        <ele>126.7</ele>
        <time>2016-08-07T08:39:38Z</time>
      </trkpt>
      <trkpt lat="44.87054" lon="0.62127">
        <ele>126.6</ele>
        <time>2016-08-07T08:39:42Z</time>
      </trkpt>
      <trkpt lat="44.87039" lon="0.62132">
        <ele>129</ele>
        <time>2016-08-07T08:39:46Z</time>
      </trkpt>
      <trkpt lat="44.87025" lon="0.62139">
        <ele>129.7</ele>
        <time>2016-08-07T08:39:50Z</time>
      </trkpt>
      <trkpt lat="44.87001" lon="0.62144">
        <ele>124.9</ele>
        <time>2016-08-07T08:39:54Z</time>
      </trkpt>
      <trkpt lat="44.86979" lon="0.62153">
        <ele>123.8</ele>
        <time>2016-08-07T08:39:58Z</time>
      </trkpt>
      <trkpt lat="44.86965" lon="0.62158">
        <ele>123.1</ele>
        <time>2016-08-07T08:40:02Z</time>
      </trkpt>
      <trkpt lat="44.86948" lon="0.62166">
        <ele>123.1</ele>
        <time>2016-08-07T08:40:06Z</time>
      </trkpt>
      <trkpt lat="44.86927" lon="0.62177">
        <ele>121.6</ele>
        <time>2016-08-07T08:40:10Z</time>
      </trkpt>
      <trkpt lat="44.86906" lon="0.62188">
        <ele>121.6</ele>
        <time>2016-08-07T08:40:14Z</time>
      </trkpt>
      <trkpt lat="44.86886" lon="0.62196">
        <ele>120.5</ele>
        <time>2016-08-07T08:40:18Z</time>
      </trkpt>
      <trkpt lat="44.8687" lon="0.62201">
        <ele>121.2</ele>
        <time>2016-08-07T08:40:22Z</time>
      </trkpt>
      <trkpt lat="44.86868" lon="0.6222">
        <ele>122.1</ele>
        <time>2016-08-07T08:40:26Z</time>
      </trkpt>
      <trkpt lat="44.8687" lon="0.62244">
        <ele>121.5</ele>
        <time>2016-08-07T08:40:30Z</time>
      </trkpt>
      <trkpt lat="44.8686" lon="0.62267">
        <ele>121.1</ele>
        <time>2016-08-07T08:40:34Z</time>
      </trkpt>
      <trkpt lat="44.86859" lon="0.62294">
        <ele>122.1</ele>
        <time>2016-08-07T08:40:38Z</time>
      </trkpt>
      <trkpt lat="44.86852" lon="0.62318">
        <ele>122.3</ele>
        <time>2016-08-07T08:40:42Z</time>
      </trkpt>
      <trkpt lat="44.86845" lon="0.6235">
        <ele>122.1</ele>
        <time>2016-08-07T08:40:46Z</time>
      </trkpt>
      <trkpt lat="44.86824" lon="0.62396">
        <ele>123.3</ele>
        <time>2016-08-07T08:40:50Z</time>
      </trkpt>
      <trkpt lat="44.86827" lon="0.62417">
        <ele>123.4</ele>
        <time>2016-08-07T08:40:54Z</time>
      </trkpt>
      <trkpt lat="44.86824" lon="0.62439">
        <ele>124.6</ele>
        <time>2016-08-07T08:40:58Z</time>
      </trkpt>
      <trkpt lat="44.86821" lon="0.62461">
        <ele>125.7</ele>
        <time>2016-08-07T08:41:02Z</time>
      </trkpt>
      <trkpt lat="44.86823" lon="0.62482">
        <ele>126.8</ele>
        <time>2016-08-07T08:41:06Z</time>
      </trkpt>
      <trkpt lat="44.86826" lon="0.62503">
        <ele>127.5</ele>
        <time>2016-08-07T08:41:10Z</time>
      </trkpt>
      <trkpt lat="44.86831" lon="0.62519">
        <ele>127.5</ele>
        <time>2016-08-07T08:41:14Z</time>
      </trkpt>
      <trkpt lat="44.86833" lon="0.62535">
        <ele>129.2</ele>
        <time>2016-08-07T08:41:18Z</time>
      </trkpt>
      <trkpt lat="44.86837" lon="0.62561">
        <ele>130.4</ele>
        <time>2016-08-07T08:41:22Z</time>
      </trkpt>
      <trkpt lat="44.86836" lon="0.62585">
        <ele>131.4</ele>
        <time>2016-08-07T08:41:26Z</time>
      </trkpt>
      <trkpt lat="44.8684" lon="0.62602">
        <ele>132.3</ele>
        <time>2016-08-07T08:41:30Z</time>
      </trkpt>
      <trkpt lat="44.86845" lon="0.62616">
        <ele>133.3</ele>
        <time>2016-08-07T08:41:34Z</time>
      </trkpt>
      <trkpt lat="44.86846" lon="0.62625">
        <ele>134.3</ele>
        <time>2016-08-07T08:41:38Z</time>
      </trkpt>
      <trkpt lat="44.86842" lon="0.62639">
        <ele>135.6</ele>
        <time>2016-08-07T08:41:42Z</time>
      </trkpt>
      <trkpt lat="44.86838" lon="0.62651">
        <ele>137</ele>
        <time>2016-08-07T08:41:46Z</time>
      </trkpt>
      <trkpt lat="44.86833" lon="0.62663">
        <ele>138.4</ele>
        <time>2016-08-07T08:41:50Z</time>
      </trkpt>
      <trkpt lat="44.86829" lon="0.62677">
        <ele>138.6</ele>
        <time>2016-08-07T08:41:54Z</time>
      </trkpt>
      <trkpt lat="44.86826" lon="0.62691">
        <ele>139.9</ele>
        <time>2016-08-07T08:41:58Z</time>
      </trkpt>
      <trkpt lat="44.86823" lon="0.62707">
        <ele>140.5</ele>
        <time>2016-08-07T08:42:02Z</time>
      </trkpt>
      <trkpt lat="44.86822" lon="0.62724">
        <ele>140.4</ele>
        <time>2016-08-07T08:42:06Z</time>
      </trkpt>
      <trkpt lat="44.86822" lon="0.62741">
        <ele>141.1</ele>
        <time>2016-08-07T08:42:10Z</time>
      </trkpt>
      <trkpt lat="44.86821" lon="0.62759">
        <ele>141.4</ele>
        <time>2016-08-07T08:42:14Z</time>
      </trkpt>
      <trkpt lat="44.86819" lon="0.62777">
        <ele>141.3</ele>
        <time>2016-08-07T08:42:18Z</time>
      </trkpt>
      <trkpt lat="44.86817" lon="0.62793">
        <ele>142.1</ele>
        <time>2016-08-07T08:42:22Z</time>
      </trkpt>
      <trkpt lat="44.86814" lon="0.6281">
        <ele>141.8</ele>
        <time>2016-08-07T08:42:26Z</time>
      </trkpt>
      <trkpt lat="44.8681" lon="0.62826">
        <ele>143.9</ele>
        <time>2016-08-07T08:42:30Z</time>
      </trkpt>
      <trkpt lat="44.86808" lon="0.62841">
        <ele>143.9</ele>
        <time>2016-08-07T08:42:34Z</time>
      </trkpt>
      <trkpt lat="44.868" lon="0.62848">
        <ele>144.4</ele>
        <time>2016-08-07T08:42:38Z</time>
      </trkpt>
      <trkpt lat="44.86789" lon="0.62849">
        <ele>145.4</ele>
        <time>2016-08-07T08:42:42Z</time>
      </trkpt>
      <trkpt lat="44.86778" lon="0.62847">
        <ele>146.2</ele>
        <time>2016-08-07T08:42:46Z</time>
      </trkpt>
      <trkpt lat="44.86768" lon="0.62843">
        <ele>147.3</ele>
        <time>2016-08-07T08:42:50Z</time>
      </trkpt>
      <trkpt lat="44.86758" lon="0.62839">
        <ele>147.3</ele>
        <time>2016-08-07T08:42:54Z</time>
      </trkpt>
      <trkpt lat="44.86747" lon="0.62842">
        <ele>146.5</ele>
        <time>2016-08-07T08:42:58Z</time>
      </trkpt>
      <trkpt lat="44.86732" lon="0.62847">
        <ele>147.3</ele>
        <time>2016-08-07T08:43:02Z</time>
      </trkpt>
      <trkpt lat="44.86717" lon="0.62849">
        <ele>145.7</ele>
        <time>2016-08-07T08:43:06Z</time>
      </trkpt>
      <trkpt lat="44.86706" lon="0.62865">
        <ele>146</ele>
        <time>2016-08-07T08:43:10Z</time>
      </trkpt>
      <trkpt lat="44.86696" lon="0.62887">
        <ele>144.9</ele>
        <time>2016-08-07T08:43:14Z</time>
      </trkpt>
      <trkpt lat="44.86687" lon="0.62912">
        <ele>141.8</ele>
        <time>2016-08-07T08:43:18Z</time>
      </trkpt>
      <trkpt lat="44.86668" lon="0.62915">
        <ele>142.4</ele>
        <time>2016-08-07T08:43:22Z</time>
      </trkpt>
      <trkpt lat="44.86647" lon="0.62917">
        <ele>141.3</ele>
        <time>2016-08-07T08:43:26Z</time>
      </trkpt>
      <trkpt lat="44.86623" lon="0.62917">
        <ele>136.5</ele>
        <time>2016-08-07T08:43:30Z</time>
      </trkpt>
      <trkpt lat="44.86597" lon="0.6291">
        <ele>135</ele>
        <time>2016-08-07T08:43:34Z</time>
      </trkpt>
      <trkpt lat="44.86563" lon="0.62894">
        <ele>133.7</ele>
        <time>2016-08-07T08:43:38Z</time>
      </trkpt>
      <trkpt lat="44.86541" lon="0.62866">
        <ele>127.2</ele>
        <time>2016-08-07T08:43:42Z</time>
      </trkpt>
      <trkpt lat="44.86513" lon="0.62849">
        <ele>123</ele>
        <time>2016-08-07T08:43:46Z</time>
      </trkpt>
      <trkpt lat="44.86477" lon="0.62831">
        <ele>120.5</ele>
        <time>2016-08-07T08:43:50Z</time>
      </trkpt>
      <trkpt lat="44.86442" lon="0.62827">
        <ele>118.2</ele>
        <time>2016-08-07T08:43:54Z</time>
      </trkpt>
      <trkpt lat="44.86397" lon="0.62832">
        <ele>115.1</ele>
        <time>2016-08-07T08:43:58Z</time>
      </trkpt>
      <trkpt lat="44.86358" lon="0.62815">
        <ele>114.2</ele>
        <time>2016-08-07T08:44:02Z</time>
      </trkpt>
      <trkpt lat="44.86325" lon="0.62804">
        <ele>113.1</ele>
        <time>2016-08-07T08:44:06Z</time>
      </trkpt>
      <trkpt lat="44.86287" lon="0.62788">
        <ele>113.1</ele>
        <time>2016-08-07T08:44:10Z</time>
      </trkpt>
      <trkpt lat="44.86263" lon="0.62778">
        <ele>101</ele>
        <time>2016-08-07T08:44:14Z</time>
      </trkpt>
      <trkpt lat="44.86258" lon="0.62771">
        <ele>98.3</ele>
        <time>2016-08-07T08:44:18Z</time>
      </trkpt>
      <trkpt lat="44.86267" lon="0.62771">
        <ele>99</ele>
        <time>2016-08-07T08:44:22Z</time>
      </trkpt>
      <trkpt lat="44.86274" lon="0.6276">
        <ele>97.9</ele>
        <time>2016-08-07T08:44:26Z</time>
      </trkpt>
      <trkpt lat="44.86281" lon="0.62748">
        <ele>98.3</ele>
        <time>2016-08-07T08:44:30Z</time>
      </trkpt>
      <trkpt lat="44.8629" lon="0.62731">
        <ele>99</ele>
        <time>2016-08-07T08:44:34Z</time>
      </trkpt>
      <trkpt lat="44.863" lon="0.62718">
        <ele>99</ele>
        <time>2016-08-07T08:44:38Z</time>
      </trkpt>
      <trkpt lat="44.86312" lon="0.62708">
        <ele>100.5</ele>
        <time>2016-08-07T08:44:42Z</time>
      </trkpt>
      <trkpt lat="44.86323" lon="0.62697">
        <ele>100.6</ele>
        <time>2016-08-07T08:44:46Z</time>
      </trkpt>
      <trkpt lat="44.86322" lon="0.62683">
        <ele>100.6</ele>
        <time>2016-08-07T08:44:50Z</time>
      </trkpt>
      <trkpt lat="44.86315" lon="0.62672">
        <ele>102.1</ele>
        <time>2016-08-07T08:44:54Z</time>
      </trkpt>
      <trkpt lat="44.86312" lon="0.62662">
        <ele>103.6</ele>
        <time>2016-08-07T08:44:58Z</time>
      </trkpt>
      <trkpt lat="44.86313" lon="0.62648">
        <ele>105.2</ele>
        <time>2016-08-07T08:45:02Z</time>
      </trkpt>
      <trkpt lat="44.86312" lon="0.62639">
        <ele>107</ele>
        <time>2016-08-07T08:45:06Z</time>
      </trkpt>
      <trkpt lat="44.86311" lon="0.6263">
        <ele>108.6</ele>
        <time>2016-08-07T08:45:10Z</time>
      </trkpt>
      <trkpt lat="44.86312" lon="0.62622">
        <ele>109.7</ele>
        <time>2016-08-07T08:45:14Z</time>
      </trkpt>
      <trkpt lat="44.86312" lon="0.62616">
        <ele>111.1</ele>
        <time>2016-08-07T08:45:18Z</time>
      </trkpt>
      <trkpt lat="44.86311" lon="0.62609">
        <ele>112.8</ele>
        <time>2016-08-07T08:45:22Z</time>
      </trkpt>
      <trkpt lat="44.86308" lon="0.62603">
        <ele>114.6</ele>
        <time>2016-08-07T08:45:26Z</time>
      </trkpt>
      <trkpt lat="44.8631" lon="0.62595">
        <ele>115.7</ele>
        <time>2016-08-07T08:45:30Z</time>
      </trkpt>
      <trkpt lat="44.86307" lon="0.62589">
        <ele>117.4</ele>
        <time>2016-08-07T08:45:34Z</time>
      </trkpt>
      <trkpt lat="44.86308" lon="0.62582">
        <ele>118.4</ele>
        <time>2016-08-07T08:45:38Z</time>
      </trkpt>
      <trkpt lat="44.86308" lon="0.62577">
        <ele>119.2</ele>
        <time>2016-08-07T08:45:42Z</time>
      </trkpt>
      <trkpt lat="44.86309" lon="0.62569">
        <ele>119.6</ele>
        <time>2016-08-07T08:45:46Z</time>
      </trkpt>
      <trkpt lat="44.86313" lon="0.62559">
        <ele>120.3</ele>
        <time>2016-08-07T08:45:50Z</time>
      </trkpt>
      <trkpt lat="44.86313" lon="0.6255">
        <ele>121</ele>
        <time>2016-08-07T08:45:54Z</time>
      </trkpt>
      <trkpt lat="44.86311" lon="0.62541">
        <ele>121.7</ele>
        <time>2016-08-07T08:45:58Z</time>
      </trkpt>
      <trkpt lat="44.86311" lon="0.62531">
        <ele>122.4</ele>
        <time>2016-08-07T08:46:02Z</time>
      </trkpt>
      <trkpt lat="44.86311" lon="0.62522">
        <ele>123.1</ele>
        <time>2016-08-07T08:46:06Z</time>
      </trkpt>
      <trkpt lat="44.86311" lon="0.62512">
        <ele>123.7</ele>
        <time>2016-08-07T08:46:10Z</time>
      </trkpt>
      <trkpt lat="44.86309" lon="0.62502">
        <ele>124.1</ele>
        <time>2016-08-07T08:46:14Z</time>
      </trkpt>
      <trkpt lat="44.86307" lon="0.62489">
        <ele>125.3</ele>
        <time>2016-08-07T08:46:18Z</time>
      </trkpt>
      <trkpt lat="44.86306" lon="0.62476">
        <ele>125.3</ele>
        <time>2016-08-07T08:46:22Z</time>
      </trkpt>
      <trkpt lat="44.86302" lon="0.62465">
        <ele>125.5</ele>
        <time>2016-08-07T08:46:26Z</time>
      </trkpt>
      <trkpt lat="44.86297" lon="0.62453">
        <ele>126.4</ele>
        <time>2016-08-07T08:46:30Z</time>
      </trkpt>
      <trkpt lat="44.86294" lon="0.62443">
        <ele>126.8</ele>
        <time>2016-08-07T08:46:34Z</time>
      </trkpt>
      <trkpt lat="44.86288" lon="0.62435">
        <ele>127.8</ele>
        <time>2016-08-07T08:46:38Z</time>
      </trkpt>
      <trkpt lat="44.86282" lon="0.62425">
        <ele>127.8</ele>
        <time>2016-08-07T08:46:42Z</time>
      </trkpt>
      <trkpt lat="44.86278" lon="0.62414">
        <ele>128.7</ele>
        <time>2016-08-07T08:46:46Z</time>
      </trkpt>
      <trkpt lat="44.86276" lon="0.62404">
        <ele>128.9</ele>
        <time>2016-08-07T08:46:50Z</time>
      </trkpt>
      <trkpt lat="44.86268" lon="0.62396">
        <ele>129.4</ele>
        <time>2016-08-07T08:46:54Z</time>
      </trkpt>
      <trkpt lat="44.86265" lon="0.62389">
        <ele>129.6</ele>
        <time>2016-08-07T08:46:58Z</time>
      </trkpt>
      <trkpt lat="44.86264" lon="0.62385">
        <ele>129.8</ele>
        <time>2016-08-07T08:47:02Z</time>
      </trkpt>
      <trkpt lat="44.86262" lon="0.62377">
        <ele>129</ele>
        <time>2016-08-07T08:47:10Z</time>
      </trkpt>
      <trkpt lat="44.86263" lon="0.62364">
        <ele>128.9</ele>
        <time>2016-08-07T08:47:14Z</time>
      </trkpt>
      <trkpt lat="44.86261" lon="0.62349">
        <ele>129.1</ele>
        <time>2016-08-07T08:47:18Z</time>
      </trkpt>
      <trkpt lat="44.86261" lon="0.62329">
        <ele>128.7</ele>
        <time>2016-08-07T08:47:22Z</time>
      </trkpt>
      <trkpt lat="44.86259" lon="0.62303">
        <ele>127.2</ele>
        <time>2016-08-07T08:47:26Z</time>
      </trkpt>
      <trkpt lat="44.86259" lon="0.62278">
        <ele>126.2</ele>
        <time>2016-08-07T08:47:30Z</time>
      </trkpt>
      <trkpt lat="44.86259" lon="0.62243">
        <ele>124.9</ele>
        <time>2016-08-07T08:47:34Z</time>
      </trkpt>
      <trkpt lat="44.86264" lon="0.62217">
        <ele>124</ele>
        <time>2016-08-07T08:47:38Z</time>
      </trkpt>
      <trkpt lat="44.86271" lon="0.622">
        <ele>125.1</ele>
        <time>2016-08-07T08:47:42Z</time>
      </trkpt>
      <trkpt lat="44.86279" lon="0.62188">
        <ele>125.1</ele>
        <time>2016-08-07T08:47:46Z</time>
      </trkpt>
      <trkpt lat="44.86289" lon="0.62168">
        <ele>127.4</ele>
        <time>2016-08-07T08:47:50Z</time>
      </trkpt>
      <trkpt lat="44.86299" lon="0.62152">
        <ele>128.6</ele>
        <time>2016-08-07T08:47:54Z</time>
      </trkpt>
      <trkpt lat="44.86305" lon="0.62138">
        <ele>129.2</ele>
        <time>2016-08-07T08:47:58Z</time>
      </trkpt>
      <trkpt lat="44.86311" lon="0.62124">
        <ele>130</ele>
        <time>2016-08-07T08:48:02Z</time>
      </trkpt>
      <trkpt lat="44.86316" lon="0.62114">
        <ele>130.9</ele>
        <time>2016-08-07T08:48:06Z</time>
      </trkpt>
      <trkpt lat="44.86325" lon="0.62098">
        <ele>131.8</ele>
        <time>2016-08-07T08:48:10Z</time>
      </trkpt>
      <trkpt lat="44.86332" lon="0.62084">
        <ele>131.5</ele>
        <time>2016-08-07T08:48:14Z</time>
      </trkpt>
      <trkpt lat="44.8634" lon="0.6207">
        <ele>132.6</ele>
        <time>2016-08-07T08:48:18Z</time>
      </trkpt>
      <trkpt lat="44.86352" lon="0.62056">
        <ele>133.3</ele>
        <time>2016-08-07T08:48:22Z</time>
      </trkpt>
      <trkpt lat="44.86363" lon="0.62045">
        <ele>133.6</ele>
        <time>2016-08-07T08:48:26Z</time>
      </trkpt>
      <trkpt lat="44.86368" lon="0.62034">
        <ele>133.8</ele>
        <time>2016-08-07T08:48:30Z</time>
      </trkpt>
      <trkpt lat="44.8638" lon="0.62017">
        <ele>134.7</ele>
        <time>2016-08-07T08:48:34Z</time>
      </trkpt>
      <trkpt lat="44.86388" lon="0.62002">
        <ele>135</ele>
        <time>2016-08-07T08:48:38Z</time>
      </trkpt>
      <trkpt lat="44.86398" lon="0.61989">
        <ele>134.7</ele>
        <time>2016-08-07T08:48:42Z</time>
      </trkpt>
      <trkpt lat="44.86407" lon="0.61973">
        <ele>134.5</ele>
        <time>2016-08-07T08:48:46Z</time>
      </trkpt>
      <trkpt lat="44.86416" lon="0.61958">
        <ele>135.8</ele>
        <time>2016-08-07T08:48:50Z</time>
      </trkpt>
      <trkpt lat="44.86424" lon="0.6194">
        <ele>137</ele>
        <time>2016-08-07T08:48:54Z</time>
      </trkpt>
      <trkpt lat="44.8643" lon="0.61921">
        <ele>137.2</ele>
        <time>2016-08-07T08:48:58Z</time>
      </trkpt>
      <trkpt lat="44.86439" lon="0.61901">
        <ele>137.2</ele>
        <time>2016-08-07T08:49:02Z</time>
      </trkpt>
      <trkpt lat="44.86444" lon="0.61881">
        <ele>137.8</ele>
        <time>2016-08-07T08:49:06Z</time>
      </trkpt>
      <trkpt lat="44.86449" lon="0.6186">
        <ele>136.8</ele>
        <time>2016-08-07T08:49:10Z</time>
      </trkpt>
      <trkpt lat="44.86453" lon="0.6184">
        <ele>136.8</ele>
        <time>2016-08-07T08:49:14Z</time>
      </trkpt>
      <trkpt lat="44.86461" lon="0.6182">
        <ele>137.3</ele>
        <time>2016-08-07T08:49:18Z</time>
      </trkpt>
      <trkpt lat="44.86475" lon="0.61808">
        <ele>136.7</ele>
        <time>2016-08-07T08:49:22Z</time>
      </trkpt>
      <trkpt lat="44.86491" lon="0.61793">
        <ele>137.5</ele>
        <time>2016-08-07T08:49:26Z</time>
      </trkpt>
      <trkpt lat="44.86508" lon="0.61781">
        <ele>137.2</ele>
        <time>2016-08-07T08:49:30Z</time>
      </trkpt>
      <trkpt lat="44.86526" lon="0.61774">
        <ele>137.1</ele>
        <time>2016-08-07T08:49:34Z</time>
      </trkpt>
      <trkpt lat="44.86542" lon="0.61768">
        <ele>137.1</ele>
        <time>2016-08-07T08:49:38Z</time>
      </trkpt>
      <trkpt lat="44.86558" lon="0.61761">
        <ele>137.8</ele>
        <time>2016-08-07T08:49:42Z</time>
      </trkpt>
      <trkpt lat="44.86561" lon="0.61738">
        <ele>137.7</ele>
        <time>2016-08-07T08:49:46Z</time>
      </trkpt>
      <trkpt lat="44.86556" lon="0.61715">
        <ele>136.9</ele>
        <time>2016-08-07T08:49:50Z</time>
      </trkpt>
      <trkpt lat="44.86552" lon="0.61691">
        <ele>136.9</ele>
        <time>2016-08-07T08:49:54Z</time>
      </trkpt>
      <trkpt lat="44.86552" lon="0.61665">
        <ele>136.8</ele>
        <time>2016-08-07T08:49:58Z</time>
      </trkpt>
      <trkpt lat="44.8655" lon="0.61642">
        <ele>138.1</ele>
        <time>2016-08-07T08:50:02Z</time>
      </trkpt>
      <trkpt lat="44.86548" lon="0.61619">
        <ele>137.7</ele>
        <time>2016-08-07T08:50:06Z</time>
      </trkpt>
      <trkpt lat="44.86544" lon="0.61593">
        <ele>137.7</ele>
        <time>2016-08-07T08:50:10Z</time>
      </trkpt>
      <trkpt lat="44.86541" lon="0.6157">
        <ele>137.7</ele>
        <time>2016-08-07T08:50:14Z</time>
      </trkpt>
      <trkpt lat="44.86536" lon="0.61549">
        <ele>139.1</ele>
        <time>2016-08-07T08:50:18Z</time>
      </trkpt>
      <trkpt lat="44.86524" lon="0.61525">
        <ele>140.2</ele>
        <time>2016-08-07T08:50:22Z</time>
      </trkpt>
      <trkpt lat="44.86513" lon="0.61502">
        <ele>140.7</ele>
        <time>2016-08-07T08:50:26Z</time>
      </trkpt>
      <trkpt lat="44.86503" lon="0.61484">
        <ele>142</ele>
        <time>2016-08-07T08:50:30Z</time>
      </trkpt>
      <trkpt lat="44.86494" lon="0.61467">
        <ele>141.5</ele>
        <time>2016-08-07T08:50:34Z</time>
      </trkpt>
      <trkpt lat="44.86486" lon="0.61451">
        <ele>142.6</ele>
        <time>2016-08-07T08:50:38Z</time>
      </trkpt>
      <trkpt lat="44.86477" lon="0.61435">
        <ele>143.5</ele>
        <time>2016-08-07T08:50:42Z</time>
      </trkpt>
      <trkpt lat="44.86468" lon="0.61417">
        <ele>144.7</ele>
        <time>2016-08-07T08:50:46Z</time>
      </trkpt>
      <trkpt lat="44.86464" lon="0.614">
        <ele>145.6</ele>
        <time>2016-08-07T08:50:50Z</time>
      </trkpt>
      <trkpt lat="44.86468" lon="0.61381">
        <ele>146.6</ele>
        <time>2016-08-07T08:50:54Z</time>
      </trkpt>
      <trkpt lat="44.86473" lon="0.61362">
        <ele>146.8</ele>
        <time>2016-08-07T08:50:58Z</time>
      </trkpt>
      <trkpt lat="44.86475" lon="0.61342">
        <ele>147.7</ele>
        <time>2016-08-07T08:51:02Z</time>
      </trkpt>
      <trkpt lat="44.86477" lon="0.61323">
        <ele>148.8</ele>
        <time>2016-08-07T08:51:06Z</time>
      </trkpt>
      <trkpt lat="44.86482" lon="0.61303">
        <ele>148.8</ele>
        <time>2016-08-07T08:51:10Z</time>
      </trkpt>
      <trkpt lat="44.86484" lon="0.61285">
        <ele>150.1</ele>
        <time>2016-08-07T08:51:14Z</time>
      </trkpt>
      <trkpt lat="44.86488" lon="0.61264">
        <ele>150.1</ele>
        <time>2016-08-07T08:51:18Z</time>
      </trkpt>
      <trkpt lat="44.86493" lon="0.61243">
        <ele>149.7</ele>
        <time>2016-08-07T08:51:22Z</time>
      </trkpt>
      <trkpt lat="44.86497" lon="0.61222">
        <ele>150.4</ele>
        <time>2016-08-07T08:51:26Z</time>
      </trkpt>
      <trkpt lat="44.865" lon="0.61202">
        <ele>150.4</ele>
        <time>2016-08-07T08:51:30Z</time>
      </trkpt>
      <trkpt lat="44.86498" lon="0.61185">
        <ele>151.5</ele>
        <time>2016-08-07T08:51:34Z</time>
      </trkpt>
      <trkpt lat="44.86488" lon="0.61171">
        <ele>152.7</ele>
        <time>2016-08-07T08:51:38Z</time>
      </trkpt>
      <trkpt lat="44.86485" lon="0.61152">
        <ele>151.4</ele>
        <time>2016-08-07T08:51:42Z</time>
      </trkpt>
      <trkpt lat="44.86481" lon="0.61135">
        <ele>150.8</ele>
        <time>2016-08-07T08:51:46Z</time>
      </trkpt>
      <trkpt lat="44.86473" lon="0.61114">
        <ele>152</ele>
        <time>2016-08-07T08:51:50Z</time>
      </trkpt>
      <trkpt lat="44.86467" lon="0.61096">
        <ele>151</ele>
        <time>2016-08-07T08:51:54Z</time>
      </trkpt>
      <trkpt lat="44.86454" lon="0.61084">
        <ele>152.3</ele>
        <time>2016-08-07T08:51:58Z</time>
      </trkpt>
      <trkpt lat="44.86436" lon="0.6107">
        <ele>150.8</ele>
        <time>2016-08-07T08:52:02Z</time>
      </trkpt>
      <trkpt lat="44.86424" lon="0.61055">
        <ele>149.4</ele>
        <time>2016-08-07T08:52:06Z</time>
      </trkpt>
      <trkpt lat="44.8642" lon="0.61036">
        <ele>148.7</ele>
        <time>2016-08-07T08:52:10Z</time>
      </trkpt>
      <trkpt lat="44.86406" lon="0.61008">
        <ele>148.7</ele>
        <time>2016-08-07T08:52:14Z</time>
      </trkpt>
      <trkpt lat="44.86401" lon="0.60984">
        <ele>145.2</ele>
        <time>2016-08-07T08:52:18Z</time>
      </trkpt>
      <trkpt lat="44.86402" lon="0.60964">
        <ele>147</ele>
        <time>2016-08-07T08:52:22Z</time>
      </trkpt>
      <trkpt lat="44.86405" lon="0.60944">
        <ele>148.3</ele>
        <time>2016-08-07T08:52:26Z</time>
      </trkpt>
      <trkpt lat="44.86406" lon="0.60919">
        <ele>148.2</ele>
        <time>2016-08-07T08:52:30Z</time>
      </trkpt>
      <trkpt lat="44.86404" lon="0.60891">
        <ele>146.1</ele>
        <time>2016-08-07T08:52:34Z</time>
      </trkpt>
      <trkpt lat="44.86408" lon="0.60881">
        <ele>146.1</ele>
        <time>2016-08-07T08:52:38Z</time>
      </trkpt>
      <trkpt lat="44.86409" lon="0.60889">
        <ele>147.2</ele>
        <time>2016-08-07T08:52:42Z</time>
      </trkpt>
      <trkpt lat="44.86414" lon="0.60901">
        <ele>146.8</ele>
        <time>2016-08-07T08:52:46Z</time>
      </trkpt>
      <trkpt lat="44.86424" lon="0.60908">
        <ele>148.2</ele>
        <time>2016-08-07T08:52:50Z</time>
      </trkpt>
      <trkpt lat="44.86433" lon="0.60912">
        <ele>148.2</ele>
        <time>2016-08-07T08:52:54Z</time>
      </trkpt>
      <trkpt lat="44.86436" lon="0.60927">
        <ele>148.2</ele>
        <time>2016-08-07T08:52:58Z</time>
      </trkpt>
      <trkpt lat="44.86444" lon="0.60944">
        <ele>147.6</ele>
        <time>2016-08-07T08:53:02Z</time>
      </trkpt>
      <trkpt lat="44.8645" lon="0.60962">
        <ele>148.7</ele>
        <time>2016-08-07T08:53:06Z</time>
      </trkpt>
      <trkpt lat="44.86456" lon="0.60976">
        <ele>148.1</ele>
        <time>2016-08-07T08:53:10Z</time>
      </trkpt>
      <trkpt lat="44.86462" lon="0.60992">
        <ele>149.1</ele>
        <time>2016-08-07T08:53:14Z</time>
      </trkpt>
      <trkpt lat="44.86464" lon="0.61009">
        <ele>150.7</ele>
        <time>2016-08-07T08:53:18Z</time>
      </trkpt>
      <trkpt lat="44.8647" lon="0.61029">
        <ele>151.3</ele>
        <time>2016-08-07T08:53:22Z</time>
      </trkpt>
      <trkpt lat="44.86475" lon="0.61049">
        <ele>151.9</ele>
        <time>2016-08-07T08:53:26Z</time>
      </trkpt>
      <trkpt lat="44.86483" lon="0.61071">
        <ele>151.9</ele>
        <time>2016-08-07T08:53:30Z</time>
      </trkpt>
      <trkpt lat="44.86492" lon="0.61088">
        <ele>150</ele>
        <time>2016-08-07T08:53:34Z</time>
      </trkpt>
      <trkpt lat="44.86504" lon="0.6108">
        <ele>150</ele>
        <time>2016-08-07T08:53:38Z</time>
      </trkpt>
      <trkpt lat="44.8651" lon="0.61065">
        <ele>151</ele>
        <time>2016-08-07T08:53:42Z</time>
      </trkpt>
      <trkpt lat="44.86513" lon="0.61049">
        <ele>151.6</ele>
        <time>2016-08-07T08:53:46Z</time>
      </trkpt>
      <trkpt lat="44.86521" lon="0.61032">
        <ele>150.8</ele>
        <time>2016-08-07T08:53:50Z</time>
      </trkpt>
      <trkpt lat="44.8653" lon="0.61014">
        <ele>149.8</ele>
        <time>2016-08-07T08:53:54Z</time>
      </trkpt>
      <trkpt lat="44.86536" lon="0.6099">
        <ele>149.8</ele>
        <time>2016-08-07T08:53:58Z</time>
      </trkpt>
      <trkpt lat="44.86533" lon="0.60961">
        <ele>146</ele>
        <time>2016-08-07T08:54:02Z</time>
      </trkpt>
      <trkpt lat="44.86537" lon="0.60925">
        <ele>142.8</ele>
        <time>2016-08-07T08:54:06Z</time>
      </trkpt>
      <trkpt lat="44.86536" lon="0.60885">
        <ele>141.7</ele>
        <time>2016-08-07T08:54:10Z</time>
      </trkpt>
      <trkpt lat="44.86537" lon="0.60854">
        <ele>142.7</ele>
        <time>2016-08-07T08:54:14Z</time>
      </trkpt>
      <trkpt lat="44.86542" lon="0.60824">
        <ele>141</ele>
        <time>2016-08-07T08:54:18Z</time>
      </trkpt>
      <trkpt lat="44.86535" lon="0.60787">
        <ele>141</ele>
        <time>2016-08-07T08:54:22Z</time>
      </trkpt>
      <trkpt lat="44.86534" lon="0.6076">
        <ele>142.3</ele>
        <time>2016-08-07T08:54:26Z</time>
      </trkpt>
      <trkpt lat="44.86539" lon="0.60741">
        <ele>141.2</ele>
        <time>2016-08-07T08:54:30Z</time>
      </trkpt>
      <trkpt lat="44.86554" lon="0.60738">
        <ele>139.9</ele>
        <time>2016-08-07T08:54:34Z</time>
      </trkpt>
      <trkpt lat="44.86571" lon="0.6073">
        <ele>138.6</ele>
        <time>2016-08-07T08:54:38Z</time>
      </trkpt>
      <trkpt lat="44.86594" lon="0.60726">
        <ele>133.4</ele>
        <time>2016-08-07T08:54:42Z</time>
      </trkpt>
      <trkpt lat="44.86611" lon="0.60727">
        <ele>129.8</ele>
        <time>2016-08-07T08:54:46Z</time>
      </trkpt>
      <trkpt lat="44.86619" lon="0.60724">
        <ele>129.2</ele>
        <time>2016-08-07T08:54:50Z</time>
      </trkpt>
      <trkpt lat="44.86623" lon="0.60717">
        <ele>131.6</ele>
        <time>2016-08-07T08:54:54Z</time>
      </trkpt>
      <trkpt lat="44.86626" lon="0.60707">
        <ele>129.7</ele>
        <time>2016-08-07T08:54:58Z</time>
      </trkpt>
      <trkpt lat="44.86629" lon="0.60693">
        <ele>131.7</ele>
        <time>2016-08-07T08:55:02Z</time>
      </trkpt>
      <trkpt lat="44.86632" lon="0.60675">
        <ele>132.9</ele>
        <time>2016-08-07T08:55:06Z</time>
      </trkpt>
      <trkpt lat="44.86632" lon="0.60656">
        <ele>134.4</ele>
        <time>2016-08-07T08:55:10Z</time>
      </trkpt>
      <trkpt lat="44.86633" lon="0.60639">
        <ele>135.2</ele>
        <time>2016-08-07T08:55:14Z</time>
      </trkpt>
      <trkpt lat="44.86642" lon="0.6062">
        <ele>134.2</ele>
        <time>2016-08-07T08:55:18Z</time>
      </trkpt>
      <trkpt lat="44.86647" lon="0.60599">
        <ele>134.2</ele>
        <time>2016-08-07T08:55:22Z</time>
      </trkpt>
      <trkpt lat="44.86647" lon="0.60572">
        <ele>134.7</ele>
        <time>2016-08-07T08:55:26Z</time>
      </trkpt>
      <trkpt lat="44.86645" lon="0.60548">
        <ele>134.8</ele>
        <time>2016-08-07T08:55:30Z</time>
      </trkpt>
      <trkpt lat="44.86642" lon="0.60521">
        <ele>134.8</ele>
        <time>2016-08-07T08:55:34Z</time>
      </trkpt>
      <trkpt lat="44.86642" lon="0.60496">
        <ele>134.3</ele>
        <time>2016-08-07T08:55:38Z</time>
      </trkpt>
      <trkpt lat="44.86643" lon="0.60474">
        <ele>134.3</ele>
        <time>2016-08-07T08:55:42Z</time>
      </trkpt>
      <trkpt lat="44.86643" lon="0.60454">
        <ele>135.6</ele>
        <time>2016-08-07T08:55:46Z</time>
      </trkpt>
      <trkpt lat="44.86643" lon="0.60434">
        <ele>135.6</ele>
        <time>2016-08-07T08:55:50Z</time>
      </trkpt>
      <trkpt lat="44.86644" lon="0.60414">
        <ele>136.4</ele>
        <time>2016-08-07T08:55:54Z</time>
      </trkpt>
      <trkpt lat="44.86648" lon="0.60396">
        <ele>136.5</ele>
        <time>2016-08-07T08:55:58Z</time>
      </trkpt>
      <trkpt lat="44.86656" lon="0.60381">
        <ele>137.5</ele>
        <time>2016-08-07T08:56:02Z</time>
      </trkpt>
      <trkpt lat="44.86666" lon="0.60381">
        <ele>137.8</ele>
        <time>2016-08-07T08:56:06Z</time>
      </trkpt>
      <trkpt lat="44.86682" lon="0.60374">
        <ele>136.9</ele>
        <time>2016-08-07T08:56:10Z</time>
      </trkpt>
      <trkpt lat="44.86696" lon="0.60366">
        <ele>136.4</ele>
        <time>2016-08-07T08:56:14Z</time>
      </trkpt>
      <trkpt lat="44.86709" lon="0.60359">
        <ele>135.8</ele>
        <time>2016-08-07T08:56:18Z</time>
      </trkpt>
      <trkpt lat="44.86718" lon="0.6035">
        <ele>136.2</ele>
        <time>2016-08-07T08:56:22Z</time>
      </trkpt>
      <trkpt lat="44.8673" lon="0.60347">
        <ele>134.9</ele>
        <time>2016-08-07T08:56:26Z</time>
      </trkpt>
      <trkpt lat="44.86744" lon="0.60358">
        <ele>134.9</ele>
        <time>2016-08-07T08:56:30Z</time>
      </trkpt>
      <trkpt lat="44.86759" lon="0.60369">
        <ele>132.9</ele>
        <time>2016-08-07T08:56:34Z</time>
      </trkpt>
      <trkpt lat="44.86778" lon="0.6038">
        <ele>134.3</ele>
        <time>2016-08-07T08:56:38Z</time>
      </trkpt>
      <trkpt lat="44.86802" lon="0.60377">
        <ele>134.4</ele>
        <time>2016-08-07T08:56:42Z</time>
      </trkpt>
      <trkpt lat="44.86815" lon="0.60362">
        <ele>133.2</ele>
        <time>2016-08-07T08:56:46Z</time>
      </trkpt>
      <trkpt lat="44.86826" lon="0.60342">
        <ele>133.2</ele>
        <time>2016-08-07T08:56:50Z</time>
      </trkpt>
      <trkpt lat="44.86836" lon="0.60323">
        <ele>133.7</ele>
        <time>2016-08-07T08:56:54Z</time>
      </trkpt>
      <trkpt lat="44.86846" lon="0.60304">
        <ele>133.2</ele>
        <time>2016-08-07T08:56:58Z</time>
      </trkpt>
      <trkpt lat="44.86851" lon="0.60281">
        <ele>131.9</ele>
        <time>2016-08-07T08:57:02Z</time>
      </trkpt>
      <trkpt lat="44.86849" lon="0.60249">
        <ele>130.8</ele>
        <time>2016-08-07T08:57:06Z</time>
      </trkpt>
      <trkpt lat="44.86849" lon="0.60212">
        <ele>127.9</ele>
        <time>2016-08-07T08:57:10Z</time>
      </trkpt>
      <trkpt lat="44.86848" lon="0.6018">
        <ele>123.8</ele>
        <time>2016-08-07T08:57:14Z</time>
      </trkpt>
      <trkpt lat="44.86832" lon="0.6015">
        <ele>122.8</ele>
        <time>2016-08-07T08:57:18Z</time>
      </trkpt>
      <trkpt lat="44.86821" lon="0.60125">
        <ele>119</ele>
        <time>2016-08-07T08:57:22Z</time>
      </trkpt>
      <trkpt lat="44.86817" lon="0.6009">
        <ele>119</ele>
        <time>2016-08-07T08:57:26Z</time>
      </trkpt>
      <trkpt lat="44.86819" lon="0.60047">
        <ele>115.7</ele>
        <time>2016-08-07T08:57:30Z</time>
      </trkpt>
      <trkpt lat="44.86831" lon="0.60012">
        <ele>112.7</ele>
        <time>2016-08-07T08:57:34Z</time>
      </trkpt>
      <trkpt lat="44.86834" lon="0.59983">
        <ele>108.5</ele>
        <time>2016-08-07T08:57:38Z</time>
      </trkpt>
      <trkpt lat="44.86835" lon="0.5995">
        <ele>104.5</ele>
        <time>2016-08-07T08:57:42Z</time>
      </trkpt>
      <trkpt lat="44.86842" lon="0.59902">
        <ele>104.5</ele>
        <time>2016-08-07T08:57:46Z</time>
      </trkpt>
      <trkpt lat="44.86854" lon="0.59876">
        <ele>105.3</ele>
        <time>2016-08-07T08:57:50Z</time>
      </trkpt>
      <trkpt lat="44.86864" lon="0.59888">
        <ele>104.2</ele>
        <time>2016-08-07T08:57:54Z</time>
      </trkpt>
      <trkpt lat="44.86878" lon="0.59902">
        <ele>104.2</ele>
        <time>2016-08-07T08:57:58Z</time>
      </trkpt>
      <trkpt lat="44.86893" lon="0.59918">
        <ele>105.3</ele>
        <time>2016-08-07T08:58:02Z</time>
      </trkpt>
      <trkpt lat="44.86908" lon="0.59933">
        <ele>105.3</ele>
        <time>2016-08-07T08:58:06Z</time>
      </trkpt>
      <trkpt lat="44.8692" lon="0.59948">
        <ele>106.4</ele>
        <time>2016-08-07T08:58:10Z</time>
      </trkpt>
      <trkpt lat="44.86934" lon="0.59959">
        <ele>106.6</ele>
        <time>2016-08-07T08:58:14Z</time>
      </trkpt>
      <trkpt lat="44.86948" lon="0.59967">
        <ele>106.6</ele>
        <time>2016-08-07T08:58:18Z</time>
      </trkpt>
      <trkpt lat="44.86965" lon="0.59973">
        <ele>105.7</ele>
        <time>2016-08-07T08:58:22Z</time>
      </trkpt>
      <trkpt lat="44.86982" lon="0.59976">
        <ele>106.7</ele>
        <time>2016-08-07T08:58:26Z</time>
      </trkpt>
      <trkpt lat="44.86996" lon="0.59975">
        <ele>107.5</ele>
        <time>2016-08-07T08:58:30Z</time>
      </trkpt>
      <trkpt lat="44.87008" lon="0.59973">
        <ele>107.4</ele>
        <time>2016-08-07T08:58:34Z</time>
      </trkpt>
      <trkpt lat="44.8702" lon="0.5997">
        <ele>108.4</ele>
        <time>2016-08-07T08:58:38Z</time>
      </trkpt>
      <trkpt lat="44.87033" lon="0.59971">
        <ele>109.4</ele>
        <time>2016-08-07T08:58:42Z</time>
      </trkpt>
      <trkpt lat="44.87046" lon="0.59975">
        <ele>111</ele>
        <time>2016-08-07T08:58:46Z</time>
      </trkpt>
      <trkpt lat="44.87059" lon="0.59976">
        <ele>109.4</ele>
        <time>2016-08-07T08:58:50Z</time>
      </trkpt>
      <trkpt lat="44.87071" lon="0.59974">
        <ele>109.4</ele>
        <time>2016-08-07T08:58:54Z</time>
      </trkpt>
      <trkpt lat="44.87084" lon="0.59972">
        <ele>110.9</ele>
        <time>2016-08-07T08:58:58Z</time>
      </trkpt>
      <trkpt lat="44.87094" lon="0.59969">
        <ele>112.4</ele>
        <time>2016-08-07T08:59:02Z</time>
      </trkpt>
      <trkpt lat="44.87107" lon="0.59962">
        <ele>113.5</ele>
        <time>2016-08-07T08:59:06Z</time>
      </trkpt>
      <trkpt lat="44.87116" lon="0.59961">
        <ele>114.6</ele>
        <time>2016-08-07T08:59:10Z</time>
      </trkpt>
      <trkpt lat="44.87127" lon="0.59957">
        <ele>115.5</ele>
        <time>2016-08-07T08:59:14Z</time>
      </trkpt>
      <trkpt lat="44.87136" lon="0.59956">
        <ele>116.5</ele>
        <time>2016-08-07T08:59:18Z</time>
      </trkpt>
      <trkpt lat="44.87145" lon="0.59953">
        <ele>116.7</ele>
        <time>2016-08-07T08:59:22Z</time>
      </trkpt>
      <trkpt lat="44.87153" lon="0.59953">
        <ele>118.3</ele>
        <time>2016-08-07T08:59:26Z</time>
      </trkpt>
      <trkpt lat="44.87162" lon="0.5995">
        <ele>119.5</ele>
        <time>2016-08-07T08:59:30Z</time>
      </trkpt>
      <trkpt lat="44.87168" lon="0.59947">
        <ele>119.5</ele>
        <time>2016-08-07T08:59:34Z</time>
      </trkpt>
      <trkpt lat="44.87177" lon="0.59943">
        <ele>121.1</ele>
        <time>2016-08-07T08:59:38Z</time>
      </trkpt>
      <trkpt lat="44.87183" lon="0.59936">
        <ele>122.9</ele>
        <time>2016-08-07T08:59:42Z</time>
      </trkpt>
      <trkpt lat="44.87189" lon="0.59928">
        <ele>123.8</ele>
        <time>2016-08-07T08:59:46Z</time>
      </trkpt>
      <trkpt lat="44.87192" lon="0.59918">
        <ele>123.8</ele>
        <time>2016-08-07T08:59:50Z</time>
      </trkpt>
      <trkpt lat="44.87197" lon="0.5991">
        <ele>124.6</ele>
        <time>2016-08-07T08:59:54Z</time>
      </trkpt>
      <trkpt lat="44.87204" lon="0.59899">
        <ele>125.7</ele>
        <time>2016-08-07T08:59:58Z</time>
      </trkpt>
      <trkpt lat="44.87206" lon="0.59888">
        <ele>126.5</ele>
        <time>2016-08-07T09:00:02Z</time>
      </trkpt>
      <trkpt lat="44.8721" lon="0.5988">
        <ele>127.2</ele>
        <time>2016-08-07T09:00:06Z</time>
      </trkpt>
      <trkpt lat="44.87214" lon="0.59868">
        <ele>127.3</ele>
        <time>2016-08-07T09:00:10Z</time>
      </trkpt>
      <trkpt lat="44.87218" lon="0.59857">
        <ele>126.9</ele>
        <time>2016-08-07T09:00:14Z</time>
      </trkpt>
      <trkpt lat="44.87225" lon="0.59846">
        <ele>126.9</ele>
        <time>2016-08-07T09:00:18Z</time>
      </trkpt>
      <trkpt lat="44.87238" lon="0.59836">
        <ele>127.2</ele>
        <time>2016-08-07T09:00:22Z</time>
      </trkpt>
      <trkpt lat="44.87253" lon="0.59825">
        <ele>126.1</ele>
        <time>2016-08-07T09:00:26Z</time>
      </trkpt>
      <trkpt lat="44.87268" lon="0.59813">
        <ele>125.3</ele>
        <time>2016-08-07T09:00:30Z</time>
      </trkpt>
      <trkpt lat="44.87283" lon="0.59807">
        <ele>125.3</ele>
        <time>2016-08-07T09:00:34Z</time>
      </trkpt>
      <trkpt lat="44.87294" lon="0.59802">
        <ele>126.5</ele>
        <time>2016-08-07T09:00:38Z</time>
      </trkpt>
      <trkpt lat="44.87305" lon="0.59798">
        <ele>126.5</ele>
        <time>2016-08-07T09:00:42Z</time>
      </trkpt>
      <trkpt lat="44.87316" lon="0.59793">
        <ele>127.4</ele>
        <time>2016-08-07T09:00:46Z</time>
      </trkpt>
      <trkpt lat="44.87326" lon="0.59788">
        <ele>127.6</ele>
        <time>2016-08-07T09:00:50Z</time>
      </trkpt>
      <trkpt lat="44.87336" lon="0.59784">
        <ele>128.5</ele>
        <time>2016-08-07T09:00:54Z</time>
      </trkpt>
      <trkpt lat="44.87346" lon="0.5978">
        <ele>128.5</ele>
        <time>2016-08-07T09:00:58Z</time>
      </trkpt>
      <trkpt lat="44.87357" lon="0.59776">
        <ele>129.6</ele>
        <time>2016-08-07T09:01:02Z</time>
      </trkpt>
      <trkpt lat="44.87366" lon="0.59772">
        <ele>129.7</ele>
        <time>2016-08-07T09:01:06Z</time>
      </trkpt>
      <trkpt lat="44.87376" lon="0.59769">
        <ele>130.7</ele>
        <time>2016-08-07T09:01:10Z</time>
      </trkpt>
      <trkpt lat="44.87373" lon="0.59759">
        <ele>131</ele>
        <time>2016-08-07T09:01:14Z</time>
      </trkpt>
      <trkpt lat="44.87364" lon="0.59748">
        <ele>131.5</ele>
        <time>2016-08-07T09:01:18Z</time>
      </trkpt>
      <trkpt lat="44.87361" lon="0.59732">
        <ele>131.7</ele>
        <time>2016-08-07T09:01:22Z</time>
      </trkpt>
      <trkpt lat="44.87362" lon="0.59715">
        <ele>132.1</ele>
        <time>2016-08-07T09:01:26Z</time>
      </trkpt>
      <trkpt lat="44.87361" lon="0.59696">
        <ele>133.1</ele>
        <time>2016-08-07T09:01:30Z</time>
      </trkpt>
      <trkpt lat="44.8736" lon="0.59676">
        <ele>133.9</ele>
        <time>2016-08-07T09:01:34Z</time>
      </trkpt>
      <trkpt lat="44.87361" lon="0.5966">
        <ele>133.9</ele>
        <time>2016-08-07T09:01:38Z</time>
      </trkpt>
      <trkpt lat="44.87362" lon="0.59641">
        <ele>135.2</ele>
        <time>2016-08-07T09:01:42Z</time>
      </trkpt>
      <trkpt lat="44.87359" lon="0.59623">
        <ele>135.4</ele>
        <time>2016-08-07T09:01:46Z</time>
      </trkpt>
      <trkpt lat="44.87362" lon="0.5961">
        <ele>136.5</ele>
        <time>2016-08-07T09:01:50Z</time>
      </trkpt>
      <trkpt lat="44.87363" lon="0.59592">
        <ele>137.3</ele>
        <time>2016-08-07T09:01:54Z</time>
      </trkpt>
      <trkpt lat="44.87362" lon="0.59579">
        <ele>138.4</ele>
        <time>2016-08-07T09:01:58Z</time>
      </trkpt>
      <trkpt lat="44.87363" lon="0.59565">
        <ele>138.4</ele>
        <time>2016-08-07T09:02:02Z</time>
      </trkpt>
      <trkpt lat="44.87364" lon="0.59549">
        <ele>139.4</ele>
        <time>2016-08-07T09:02:06Z</time>
      </trkpt>
      <trkpt lat="44.87365" lon="0.59532">
        <ele>139.6</ele>
        <time>2016-08-07T09:02:10Z</time>
      </trkpt>
      <trkpt lat="44.87366" lon="0.59513">
        <ele>140.7</ele>
        <time>2016-08-07T09:02:14Z</time>
      </trkpt>
      <trkpt lat="44.87362" lon="0.59494">
        <ele>141.6</ele>
        <time>2016-08-07T09:02:18Z</time>
      </trkpt>
      <trkpt lat="44.87358" lon="0.59477">
        <ele>142.7</ele>
        <time>2016-08-07T09:02:22Z</time>
      </trkpt>
      <trkpt lat="44.87359" lon="0.59463">
        <ele>142.8</ele>
        <time>2016-08-07T09:02:26Z</time>
      </trkpt>
      <trkpt lat="44.87356" lon="0.59443">
        <ele>142.3</ele>
        <time>2016-08-07T09:02:30Z</time>
      </trkpt>
      <trkpt lat="44.87356" lon="0.59431">
        <ele>143.5</ele>
        <time>2016-08-07T09:02:34Z</time>
      </trkpt>
      <trkpt lat="44.87353" lon="0.59407">
        <ele>142.9</ele>
        <time>2016-08-07T09:02:38Z</time>
      </trkpt>
      <trkpt lat="44.87351" lon="0.59383">
        <ele>143</ele>
        <time>2016-08-07T09:02:42Z</time>
      </trkpt>
      <trkpt lat="44.87349" lon="0.59363">
        <ele>143.4</ele>
        <time>2016-08-07T09:02:46Z</time>
      </trkpt>
      <trkpt lat="44.87346" lon="0.59342">
        <ele>143.3</ele>
        <time>2016-08-07T09:02:50Z</time>
      </trkpt>
      <trkpt lat="44.87343" lon="0.59317">
        <ele>143.3</ele>
        <time>2016-08-07T09:02:54Z</time>
      </trkpt>
      <trkpt lat="44.87344" lon="0.59299">
        <ele>143.5</ele>
        <time>2016-08-07T09:02:58Z</time>
      </trkpt>
      <trkpt lat="44.8734" lon="0.59278">
        <ele>143.5</ele>
        <time>2016-08-07T09:03:02Z</time>
      </trkpt>
      <trkpt lat="44.87339" lon="0.59259">
        <ele>143.3</ele>
        <time>2016-08-07T09:03:06Z</time>
      </trkpt>
      <trkpt lat="44.8733" lon="0.59237">
        <ele>143.3</ele>
        <time>2016-08-07T09:03:10Z</time>
      </trkpt>
      <trkpt lat="44.87328" lon="0.59218">
        <ele>144.2</ele>
        <time>2016-08-07T09:03:14Z</time>
      </trkpt>
      <trkpt lat="44.87325" lon="0.59197">
        <ele>142.9</ele>
        <time>2016-08-07T09:03:18Z</time>
      </trkpt>
      <trkpt lat="44.87322" lon="0.59181">
        <ele>143.8</ele>
        <time>2016-08-07T09:03:22Z</time>
      </trkpt>
      <trkpt lat="44.87318" lon="0.59159">
        <ele>145.4</ele>
        <time>2016-08-07T09:03:26Z</time>
      </trkpt>
      <trkpt lat="44.87307" lon="0.59132">
        <ele>144.8</ele>
        <time>2016-08-07T09:03:30Z</time>
      </trkpt>
      <trkpt lat="44.87295" lon="0.59101">
        <ele>146</ele>
        <time>2016-08-07T09:03:34Z</time>
      </trkpt>
      <trkpt lat="44.87289" lon="0.59083">
        <ele>146.2</ele>
        <time>2016-08-07T09:03:38Z</time>
      </trkpt>
      <trkpt lat="44.8728" lon="0.59059">
        <ele>146.2</ele>
        <time>2016-08-07T09:03:42Z</time>
      </trkpt>
      <trkpt lat="44.87269" lon="0.59036">
        <ele>146</ele>
        <time>2016-08-07T09:03:46Z</time>
      </trkpt>
      <trkpt lat="44.87258" lon="0.59013">
        <ele>145.5</ele>
        <time>2016-08-07T09:03:50Z</time>
      </trkpt>
      <trkpt lat="44.87248" lon="0.58989">
        <ele>146.5</ele>
        <time>2016-08-07T09:03:54Z</time>
      </trkpt>
      <trkpt lat="44.87236" lon="0.58963">
        <ele>146.3</ele>
        <time>2016-08-07T09:03:58Z</time>
      </trkpt>
      <trkpt lat="44.87226" lon="0.5894">
        <ele>147.4</ele>
        <time>2016-08-07T09:04:02Z</time>
      </trkpt>
      <trkpt lat="44.8722" lon="0.58914">
        <ele>146.2</ele>
        <time>2016-08-07T09:04:06Z</time>
      </trkpt>
      <trkpt lat="44.87213" lon="0.58886">
        <ele>144</ele>
        <time>2016-08-07T09:04:10Z</time>
      </trkpt>
      <trkpt lat="44.87216" lon="0.58862">
        <ele>141.9</ele>
        <time>2016-08-07T09:04:14Z</time>
      </trkpt>
      <trkpt lat="44.87218" lon="0.58824">
        <ele>138.6</ele>
        <time>2016-08-07T09:04:18Z</time>
      </trkpt>
      <trkpt lat="44.87214" lon="0.58792">
        <ele>138</ele>
        <time>2016-08-07T09:04:22Z</time>
      </trkpt>
      <trkpt lat="44.87203" lon="0.58745">
        <ele>138.7</ele>
        <time>2016-08-07T09:04:26Z</time>
      </trkpt>
      <trkpt lat="44.87201" lon="0.58713">
        <ele>138.7</ele>
        <time>2016-08-07T09:04:30Z</time>
      </trkpt>
      <trkpt lat="44.87191" lon="0.58687">
        <ele>141.5</ele>
        <time>2016-08-07T09:04:34Z</time>
      </trkpt>
      <trkpt lat="44.87174" lon="0.58674">
        <ele>141.5</ele>
        <time>2016-08-07T09:04:38Z</time>
      </trkpt>
      <trkpt lat="44.87152" lon="0.58661">
        <ele>139.6</ele>
        <time>2016-08-07T09:04:42Z</time>
      </trkpt>
      <trkpt lat="44.87126" lon="0.58644">
        <ele>137.7</ele>
        <time>2016-08-07T09:04:46Z</time>
      </trkpt>
      <trkpt lat="44.87097" lon="0.58625">
        <ele>136.5</ele>
        <time>2016-08-07T09:04:50Z</time>
      </trkpt>
      <trkpt lat="44.87068" lon="0.58605">
        <ele>136.5</ele>
        <time>2016-08-07T09:04:54Z</time>
      </trkpt>
      <trkpt lat="44.8704" lon="0.58584">
        <ele>134</ele>
        <time>2016-08-07T09:04:58Z</time>
      </trkpt>
      <trkpt lat="44.8701" lon="0.5857">
        <ele>132.8</ele>
        <time>2016-08-07T09:05:02Z</time>
      </trkpt>
      <trkpt lat="44.86978" lon="0.5857">
        <ele>132.8</ele>
        <time>2016-08-07T09:05:06Z</time>
      </trkpt>
      <trkpt lat="44.86945" lon="0.58578">
        <ele>131.5</ele>
        <time>2016-08-07T09:05:10Z</time>
      </trkpt>
      <trkpt lat="44.86914" lon="0.58588">
        <ele>129.1</ele>
        <time>2016-08-07T09:05:14Z</time>
      </trkpt>
      <trkpt lat="44.86885" lon="0.58597">
        <ele>128.1</ele>
        <time>2016-08-07T09:05:18Z</time>
      </trkpt>
      <trkpt lat="44.8686" lon="0.58606">
        <ele>128.7</ele>
        <time>2016-08-07T09:05:22Z</time>
      </trkpt>
      <trkpt lat="44.86851" lon="0.58589">
        <ele>130.4</ele>
        <time>2016-08-07T09:05:26Z</time>
      </trkpt>
      <trkpt lat="44.86849" lon="0.58567">
        <ele>130.6</ele>
        <time>2016-08-07T09:05:30Z</time>
      </trkpt>
      <trkpt lat="44.86849" lon="0.58546">
        <ele>131.6</ele>
        <time>2016-08-07T09:05:34Z</time>
      </trkpt>
      <trkpt lat="44.86849" lon="0.58525">
        <ele>132.5</ele>
        <time>2016-08-07T09:05:38Z</time>
      </trkpt>
      <trkpt lat="44.86848" lon="0.58506">
        <ele>133.4</ele>
        <time>2016-08-07T09:05:42Z</time>
      </trkpt>
      <trkpt lat="44.86847" lon="0.58486">
        <ele>134.5</ele>
        <time>2016-08-07T09:05:46Z</time>
      </trkpt>
      <trkpt lat="44.86846" lon="0.58467">
        <ele>135.5</ele>
        <time>2016-08-07T09:05:50Z</time>
      </trkpt>
      <trkpt lat="44.86845" lon="0.58447">
        <ele>136.6</ele>
        <time>2016-08-07T09:05:54Z</time>
      </trkpt>
      <trkpt lat="44.86844" lon="0.58428">
        <ele>137.5</ele>
        <time>2016-08-07T09:05:58Z</time>
      </trkpt>
      <trkpt lat="44.86843" lon="0.58409">
        <ele>138.4</ele>
        <time>2016-08-07T09:06:02Z</time>
      </trkpt>
      <trkpt lat="44.86842" lon="0.58391">
        <ele>139.6</ele>
        <time>2016-08-07T09:06:06Z</time>
      </trkpt>
      <trkpt lat="44.86842" lon="0.58373">
        <ele>140.7</ele>
        <time>2016-08-07T09:06:10Z</time>
      </trkpt>
      <trkpt lat="44.86841" lon="0.58356">
        <ele>141.2</ele>
        <time>2016-08-07T09:06:14Z</time>
      </trkpt>
      <trkpt lat="44.8684" lon="0.58338">
        <ele>141.2</ele>
        <time>2016-08-07T09:06:18Z</time>
      </trkpt>
      <trkpt lat="44.86839" lon="0.5832">
        <ele>143</ele>
        <time>2016-08-07T09:06:22Z</time>
      </trkpt>
      <trkpt lat="44.86839" lon="0.58302">
        <ele>143.1</ele>
        <time>2016-08-07T09:06:26Z</time>
      </trkpt>
      <trkpt lat="44.86838" lon="0.58283">
        <ele>143.6</ele>
        <time>2016-08-07T09:06:30Z</time>
      </trkpt>
      <trkpt lat="44.86837" lon="0.58262">
        <ele>143.6</ele>
        <time>2016-08-07T09:06:34Z</time>
      </trkpt>
      <trkpt lat="44.86836" lon="0.5824">
        <ele>144</ele>
        <time>2016-08-07T09:06:38Z</time>
      </trkpt>
      <trkpt lat="44.86834" lon="0.58218">
        <ele>144.2</ele>
        <time>2016-08-07T09:06:42Z</time>
      </trkpt>
      <trkpt lat="44.86832" lon="0.58193">
        <ele>144.6</ele>
        <time>2016-08-07T09:06:46Z</time>
      </trkpt>
      <trkpt lat="44.86828" lon="0.58167">
        <ele>144.8</ele>
        <time>2016-08-07T09:06:50Z</time>
      </trkpt>
      <trkpt lat="44.86823" lon="0.58139">
        <ele>143.9</ele>
        <time>2016-08-07T09:06:54Z</time>
      </trkpt>
      <trkpt lat="44.86816" lon="0.5811">
        <ele>144.2</ele>
        <time>2016-08-07T09:06:58Z</time>
      </trkpt>
      <trkpt lat="44.8681" lon="0.5808">
        <ele>143.5</ele>
        <time>2016-08-07T09:07:02Z</time>
      </trkpt>
      <trkpt lat="44.86804" lon="0.58052">
        <ele>143.3</ele>
        <time>2016-08-07T09:07:06Z</time>
      </trkpt>
      <trkpt lat="44.86798" lon="0.58024">
        <ele>143.6</ele>
        <time>2016-08-07T09:07:10Z</time>
      </trkpt>
      <trkpt lat="44.86797" lon="0.57996">
        <ele>143.6</ele>
        <time>2016-08-07T09:07:14Z</time>
      </trkpt>
      <trkpt lat="44.86802" lon="0.57975">
        <ele>143.6</ele>
        <time>2016-08-07T09:07:18Z</time>
      </trkpt>
      <trkpt lat="44.86807" lon="0.57955">
        <ele>143.6</ele>
        <time>2016-08-07T09:07:22Z</time>
      </trkpt>
      <trkpt lat="44.86811" lon="0.57936">
        <ele>144.8</ele>
        <time>2016-08-07T09:07:26Z</time>
      </trkpt>
      <trkpt lat="44.86815" lon="0.57918">
        <ele>146.1</ele>
        <time>2016-08-07T09:07:30Z</time>
      </trkpt>
      <trkpt lat="44.86819" lon="0.579">
        <ele>146.1</ele>
        <time>2016-08-07T09:07:34Z</time>
      </trkpt>
      <trkpt lat="44.86823" lon="0.57882">
        <ele>146.1</ele>
        <time>2016-08-07T09:07:38Z</time>
      </trkpt>
      <trkpt lat="44.86827" lon="0.57865">
        <ele>147.3</ele>
        <time>2016-08-07T09:07:42Z</time>
      </trkpt>
      <trkpt lat="44.86831" lon="0.57847">
        <ele>147.1</ele>
        <time>2016-08-07T09:07:46Z</time>
      </trkpt>
      <trkpt lat="44.86835" lon="0.57829">
        <ele>147.2</ele>
        <time>2016-08-07T09:07:50Z</time>
      </trkpt>
      <trkpt lat="44.86838" lon="0.57813">
        <ele>147.2</ele>
        <time>2016-08-07T09:07:54Z</time>
      </trkpt>
      <trkpt lat="44.86842" lon="0.57797">
        <ele>150.5</ele>
        <time>2016-08-07T09:07:58Z</time>
      </trkpt>
      <trkpt lat="44.86845" lon="0.57782">
        <ele>150.5</ele>
        <time>2016-08-07T09:08:02Z</time>
      </trkpt>
      <trkpt lat="44.86848" lon="0.57766">
        <ele>151.6</ele>
        <time>2016-08-07T09:08:06Z</time>
      </trkpt>
      <trkpt lat="44.86852" lon="0.57751">
        <ele>151.7</ele>
        <time>2016-08-07T09:08:10Z</time>
      </trkpt>
      <trkpt lat="44.86855" lon="0.57735">
        <ele>153</ele>
        <time>2016-08-07T09:08:14Z</time>
      </trkpt>
      <trkpt lat="44.86855" lon="0.5772">
        <ele>154.2</ele>
        <time>2016-08-07T09:08:18Z</time>
      </trkpt>
      <trkpt lat="44.86847" lon="0.57709">
        <ele>153.7</ele>
        <time>2016-08-07T09:08:22Z</time>
      </trkpt>
      <trkpt lat="44.86837" lon="0.57695">
        <ele>154.9</ele>
        <time>2016-08-07T09:08:26Z</time>
      </trkpt>
      <trkpt lat="44.86826" lon="0.57683">
        <ele>154.5</ele>
        <time>2016-08-07T09:08:30Z</time>
      </trkpt>
      <trkpt lat="44.86816" lon="0.5767">
        <ele>154.6</ele>
        <time>2016-08-07T09:08:34Z</time>
      </trkpt>
      <trkpt lat="44.86805" lon="0.57656">
        <ele>154.1</ele>
        <time>2016-08-07T09:08:38Z</time>
      </trkpt>
      <trkpt lat="44.86795" lon="0.57641">
        <ele>152.1</ele>
        <time>2016-08-07T09:08:42Z</time>
      </trkpt>
      <trkpt lat="44.86786" lon="0.57628">
        <ele>153.5</ele>
        <time>2016-08-07T09:08:46Z</time>
      </trkpt>
      <trkpt lat="44.86778" lon="0.57615">
        <ele>152.9</ele>
        <time>2016-08-07T09:08:50Z</time>
      </trkpt>
      <trkpt lat="44.86771" lon="0.576">
        <ele>154.3</ele>
        <time>2016-08-07T09:08:54Z</time>
      </trkpt>
      <trkpt lat="44.86764" lon="0.57587">
        <ele>155.8</ele>
        <time>2016-08-07T09:08:58Z</time>
      </trkpt>
      <trkpt lat="44.86765" lon="0.57573">
        <ele>156</ele>
        <time>2016-08-07T09:09:02Z</time>
      </trkpt>
      <trkpt lat="44.86768" lon="0.57563">
        <ele>155.5</ele>
        <time>2016-08-07T09:09:06Z</time>
      </trkpt>
      <trkpt lat="44.86769" lon="0.57556">
        <ele>155.4</ele>
        <time>2016-08-07T09:09:10Z</time>
      </trkpt>
      <trkpt lat="44.86769" lon="0.57553">
        <ele>155.5</ele>
        <time>2016-08-07T09:09:14Z</time>
      </trkpt>
      <trkpt lat="44.86769" lon="0.57552">
        <ele>155.2</ele>
        <time>2016-08-07T09:09:18Z</time>
      </trkpt>
      <trkpt lat="44.86768" lon="0.57547">
        <ele>155.4</ele>
        <time>2016-08-07T09:09:22Z</time>
      </trkpt>
      <trkpt lat="44.86767" lon="0.57547">
        <ele>155.5</ele>
        <time>2016-08-07T09:09:26Z</time>
      </trkpt>
      <trkpt lat="44.86772" lon="0.57536">
        <ele>155.4</ele>
        <time>2016-08-07T09:15:22Z</time>
      </trkpt>
      <trkpt lat="44.86775" lon="0.57519">
        <ele>154.7</ele>
        <time>2016-08-07T09:15:26Z</time>
      </trkpt>
      <trkpt lat="44.8678" lon="0.57496">
        <ele>152.9</ele>
        <time>2016-08-07T09:15:30Z</time>
      </trkpt>
      <trkpt lat="44.86787" lon="0.57468">
        <ele>151.5</ele>
        <time>2016-08-07T09:15:34Z</time>
      </trkpt>
      <trkpt lat="44.86793" lon="0.57438">
        <ele>150.6</ele>
        <time>2016-08-07T09:15:38Z</time>
      </trkpt>
      <trkpt lat="44.86801" lon="0.57403">
        <ele>146.8</ele>
        <time>2016-08-07T09:15:42Z</time>
      </trkpt>
      <trkpt lat="44.86801" lon="0.57364">
        <ele>142.4</ele>
        <time>2016-08-07T09:15:46Z</time>
      </trkpt>
      <trkpt lat="44.86797" lon="0.57333">
        <ele>140.8</ele>
        <time>2016-08-07T09:15:50Z</time>
      </trkpt>
      <trkpt lat="44.86781" lon="0.57326">
        <ele>138.6</ele>
        <time>2016-08-07T09:15:54Z</time>
      </trkpt>
      <trkpt lat="44.86764" lon="0.57321">
        <ele>139.7</ele>
        <time>2016-08-07T09:15:58Z</time>
      </trkpt>
      <trkpt lat="44.86747" lon="0.57317">
        <ele>140.3</ele>
        <time>2016-08-07T09:16:02Z</time>
      </trkpt>
      <trkpt lat="44.86732" lon="0.57314">
        <ele>141.2</ele>
        <time>2016-08-07T09:16:06Z</time>
      </trkpt>
      <trkpt lat="44.86719" lon="0.573">
        <ele>140.9</ele>
        <time>2016-08-07T09:16:10Z</time>
      </trkpt>
      <trkpt lat="44.86723" lon="0.57285">
        <ele>140.9</ele>
        <time>2016-08-07T09:16:14Z</time>
      </trkpt>
      <trkpt lat="44.8673" lon="0.57285">
        <ele>139.9</ele>
        <time>2016-08-07T09:16:18Z</time>
      </trkpt>
      <trkpt lat="44.86743" lon="0.5727">
        <ele>139.1</ele>
        <time>2016-08-07T09:16:22Z</time>
      </trkpt>
      <trkpt lat="44.86748" lon="0.57251">
        <ele>137.9</ele>
        <time>2016-08-07T09:16:26Z</time>
      </trkpt>
      <trkpt lat="44.86744" lon="0.57237">
        <ele>137.2</ele>
        <time>2016-08-07T09:16:30Z</time>
      </trkpt>
      <trkpt lat="44.86738" lon="0.57214">
        <ele>136.8</ele>
        <time>2016-08-07T09:16:34Z</time>
      </trkpt>
      <trkpt lat="44.86732" lon="0.57191">
        <ele>135.6</ele>
        <time>2016-08-07T09:16:38Z</time>
      </trkpt>
      <trkpt lat="44.86722" lon="0.57161">
        <ele>134.2</ele>
        <time>2016-08-07T09:16:42Z</time>
      </trkpt>
      <trkpt lat="44.86727" lon="0.57136">
        <ele>131.6</ele>
        <time>2016-08-07T09:16:46Z</time>
      </trkpt>
      <trkpt lat="44.86735" lon="0.57123">
        <ele>131.6</ele>
        <time>2016-08-07T09:16:50Z</time>
      </trkpt>
      <trkpt lat="44.86747" lon="0.57113">
        <ele>132.6</ele>
        <time>2016-08-07T09:16:54Z</time>
      </trkpt>
      <trkpt lat="44.86764" lon="0.57104">
        <ele>130.7</ele>
        <time>2016-08-07T09:16:58Z</time>
      </trkpt>
      <trkpt lat="44.86783" lon="0.57095">
        <ele>132.1</ele>
        <time>2016-08-07T09:17:02Z</time>
      </trkpt>
      <trkpt lat="44.86806" lon="0.57089">
        <ele>130.9</ele>
        <time>2016-08-07T09:17:06Z</time>
      </trkpt>
      <trkpt lat="44.86825" lon="0.57082">
        <ele>129.6</ele>
        <time>2016-08-07T09:17:10Z</time>
      </trkpt>
      <trkpt lat="44.86842" lon="0.57076">
        <ele>129</ele>
        <time>2016-08-07T09:17:14Z</time>
      </trkpt>
      <trkpt lat="44.86864" lon="0.57072">
        <ele>127.6</ele>
        <time>2016-08-07T09:17:18Z</time>
      </trkpt>
      <trkpt lat="44.86889" lon="0.57066">
        <ele>126.2</ele>
        <time>2016-08-07T09:17:22Z</time>
      </trkpt>
      <trkpt lat="44.86912" lon="0.57059">
        <ele>123.5</ele>
        <time>2016-08-07T09:17:26Z</time>
      </trkpt>
      <trkpt lat="44.86932" lon="0.57054">
        <ele>123.4</ele>
        <time>2016-08-07T09:17:30Z</time>
      </trkpt>
      <trkpt lat="44.86948" lon="0.5705">
        <ele>124.4</ele>
        <time>2016-08-07T09:17:34Z</time>
      </trkpt>
      <trkpt lat="44.86967" lon="0.57045">
        <ele>125.2</ele>
        <time>2016-08-07T09:17:38Z</time>
      </trkpt>
      <trkpt lat="44.86991" lon="0.57039">
        <ele>124.2</ele>
        <time>2016-08-07T09:17:42Z</time>
      </trkpt>
      <trkpt lat="44.87006" lon="0.5703">
        <ele>123.9</ele>
        <time>2016-08-07T09:17:46Z</time>
      </trkpt>
      <trkpt lat="44.87002" lon="0.5701">
        <ele>122.9</ele>
        <time>2016-08-07T09:17:50Z</time>
      </trkpt>
      <trkpt lat="44.86994" lon="0.56987">
        <ele>121.8</ele>
        <time>2016-08-07T09:17:54Z</time>
      </trkpt>
      <trkpt lat="44.86986" lon="0.56964">
        <ele>122.9</ele>
        <time>2016-08-07T09:17:58Z</time>
      </trkpt>
      <trkpt lat="44.86976" lon="0.56938">
        <ele>122.9</ele>
        <time>2016-08-07T09:18:02Z</time>
      </trkpt>
      <trkpt lat="44.86965" lon="0.5691">
        <ele>120.1</ele>
        <time>2016-08-07T09:18:06Z</time>
      </trkpt>
      <trkpt lat="44.86954" lon="0.56881">
        <ele>117.4</ele>
        <time>2016-08-07T09:18:10Z</time>
      </trkpt>
      <trkpt lat="44.86944" lon="0.5686">
        <ele>117.4</ele>
        <time>2016-08-07T09:18:14Z</time>
      </trkpt>
      <trkpt lat="44.86936" lon="0.56841">
        <ele>118.2</ele>
        <time>2016-08-07T09:18:18Z</time>
      </trkpt>
      <trkpt lat="44.86923" lon="0.56823">
        <ele>118.5</ele>
        <time>2016-08-07T09:18:22Z</time>
      </trkpt>
      <trkpt lat="44.86909" lon="0.56798">
        <ele>118.1</ele>
        <time>2016-08-07T09:18:26Z</time>
      </trkpt>
      <trkpt lat="44.86894" lon="0.56776">
        <ele>117</ele>
        <time>2016-08-07T09:18:30Z</time>
      </trkpt>
      <trkpt lat="44.86879" lon="0.56753">
        <ele>116.2</ele>
        <time>2016-08-07T09:18:34Z</time>
      </trkpt>
      <trkpt lat="44.86864" lon="0.56728">
        <ele>117</ele>
        <time>2016-08-07T09:18:38Z</time>
      </trkpt>
      <trkpt lat="44.86846" lon="0.56703">
        <ele>117</ele>
        <time>2016-08-07T09:18:42Z</time>
      </trkpt>
      <trkpt lat="44.86829" lon="0.5668">
        <ele>117.4</ele>
        <time>2016-08-07T09:18:46Z</time>
      </trkpt>
      <trkpt lat="44.86814" lon="0.56657">
        <ele>117.4</ele>
        <time>2016-08-07T09:18:50Z</time>
      </trkpt>
      <trkpt lat="44.86801" lon="0.56638">
        <ele>118.2</ele>
        <time>2016-08-07T09:18:54Z</time>
      </trkpt>
      <trkpt lat="44.86788" lon="0.56618">
        <ele>118.6</ele>
        <time>2016-08-07T09:18:58Z</time>
      </trkpt>
      <trkpt lat="44.86775" lon="0.566">
        <ele>119.3</ele>
        <time>2016-08-07T09:19:02Z</time>
      </trkpt>
      <trkpt lat="44.86762" lon="0.5658">
        <ele>118.1</ele>
        <time>2016-08-07T09:19:06Z</time>
      </trkpt>
      <trkpt lat="44.86756" lon="0.56556">
        <ele>117.1</ele>
        <time>2016-08-07T09:19:10Z</time>
      </trkpt>
      <trkpt lat="44.86767" lon="0.56545">
        <ele>117.1</ele>
        <time>2016-08-07T09:19:14Z</time>
      </trkpt>
      <trkpt lat="44.86781" lon="0.56536">
        <ele>118.2</ele>
        <time>2016-08-07T09:19:18Z</time>
      </trkpt>
      <trkpt lat="44.86795" lon="0.56527">
        <ele>118.2</ele>
        <time>2016-08-07T09:19:22Z</time>
      </trkpt>
      <trkpt lat="44.86802" lon="0.5651">
        <ele>117.1</ele>
        <time>2016-08-07T09:19:26Z</time>
      </trkpt>
      <trkpt lat="44.8681" lon="0.56495">
        <ele>117.7</ele>
        <time>2016-08-07T09:19:30Z</time>
      </trkpt>
      <trkpt lat="44.86821" lon="0.56479">
        <ele>119</ele>
        <time>2016-08-07T09:19:34Z</time>
      </trkpt>
      <trkpt lat="44.86831" lon="0.56462">
        <ele>119.7</ele>
        <time>2016-08-07T09:19:38Z</time>
      </trkpt>
      <trkpt lat="44.86833" lon="0.56444">
        <ele>120</ele>
        <time>2016-08-07T09:19:42Z</time>
      </trkpt>
      <trkpt lat="44.86821" lon="0.56429">
        <ele>119.5</ele>
        <time>2016-08-07T09:19:46Z</time>
      </trkpt>
      <trkpt lat="44.86809" lon="0.56413">
        <ele>120.6</ele>
        <time>2016-08-07T09:19:50Z</time>
      </trkpt>
      <trkpt lat="44.86798" lon="0.56396">
        <ele>120.6</ele>
        <time>2016-08-07T09:19:54Z</time>
      </trkpt>
      <trkpt lat="44.86786" lon="0.56381">
        <ele>121.4</ele>
        <time>2016-08-07T09:19:58Z</time>
      </trkpt>
      <trkpt lat="44.86775" lon="0.56366">
        <ele>122.5</ele>
        <time>2016-08-07T09:20:02Z</time>
      </trkpt>
      <trkpt lat="44.86762" lon="0.56351">
        <ele>122.5</ele>
        <time>2016-08-07T09:20:06Z</time>
      </trkpt>
      <trkpt lat="44.8675" lon="0.56336">
        <ele>122.1</ele>
        <time>2016-08-07T09:20:10Z</time>
      </trkpt>
      <trkpt lat="44.86736" lon="0.56327">
        <ele>123</ele>
        <time>2016-08-07T09:20:14Z</time>
      </trkpt>
      <trkpt lat="44.86727" lon="0.56342">
        <ele>122.2</ele>
        <time>2016-08-07T09:20:18Z</time>
      </trkpt>
      <trkpt lat="44.86716" lon="0.56357">
        <ele>119.3</ele>
        <time>2016-08-07T09:20:22Z</time>
      </trkpt>
      <trkpt lat="44.86708" lon="0.5636">
        <ele>118.1</ele>
        <time>2016-08-07T09:20:26Z</time>
      </trkpt>
      <trkpt lat="44.86699" lon="0.56363">
        <ele>117.4</ele>
        <time>2016-08-07T09:20:30Z</time>
      </trkpt>
      <trkpt lat="44.86686" lon="0.56363">
        <ele>115</ele>
        <time>2016-08-07T09:20:34Z</time>
      </trkpt>
      <trkpt lat="44.86678" lon="0.56371">
        <ele>115</ele>
        <time>2016-08-07T09:20:38Z</time>
      </trkpt>
      <trkpt lat="44.8667" lon="0.56374">
        <ele>113.2</ele>
        <time>2016-08-07T09:20:42Z</time>
      </trkpt>
      <trkpt lat="44.86655" lon="0.56385">
        <ele>112.6</ele>
        <time>2016-08-07T09:20:46Z</time>
      </trkpt>
      <trkpt lat="44.86642" lon="0.56389">
        <ele>110.3</ele>
        <time>2016-08-07T09:20:50Z</time>
      </trkpt>
      <trkpt lat="44.86628" lon="0.56394">
        <ele>108.8</ele>
        <time>2016-08-07T09:20:54Z</time>
      </trkpt>
      <trkpt lat="44.86619" lon="0.56397">
        <ele>108.8</ele>
        <time>2016-08-07T09:20:58Z</time>
      </trkpt>
      <trkpt lat="44.86614" lon="0.5641">
        <ele>108.8</ele>
        <time>2016-08-07T09:21:02Z</time>
      </trkpt>
      <trkpt lat="44.86605" lon="0.56423">
        <ele>108.3</ele>
        <time>2016-08-07T09:21:06Z</time>
      </trkpt>
      <trkpt lat="44.86595" lon="0.56432">
        <ele>109.3</ele>
        <time>2016-08-07T09:21:10Z</time>
      </trkpt>
      <trkpt lat="44.86587" lon="0.56435">
        <ele>109.9</ele>
        <time>2016-08-07T09:21:14Z</time>
      </trkpt>
      <trkpt lat="44.86576" lon="0.56434">
        <ele>109.9</ele>
        <time>2016-08-07T09:21:18Z</time>
      </trkpt>
      <trkpt lat="44.86559" lon="0.56436">
        <ele>109.1</ele>
        <time>2016-08-07T09:21:22Z</time>
      </trkpt>
      <trkpt lat="44.86549" lon="0.56436">
        <ele>110.3</ele>
        <time>2016-08-07T09:21:26Z</time>
      </trkpt>
      <trkpt lat="44.86544" lon="0.56432">
        <ele>108.9</ele>
        <time>2016-08-07T09:21:30Z</time>
      </trkpt>
      <trkpt lat="44.86535" lon="0.56428">
        <ele>108.8</ele>
        <time>2016-08-07T09:21:34Z</time>
      </trkpt>
      <trkpt lat="44.86528" lon="0.56421">
        <ele>110.5</ele>
        <time>2016-08-07T09:21:38Z</time>
      </trkpt>
      <trkpt lat="44.86527" lon="0.56408">
        <ele>109.3</ele>
        <time>2016-08-07T09:21:42Z</time>
      </trkpt>
      <trkpt lat="44.86524" lon="0.56391">
        <ele>108.1</ele>
        <time>2016-08-07T09:21:46Z</time>
      </trkpt>
      <trkpt lat="44.86524" lon="0.56374">
        <ele>109.2</ele>
        <time>2016-08-07T09:21:50Z</time>
      </trkpt>
      <trkpt lat="44.86519" lon="0.56361">
        <ele>110.3</ele>
        <time>2016-08-07T09:21:54Z</time>
      </trkpt>
      <trkpt lat="44.86511" lon="0.56346">
        <ele>111.4</ele>
        <time>2016-08-07T09:21:58Z</time>
      </trkpt>
      <trkpt lat="44.865" lon="0.56335">
        <ele>110.3</ele>
        <time>2016-08-07T09:22:02Z</time>
      </trkpt>
      <trkpt lat="44.86486" lon="0.56326">
        <ele>111.3</ele>
        <time>2016-08-07T09:22:06Z</time>
      </trkpt>
      <trkpt lat="44.86476" lon="0.56317">
        <ele>112.4</ele>
        <time>2016-08-07T09:22:10Z</time>
      </trkpt>
      <trkpt lat="44.86468" lon="0.56302">
        <ele>112.6</ele>
        <time>2016-08-07T09:22:14Z</time>
      </trkpt>
      <trkpt lat="44.8646" lon="0.56286">
        <ele>112.6</ele>
        <time>2016-08-07T09:22:18Z</time>
      </trkpt>
      <trkpt lat="44.86453" lon="0.56272">
        <ele>113.8</ele>
        <time>2016-08-07T09:22:22Z</time>
      </trkpt>
      <trkpt lat="44.86448" lon="0.56252">
        <ele>113.6</ele>
        <time>2016-08-07T09:22:26Z</time>
      </trkpt>
      <trkpt lat="44.86444" lon="0.56237">
        <ele>114.8</ele>
        <time>2016-08-07T09:22:30Z</time>
      </trkpt>
      <trkpt lat="44.86439" lon="0.56219">
        <ele>115.9</ele>
        <time>2016-08-07T09:22:34Z</time>
      </trkpt>
      <trkpt lat="44.86436" lon="0.56203">
        <ele>115.9</ele>
        <time>2016-08-07T09:22:38Z</time>
      </trkpt>
      <trkpt lat="44.86436" lon="0.56186">
        <ele>115.9</ele>
        <time>2016-08-07T09:22:42Z</time>
      </trkpt>
      <trkpt lat="44.86432" lon="0.56176">
        <ele>116.9</ele>
        <time>2016-08-07T09:22:46Z</time>
      </trkpt>
      <trkpt lat="44.86424" lon="0.56166">
        <ele>118</ele>
        <time>2016-08-07T09:22:50Z</time>
      </trkpt>
      <trkpt lat="44.86418" lon="0.56155">
        <ele>118</ele>
        <time>2016-08-07T09:22:54Z</time>
      </trkpt>
      <trkpt lat="44.86416" lon="0.56143">
        <ele>119.2</ele>
        <time>2016-08-07T09:22:58Z</time>
      </trkpt>
      <trkpt lat="44.86413" lon="0.56131">
        <ele>120.4</ele>
        <time>2016-08-07T09:23:02Z</time>
      </trkpt>
      <trkpt lat="44.86414" lon="0.5612">
        <ele>121.6</ele>
        <time>2016-08-07T09:23:06Z</time>
      </trkpt>
      <trkpt lat="44.86408" lon="0.56107">
        <ele>121.6</ele>
        <time>2016-08-07T09:23:10Z</time>
      </trkpt>
      <trkpt lat="44.86404" lon="0.56094">
        <ele>122.8</ele>
        <time>2016-08-07T09:23:14Z</time>
      </trkpt>
      <trkpt lat="44.86404" lon="0.56079">
        <ele>123.2</ele>
        <time>2016-08-07T09:23:18Z</time>
      </trkpt>
      <trkpt lat="44.86403" lon="0.56065">
        <ele>123.2</ele>
        <time>2016-08-07T09:23:22Z</time>
      </trkpt>
      <trkpt lat="44.86403" lon="0.5605">
        <ele>123.7</ele>
        <time>2016-08-07T09:23:26Z</time>
      </trkpt>
      <trkpt lat="44.86403" lon="0.56035">
        <ele>124.7</ele>
        <time>2016-08-07T09:23:30Z</time>
      </trkpt>
      <trkpt lat="44.86404" lon="0.56018">
        <ele>124.7</ele>
        <time>2016-08-07T09:23:34Z</time>
      </trkpt>
      <trkpt lat="44.86406" lon="0.56001">
        <ele>124.4</ele>
        <time>2016-08-07T09:23:38Z</time>
      </trkpt>
      <trkpt lat="44.86412" lon="0.55985">
        <ele>124.4</ele>
        <time>2016-08-07T09:23:42Z</time>
      </trkpt>
      <trkpt lat="44.86422" lon="0.55966">
        <ele>123.9</ele>
        <time>2016-08-07T09:23:46Z</time>
      </trkpt>
      <trkpt lat="44.86433" lon="0.55947">
        <ele>122.8</ele>
        <time>2016-08-07T09:23:50Z</time>
      </trkpt>
      <trkpt lat="44.86442" lon="0.55924">
        <ele>122.1</ele>
        <time>2016-08-07T09:23:54Z</time>
      </trkpt>
      <trkpt lat="44.8645" lon="0.55898">
        <ele>121.7</ele>
        <time>2016-08-07T09:23:58Z</time>
      </trkpt>
      <trkpt lat="44.86455" lon="0.55873">
        <ele>121.9</ele>
        <time>2016-08-07T09:24:02Z</time>
      </trkpt>
      <trkpt lat="44.86459" lon="0.55849">
        <ele>121.9</ele>
        <time>2016-08-07T09:24:06Z</time>
      </trkpt>
      <trkpt lat="44.86463" lon="0.55831">
        <ele>121.9</ele>
        <time>2016-08-07T09:24:10Z</time>
      </trkpt>
      <trkpt lat="44.86467" lon="0.55811">
        <ele>120.3</ele>
        <time>2016-08-07T09:24:14Z</time>
      </trkpt>
      <trkpt lat="44.86473" lon="0.55791">
        <ele>119.7</ele>
        <time>2016-08-07T09:24:18Z</time>
      </trkpt>
      <trkpt lat="44.86478" lon="0.55767">
        <ele>118.6</ele>
        <time>2016-08-07T09:24:22Z</time>
      </trkpt>
      <trkpt lat="44.8648" lon="0.55742">
        <ele>117.6</ele>
        <time>2016-08-07T09:24:26Z</time>
      </trkpt>
      <trkpt lat="44.86482" lon="0.55707">
        <ele>115</ele>
        <time>2016-08-07T09:24:30Z</time>
      </trkpt>
      <trkpt lat="44.86484" lon="0.55668">
        <ele>114.2</ele>
        <time>2016-08-07T09:24:34Z</time>
      </trkpt>
      <trkpt lat="44.86472" lon="0.55623">
        <ele>113.7</ele>
        <time>2016-08-07T09:24:38Z</time>
      </trkpt>
      <trkpt lat="44.8646" lon="0.5559">
        <ele>113.4</ele>
        <time>2016-08-07T09:24:42Z</time>
      </trkpt>
      <trkpt lat="44.86442" lon="0.55562">
        <ele>110.9</ele>
        <time>2016-08-07T09:24:46Z</time>
      </trkpt>
      <trkpt lat="44.86418" lon="0.55531">
        <ele>109.4</ele>
        <time>2016-08-07T09:24:50Z</time>
      </trkpt>
      <trkpt lat="44.8639" lon="0.55504">
        <ele>107.9</ele>
        <time>2016-08-07T09:24:54Z</time>
      </trkpt>
      <trkpt lat="44.86361" lon="0.55483">
        <ele>108.8</ele>
        <time>2016-08-07T09:24:58Z</time>
      </trkpt>
      <trkpt lat="44.86337" lon="0.55456">
        <ele>107.8</ele>
        <time>2016-08-07T09:25:02Z</time>
      </trkpt>
      <trkpt lat="44.86315" lon="0.55446">
        <ele>106.9</ele>
        <time>2016-08-07T09:25:06Z</time>
      </trkpt>
      <trkpt lat="44.86292" lon="0.55435">
        <ele>103.4</ele>
        <time>2016-08-07T09:25:10Z</time>
      </trkpt>
      <trkpt lat="44.86271" lon="0.55422">
        <ele>103.4</ele>
        <time>2016-08-07T09:25:14Z</time>
      </trkpt>
      <trkpt lat="44.8625" lon="0.55404">
        <ele>103.6</ele>
        <time>2016-08-07T09:25:18Z</time>
      </trkpt>
      <trkpt lat="44.86232" lon="0.55381">
        <ele>101</ele>
        <time>2016-08-07T09:25:22Z</time>
      </trkpt>
      <trkpt lat="44.86208" lon="0.55355">
        <ele>99.8</ele>
        <time>2016-08-07T09:25:26Z</time>
      </trkpt>
      <trkpt lat="44.86199" lon="0.55317">
        <ele>99.7</ele>
        <time>2016-08-07T09:25:30Z</time>
      </trkpt>
      <trkpt lat="44.86193" lon="0.55286">
        <ele>100.7</ele>
        <time>2016-08-07T09:25:34Z</time>
      </trkpt>
      <trkpt lat="44.86185" lon="0.55257">
        <ele>100.7</ele>
        <time>2016-08-07T09:25:38Z</time>
      </trkpt>
      <trkpt lat="44.86176" lon="0.5523">
        <ele>100.1</ele>
        <time>2016-08-07T09:25:42Z</time>
      </trkpt>
      <trkpt lat="44.86163" lon="0.55211">
        <ele>101.1</ele>
        <time>2016-08-07T09:25:46Z</time>
      </trkpt>
      <trkpt lat="44.86146" lon="0.55195">
        <ele>102.5</ele>
        <time>2016-08-07T09:25:50Z</time>
      </trkpt>
      <trkpt lat="44.86129" lon="0.55184">
        <ele>103</ele>
        <time>2016-08-07T09:25:54Z</time>
      </trkpt>
      <trkpt lat="44.86116" lon="0.55174">
        <ele>103.8</ele>
        <time>2016-08-07T09:25:58Z</time>
      </trkpt>
      <trkpt lat="44.86103" lon="0.55158">
        <ele>103.8</ele>
        <time>2016-08-07T09:26:02Z</time>
      </trkpt>
      <trkpt lat="44.86093" lon="0.55138">
        <ele>103.8</ele>
        <time>2016-08-07T09:26:06Z</time>
      </trkpt>
      <trkpt lat="44.86078" lon="0.5512">
        <ele>103.2</ele>
        <time>2016-08-07T09:26:10Z</time>
      </trkpt>
      <trkpt lat="44.86063" lon="0.55095">
        <ele>103.2</ele>
        <time>2016-08-07T09:26:14Z</time>
      </trkpt>
      <trkpt lat="44.86045" lon="0.55076">
        <ele>101.5</ele>
        <time>2016-08-07T09:26:18Z</time>
      </trkpt>
      <trkpt lat="44.86024" lon="0.55063">
        <ele>102.6</ele>
        <time>2016-08-07T09:26:22Z</time>
      </trkpt>
      <trkpt lat="44.85996" lon="0.55055">
        <ele>101.8</ele>
        <time>2016-08-07T09:26:26Z</time>
      </trkpt>
      <trkpt lat="44.85965" lon="0.55047">
        <ele>101.8</ele>
        <time>2016-08-07T09:26:30Z</time>
      </trkpt>
      <trkpt lat="44.85935" lon="0.55042">
        <ele>100.3</ele>
        <time>2016-08-07T09:26:34Z</time>
      </trkpt>
      <trkpt lat="44.85904" lon="0.5504">
        <ele>99.3</ele>
        <time>2016-08-07T09:26:38Z</time>
      </trkpt>
      <trkpt lat="44.85873" lon="0.55037">
        <ele>98.6</ele>
        <time>2016-08-07T09:26:42Z</time>
      </trkpt>
      <trkpt lat="44.85843" lon="0.55034">
        <ele>97</ele>
        <time>2016-08-07T09:26:46Z</time>
      </trkpt>
      <trkpt lat="44.85813" lon="0.5503">
        <ele>96.8</ele>
        <time>2016-08-07T09:26:50Z</time>
      </trkpt>
      <trkpt lat="44.8578" lon="0.55027">
        <ele>94.7</ele>
        <time>2016-08-07T09:26:54Z</time>
      </trkpt>
      <trkpt lat="44.85747" lon="0.55024">
        <ele>94.6</ele>
        <time>2016-08-07T09:26:58Z</time>
      </trkpt>
      <trkpt lat="44.85717" lon="0.5502">
        <ele>94.6</ele>
        <time>2016-08-07T09:27:02Z</time>
      </trkpt>
      <trkpt lat="44.85689" lon="0.55017">
        <ele>93.9</ele>
        <time>2016-08-07T09:27:06Z</time>
      </trkpt>
      <trkpt lat="44.85664" lon="0.55014">
        <ele>93.9</ele>
        <time>2016-08-07T09:27:10Z</time>
      </trkpt>
      <trkpt lat="44.85641" lon="0.55011">
        <ele>93.6</ele>
        <time>2016-08-07T09:27:14Z</time>
      </trkpt>
      <trkpt lat="44.85623" lon="0.54997">
        <ele>94.2</ele>
        <time>2016-08-07T09:27:18Z</time>
      </trkpt>
      <trkpt lat="44.85621" lon="0.54969">
        <ele>94.2</ele>
        <time>2016-08-07T09:27:22Z</time>
      </trkpt>
      <trkpt lat="44.85625" lon="0.5494">
        <ele>94.2</ele>
        <time>2016-08-07T09:27:26Z</time>
      </trkpt>
      <trkpt lat="44.8563" lon="0.54914">
        <ele>94.2</ele>
        <time>2016-08-07T09:27:30Z</time>
      </trkpt>
      <trkpt lat="44.8564" lon="0.54886">
        <ele>93.7</ele>
        <time>2016-08-07T09:27:34Z</time>
      </trkpt>
      <trkpt lat="44.85654" lon="0.54857">
        <ele>93.7</ele>
        <time>2016-08-07T09:27:38Z</time>
      </trkpt>
      <trkpt lat="44.85671" lon="0.54832">
        <ele>93.7</ele>
        <time>2016-08-07T09:27:42Z</time>
      </trkpt>
      <trkpt lat="44.8569" lon="0.5481">
        <ele>91.7</ele>
        <time>2016-08-07T09:27:46Z</time>
      </trkpt>
      <trkpt lat="44.85708" lon="0.54789">
        <ele>90.5</ele>
        <time>2016-08-07T09:27:50Z</time>
      </trkpt>
      <trkpt lat="44.8572" lon="0.54764">
        <ele>90.7</ele>
        <time>2016-08-07T09:27:54Z</time>
      </trkpt>
      <trkpt lat="44.85718" lon="0.54747">
        <ele>90.9</ele>
        <time>2016-08-07T09:27:58Z</time>
      </trkpt>
      <trkpt lat="44.85709" lon="0.54733">
        <ele>89.4</ele>
        <time>2016-08-07T09:28:02Z</time>
      </trkpt>
      <trkpt lat="44.85699" lon="0.54727">
        <ele>86.5</ele>
        <time>2016-08-07T09:28:06Z</time>
      </trkpt>
      <trkpt lat="44.85694" lon="0.5473">
        <ele>86.3</ele>
        <time>2016-08-07T09:28:10Z</time>
      </trkpt>
      <trkpt lat="44.85685" lon="0.5473">
        <ele>87.3</ele>
        <time>2016-08-07T09:28:14Z</time>
      </trkpt>
      <trkpt lat="44.85676" lon="0.54729">
        <ele>88.5</ele>
        <time>2016-08-07T09:28:18Z</time>
      </trkpt>
      <trkpt lat="44.85666" lon="0.54736">
        <ele>90</ele>
        <time>2016-08-07T09:28:22Z</time>
      </trkpt>
      <trkpt lat="44.85663" lon="0.54728">
        <ele>90</ele>
        <time>2016-08-07T09:28:26Z</time>
      </trkpt>
      <trkpt lat="44.85656" lon="0.54724">
        <ele>89</ele>
        <time>2016-08-07T09:28:30Z</time>
      </trkpt>
      <trkpt lat="44.85644" lon="0.54728">
        <ele>88.9</ele>
        <time>2016-08-07T09:28:34Z</time>
      </trkpt>
      <trkpt lat="44.85637" lon="0.54738">
        <ele>89.5</ele>
        <time>2016-08-07T09:28:38Z</time>
      </trkpt>
      <trkpt lat="44.85632" lon="0.54748">
        <ele>90.3</ele>
        <time>2016-08-07T09:28:42Z</time>
      </trkpt>
      <trkpt lat="44.85626" lon="0.5475">
        <ele>90.2</ele>
        <time>2016-08-07T09:28:46Z</time>
      </trkpt>
      <trkpt lat="44.85613" lon="0.54754">
        <ele>90.2</ele>
        <time>2016-08-07T09:28:50Z</time>
      </trkpt>
      <trkpt lat="44.85601" lon="0.5475">
        <ele>89</ele>
        <time>2016-08-07T09:28:54Z</time>
      </trkpt>
      <trkpt lat="44.85591" lon="0.54757">
        <ele>89</ele>
        <time>2016-08-07T09:28:58Z</time>
      </trkpt>
      <trkpt lat="44.85581" lon="0.54762">
        <ele>90.4</ele>
        <time>2016-08-07T09:29:02Z</time>
      </trkpt>
      <trkpt lat="44.85573" lon="0.54757">
        <ele>89.4</ele>
        <time>2016-08-07T09:29:06Z</time>
      </trkpt>
      <trkpt lat="44.85566" lon="0.54746">
        <ele>86.5</ele>
        <time>2016-08-07T09:29:10Z</time>
      </trkpt>
      <trkpt lat="44.85564" lon="0.5473">
        <ele>81.6</ele>
        <time>2016-08-07T09:29:14Z</time>
      </trkpt>
      <trkpt lat="44.85561" lon="0.54714">
        <ele>78.9</ele>
        <time>2016-08-07T09:29:18Z</time>
      </trkpt>
      <trkpt lat="44.85569" lon="0.54699">
        <ele>73.6</ele>
        <time>2016-08-07T09:29:22Z</time>
      </trkpt>
      <trkpt lat="44.85572" lon="0.54689">
        <ele>73.6</ele>
        <time>2016-08-07T09:29:26Z</time>
      </trkpt>
      <trkpt lat="44.85576" lon="0.54684">
        <ele>73.9</ele>
        <time>2016-08-07T09:29:30Z</time>
      </trkpt>
      <trkpt lat="44.85581" lon="0.54679">
        <ele>74.7</ele>
        <time>2016-08-07T09:29:34Z</time>
      </trkpt>
      <trkpt lat="44.85588" lon="0.5467">
        <ele>75.2</ele>
        <time>2016-08-07T09:29:38Z</time>
      </trkpt>
      <trkpt lat="44.85594" lon="0.54664">
        <ele>74.2</ele>
        <time>2016-08-07T09:29:42Z</time>
      </trkpt>
      <trkpt lat="44.85601" lon="0.54657">
        <ele>76.3</ele>
        <time>2016-08-07T09:29:46Z</time>
      </trkpt>
      <trkpt lat="44.85609" lon="0.54646">
        <ele>76.3</ele>
        <time>2016-08-07T09:29:50Z</time>
      </trkpt>
      <trkpt lat="44.85613" lon="0.54632">
        <ele>76.7</ele>
        <time>2016-08-07T09:29:54Z</time>
      </trkpt>
      <trkpt lat="44.8562" lon="0.54621">
        <ele>76.7</ele>
        <time>2016-08-07T09:29:58Z</time>
      </trkpt>
      <trkpt lat="44.85628" lon="0.54612">
        <ele>76.7</ele>
        <time>2016-08-07T09:30:02Z</time>
      </trkpt>
      <trkpt lat="44.85633" lon="0.54602">
        <ele>79.3</ele>
        <time>2016-08-07T09:30:06Z</time>
      </trkpt>
      <trkpt lat="44.85639" lon="0.5459">
        <ele>79.1</ele>
        <time>2016-08-07T09:30:10Z</time>
      </trkpt>
      <trkpt lat="44.85646" lon="0.54583">
        <ele>80.2</ele>
        <time>2016-08-07T09:30:14Z</time>
      </trkpt>
      <trkpt lat="44.85654" lon="0.54578">
        <ele>81.1</ele>
        <time>2016-08-07T09:30:18Z</time>
      </trkpt>
      <trkpt lat="44.85655" lon="0.54575">
        <ele>81.3</ele>
        <time>2016-08-07T09:30:22Z</time>
      </trkpt>
      <trkpt lat="44.85671" lon="0.54549">
        <ele>84.4</ele>
        <time>2016-08-07T09:30:54Z</time>
      </trkpt>
      <trkpt lat="44.85675" lon="0.5455">
        <ele>85.5</ele>
        <time>2016-08-07T09:30:58Z</time>
      </trkpt>
      <trkpt lat="44.8568" lon="0.54552">
        <ele>85.6</ele>
        <time>2016-08-07T09:31:02Z</time>
      </trkpt>
      <trkpt lat="44.85689" lon="0.54556">
        <ele>85.9</ele>
        <time>2016-08-07T09:31:06Z</time>
      </trkpt>
      <trkpt lat="44.85698" lon="0.54556">
        <ele>86.6</ele>
        <time>2016-08-07T09:31:10Z</time>
      </trkpt>
      <trkpt lat="44.85709" lon="0.54548">
        <ele>87.2</ele>
        <time>2016-08-07T09:31:14Z</time>
      </trkpt>
      <trkpt lat="44.85716" lon="0.5454">
        <ele>87.6</ele>
        <time>2016-08-07T09:31:18Z</time>
      </trkpt>
      <trkpt lat="44.85723" lon="0.54529">
        <ele>88.1</ele>
        <time>2016-08-07T09:31:22Z</time>
      </trkpt>
      <trkpt lat="44.85726" lon="0.54514">
        <ele>88.6</ele>
        <time>2016-08-07T09:31:26Z</time>
      </trkpt>
      <trkpt lat="44.85728" lon="0.545">
        <ele>89.8</ele>
        <time>2016-08-07T09:31:30Z</time>
      </trkpt>
      <trkpt lat="44.85727" lon="0.54482">
        <ele>91.1</ele>
        <time>2016-08-07T09:31:34Z</time>
      </trkpt>
      <trkpt lat="44.85726" lon="0.54463">
        <ele>91.2</ele>
        <time>2016-08-07T09:31:38Z</time>
      </trkpt>
      <trkpt lat="44.85729" lon="0.54444">
        <ele>91.2</ele>
        <time>2016-08-07T09:31:42Z</time>
      </trkpt>
      <trkpt lat="44.8573" lon="0.54428">
        <ele>92.3</ele>
        <time>2016-08-07T09:31:46Z</time>
      </trkpt>
      <trkpt lat="44.85734" lon="0.5441">
        <ele>92.5</ele>
        <time>2016-08-07T09:31:50Z</time>
      </trkpt>
      <trkpt lat="44.85743" lon="0.54408">
        <ele>92.4</ele>
        <time>2016-08-07T09:31:54Z</time>
      </trkpt>
      <trkpt lat="44.85754" lon="0.54411">
        <ele>92.8</ele>
        <time>2016-08-07T09:31:58Z</time>
      </trkpt>
      <trkpt lat="44.85767" lon="0.54414">
        <ele>93.6</ele>
        <time>2016-08-07T09:32:02Z</time>
      </trkpt>
      <trkpt lat="44.85783" lon="0.54417">
        <ele>94</ele>
        <time>2016-08-07T09:32:06Z</time>
      </trkpt>
      <trkpt lat="44.85796" lon="0.54421">
        <ele>94.3</ele>
        <time>2016-08-07T09:32:10Z</time>
      </trkpt>
      <trkpt lat="44.85812" lon="0.54426">
        <ele>94.1</ele>
        <time>2016-08-07T09:32:14Z</time>
      </trkpt>
      <trkpt lat="44.8583" lon="0.54428">
        <ele>95</ele>
        <time>2016-08-07T09:32:18Z</time>
      </trkpt>
      <trkpt lat="44.85849" lon="0.54432">
        <ele>94.5</ele>
        <time>2016-08-07T09:32:22Z</time>
      </trkpt>
      <trkpt lat="44.85867" lon="0.54437">
        <ele>95.3</ele>
        <time>2016-08-07T09:32:26Z</time>
      </trkpt>
      <trkpt lat="44.85885" lon="0.54442">
        <ele>95.4</ele>
        <time>2016-08-07T09:32:30Z</time>
      </trkpt>
      <trkpt lat="44.85909" lon="0.54445">
        <ele>96.2</ele>
        <time>2016-08-07T09:32:34Z</time>
      </trkpt>
      <trkpt lat="44.85929" lon="0.54449">
        <ele>96.1</ele>
        <time>2016-08-07T09:32:38Z</time>
      </trkpt>
      <trkpt lat="44.85949" lon="0.54453">
        <ele>95.9</ele>
        <time>2016-08-07T09:32:42Z</time>
      </trkpt>
      <trkpt lat="44.85968" lon="0.54457">
        <ele>95.9</ele>
        <time>2016-08-07T09:32:46Z</time>
      </trkpt>
      <trkpt lat="44.85988" lon="0.54464">
        <ele>97.1</ele>
        <time>2016-08-07T09:32:50Z</time>
      </trkpt>
      <trkpt lat="44.86008" lon="0.54467">
        <ele>97.1</ele>
        <time>2016-08-07T09:32:54Z</time>
      </trkpt>
      <trkpt lat="44.86027" lon="0.54471">
        <ele>97.5</ele>
        <time>2016-08-07T09:32:58Z</time>
      </trkpt>
      <trkpt lat="44.86045" lon="0.54476">
        <ele>97.5</ele>
        <time>2016-08-07T09:33:02Z</time>
      </trkpt>
      <trkpt lat="44.86062" lon="0.54482">
        <ele>97.9</ele>
        <time>2016-08-07T09:33:06Z</time>
      </trkpt>
      <trkpt lat="44.86078" lon="0.54494">
        <ele>98.5</ele>
        <time>2016-08-07T09:33:10Z</time>
      </trkpt>
      <trkpt lat="44.86092" lon="0.54507">
        <ele>99.5</ele>
        <time>2016-08-07T09:33:14Z</time>
      </trkpt>
      <trkpt lat="44.86105" lon="0.54521">
        <ele>99.5</ele>
        <time>2016-08-07T09:33:18Z</time>
      </trkpt>
      <trkpt lat="44.86119" lon="0.54536">
        <ele>100.3</ele>
        <time>2016-08-07T09:33:22Z</time>
      </trkpt>
      <trkpt lat="44.86132" lon="0.54551">
        <ele>99.8</ele>
        <time>2016-08-07T09:33:26Z</time>
      </trkpt>
      <trkpt lat="44.86145" lon="0.54565">
        <ele>101.2</ele>
        <time>2016-08-07T09:33:30Z</time>
      </trkpt>
      <trkpt lat="44.86156" lon="0.54579">
        <ele>101.2</ele>
        <time>2016-08-07T09:33:34Z</time>
      </trkpt>
      <trkpt lat="44.86168" lon="0.54594">
        <ele>101.9</ele>
        <time>2016-08-07T09:33:38Z</time>
      </trkpt>
      <trkpt lat="44.8618" lon="0.54609">
        <ele>101.3</ele>
        <time>2016-08-07T09:33:42Z</time>
      </trkpt>
      <trkpt lat="44.86192" lon="0.54624">
        <ele>101.5</ele>
        <time>2016-08-07T09:33:46Z</time>
      </trkpt>
      <trkpt lat="44.86204" lon="0.54639">
        <ele>101.8</ele>
        <time>2016-08-07T09:33:50Z</time>
      </trkpt>
      <trkpt lat="44.86217" lon="0.54653">
        <ele>102.8</ele>
        <time>2016-08-07T09:33:54Z</time>
      </trkpt>
      <trkpt lat="44.86229" lon="0.54668">
        <ele>102.2</ele>
        <time>2016-08-07T09:33:58Z</time>
      </trkpt>
      <trkpt lat="44.86242" lon="0.54682">
        <ele>103.1</ele>
        <time>2016-08-07T09:34:02Z</time>
      </trkpt>
      <trkpt lat="44.86255" lon="0.54684">
        <ele>102.8</ele>
        <time>2016-08-07T09:34:06Z</time>
      </trkpt>
      <trkpt lat="44.8626" lon="0.54668">
        <ele>103.3</ele>
        <time>2016-08-07T09:34:10Z</time>
      </trkpt>
      <trkpt lat="44.8625" lon="0.54651">
        <ele>104</ele>
        <time>2016-08-07T09:34:14Z</time>
      </trkpt>
      <trkpt lat="44.8624" lon="0.54632">
        <ele>102.9</ele>
        <time>2016-08-07T09:34:18Z</time>
      </trkpt>
      <trkpt lat="44.86229" lon="0.54616">
        <ele>102.7</ele>
        <time>2016-08-07T09:34:22Z</time>
      </trkpt>
      <trkpt lat="44.86228" lon="0.54602">
        <ele>101.5</ele>
        <time>2016-08-07T09:34:26Z</time>
      </trkpt>
      <trkpt lat="44.86236" lon="0.54612">
        <ele>101.5</ele>
        <time>2016-08-07T09:34:30Z</time>
      </trkpt>
      <trkpt lat="44.86245" lon="0.5463">
        <ele>102.2</ele>
        <time>2016-08-07T09:34:34Z</time>
      </trkpt>
      <trkpt lat="44.86254" lon="0.54648">
        <ele>101.9</ele>
        <time>2016-08-07T09:34:38Z</time>
      </trkpt>
      <trkpt lat="44.86264" lon="0.54664">
        <ele>102.6</ele>
        <time>2016-08-07T09:34:42Z</time>
      </trkpt>
      <trkpt lat="44.86273" lon="0.5468">
        <ele>102.7</ele>
        <time>2016-08-07T09:34:46Z</time>
      </trkpt>
      <trkpt lat="44.86283" lon="0.54696">
        <ele>103.9</ele>
        <time>2016-08-07T09:34:50Z</time>
      </trkpt>
      <trkpt lat="44.86295" lon="0.54712">
        <ele>103.9</ele>
        <time>2016-08-07T09:34:54Z</time>
      </trkpt>
      <trkpt lat="44.86307" lon="0.54728">
        <ele>105</ele>
        <time>2016-08-07T09:34:58Z</time>
      </trkpt>
      <trkpt lat="44.86321" lon="0.54747">
        <ele>104.3</ele>
        <time>2016-08-07T09:35:02Z</time>
      </trkpt>
      <trkpt lat="44.86334" lon="0.54762">
        <ele>105.2</ele>
        <time>2016-08-07T09:35:06Z</time>
      </trkpt>
      <trkpt lat="44.86347" lon="0.54775">
        <ele>106.3</ele>
        <time>2016-08-07T09:35:10Z</time>
      </trkpt>
      <trkpt lat="44.86358" lon="0.54787">
        <ele>106.8</ele>
        <time>2016-08-07T09:35:14Z</time>
      </trkpt>
      <trkpt lat="44.8637" lon="0.54799">
        <ele>106.8</ele>
        <time>2016-08-07T09:35:18Z</time>
      </trkpt>
      <trkpt lat="44.86379" lon="0.54814">
        <ele>107.3</ele>
        <time>2016-08-07T09:35:22Z</time>
      </trkpt>
      <trkpt lat="44.86385" lon="0.54832">
        <ele>107.3</ele>
        <time>2016-08-07T09:35:26Z</time>
      </trkpt>
      <trkpt lat="44.86387" lon="0.54851">
        <ele>108.1</ele>
        <time>2016-08-07T09:35:30Z</time>
      </trkpt>
      <trkpt lat="44.86391" lon="0.5487">
        <ele>108.1</ele>
        <time>2016-08-07T09:35:34Z</time>
      </trkpt>
      <trkpt lat="44.86401" lon="0.54866">
        <ele>109.2</ele>
        <time>2016-08-07T09:35:38Z</time>
      </trkpt>
      <trkpt lat="44.86402" lon="0.54841">
        <ele>109.2</ele>
        <time>2016-08-07T09:35:42Z</time>
      </trkpt>
      <trkpt lat="44.864" lon="0.54811">
        <ele>108.6</ele>
        <time>2016-08-07T09:35:46Z</time>
      </trkpt>
      <trkpt lat="44.86398" lon="0.54781">
        <ele>107.8</ele>
        <time>2016-08-07T09:35:50Z</time>
      </trkpt>
      <trkpt lat="44.86397" lon="0.5475">
        <ele>107.8</ele>
        <time>2016-08-07T09:35:54Z</time>
      </trkpt>
      <trkpt lat="44.86406" lon="0.54727">
        <ele>106.7</ele>
        <time>2016-08-07T09:35:58Z</time>
      </trkpt>
      <trkpt lat="44.86425" lon="0.5474">
        <ele>105.5</ele>
        <time>2016-08-07T09:36:02Z</time>
      </trkpt>
      <trkpt lat="44.86439" lon="0.54759">
        <ele>105.5</ele>
        <time>2016-08-07T09:36:06Z</time>
      </trkpt>
      <trkpt lat="44.86452" lon="0.54778">
        <ele>105.5</ele>
        <time>2016-08-07T09:36:10Z</time>
      </trkpt>
      <trkpt lat="44.8647" lon="0.54793">
        <ele>106.8</ele>
        <time>2016-08-07T09:36:14Z</time>
      </trkpt>
      <trkpt lat="44.86491" lon="0.54803">
        <ele>108</ele>
        <time>2016-08-07T09:36:18Z</time>
      </trkpt>
      <trkpt lat="44.86511" lon="0.54813">
        <ele>109.1</ele>
        <time>2016-08-07T09:36:22Z</time>
      </trkpt>
      <trkpt lat="44.86531" lon="0.54824">
        <ele>109.6</ele>
        <time>2016-08-07T09:36:26Z</time>
      </trkpt>
      <trkpt lat="44.8655" lon="0.54837">
        <ele>109.6</ele>
        <time>2016-08-07T09:36:30Z</time>
      </trkpt>
      <trkpt lat="44.86568" lon="0.5485">
        <ele>108.7</ele>
        <time>2016-08-07T09:36:34Z</time>
      </trkpt>
      <trkpt lat="44.86587" lon="0.54856">
        <ele>108.1</ele>
        <time>2016-08-07T09:36:38Z</time>
      </trkpt>
      <trkpt lat="44.86606" lon="0.54851">
        <ele>109.3</ele>
        <time>2016-08-07T09:36:42Z</time>
      </trkpt>
      <trkpt lat="44.86622" lon="0.54835">
        <ele>110.5</ele>
        <time>2016-08-07T09:36:46Z</time>
      </trkpt>
      <trkpt lat="44.86635" lon="0.54817">
        <ele>111.4</ele>
        <time>2016-08-07T09:36:50Z</time>
      </trkpt>
      <trkpt lat="44.86645" lon="0.54801">
        <ele>111.5</ele>
        <time>2016-08-07T09:36:54Z</time>
      </trkpt>
      <trkpt lat="44.86645" lon="0.54787">
        <ele>112.1</ele>
        <time>2016-08-07T09:36:58Z</time>
      </trkpt>
      <trkpt lat="44.86636" lon="0.54779">
        <ele>111</ele>
        <time>2016-08-07T09:37:02Z</time>
      </trkpt>
      <trkpt lat="44.86629" lon="0.54776">
        <ele>111</ele>
        <time>2016-08-07T09:37:06Z</time>
      </trkpt>
      <trkpt lat="44.8662" lon="0.54763">
        <ele>111</ele>
        <time>2016-08-07T09:37:10Z</time>
      </trkpt>
      <trkpt lat="44.86619" lon="0.54741">
        <ele>109.9</ele>
        <time>2016-08-07T09:37:14Z</time>
      </trkpt>
      <trkpt lat="44.86613" lon="0.5472">
        <ele>108.4</ele>
        <time>2016-08-07T09:37:18Z</time>
      </trkpt>
      <trkpt lat="44.86609" lon="0.54692">
        <ele>110.2</ele>
        <time>2016-08-07T09:37:22Z</time>
      </trkpt>
      <trkpt lat="44.86603" lon="0.54669">
        <ele>108.9</ele>
        <time>2016-08-07T09:37:26Z</time>
      </trkpt>
      <trkpt lat="44.86595" lon="0.54642">
        <ele>107.9</ele>
        <time>2016-08-07T09:37:30Z</time>
      </trkpt>
      <trkpt lat="44.86587" lon="0.54615">
        <ele>107.9</ele>
        <time>2016-08-07T09:37:34Z</time>
      </trkpt>
      <trkpt lat="44.8658" lon="0.54589">
        <ele>105.4</ele>
        <time>2016-08-07T09:37:38Z</time>
      </trkpt>
      <trkpt lat="44.86574" lon="0.54556">
        <ele>106.2</ele>
        <time>2016-08-07T09:37:42Z</time>
      </trkpt>
      <trkpt lat="44.86565" lon="0.54529">
        <ele>107</ele>
        <time>2016-08-07T09:37:46Z</time>
      </trkpt>
      <trkpt lat="44.86562" lon="0.54509">
        <ele>107</ele>
        <time>2016-08-07T09:37:50Z</time>
      </trkpt>
      <trkpt lat="44.86561" lon="0.54484">
        <ele>107.4</ele>
        <time>2016-08-07T09:37:54Z</time>
      </trkpt>
      <trkpt lat="44.86562" lon="0.54462">
        <ele>106.4</ele>
        <time>2016-08-07T09:37:58Z</time>
      </trkpt>
      <trkpt lat="44.86555" lon="0.54432">
        <ele>106.8</ele>
        <time>2016-08-07T09:38:02Z</time>
      </trkpt>
      <trkpt lat="44.86546" lon="0.54403">
        <ele>105.5</ele>
        <time>2016-08-07T09:38:06Z</time>
      </trkpt>
      <trkpt lat="44.86537" lon="0.54376">
        <ele>105.5</ele>
        <time>2016-08-07T09:38:10Z</time>
      </trkpt>
      <trkpt lat="44.86532" lon="0.54346">
        <ele>106</ele>
        <time>2016-08-07T09:38:14Z</time>
      </trkpt>
      <trkpt lat="44.86537" lon="0.54327">
        <ele>104.9</ele>
        <time>2016-08-07T09:38:18Z</time>
      </trkpt>
      <trkpt lat="44.86542" lon="0.54302">
        <ele>104.2</ele>
        <time>2016-08-07T09:38:22Z</time>
      </trkpt>
      <trkpt lat="44.86556" lon="0.54287">
        <ele>102.6</ele>
        <time>2016-08-07T09:38:26Z</time>
      </trkpt>
      <trkpt lat="44.86572" lon="0.54278">
        <ele>102.6</ele>
        <time>2016-08-07T09:38:30Z</time>
      </trkpt>
      <trkpt lat="44.86583" lon="0.54262">
        <ele>102.6</ele>
        <time>2016-08-07T09:38:34Z</time>
      </trkpt>
      <trkpt lat="44.86583" lon="0.54242">
        <ele>103.1</ele>
        <time>2016-08-07T09:38:38Z</time>
      </trkpt>
      <trkpt lat="44.86583" lon="0.54226">
        <ele>103.1</ele>
        <time>2016-08-07T09:38:42Z</time>
      </trkpt>
      <trkpt lat="44.8658" lon="0.5421">
        <ele>102</ele>
        <time>2016-08-07T09:38:46Z</time>
      </trkpt>
      <trkpt lat="44.86578" lon="0.542">
        <ele>102</ele>
        <time>2016-08-07T09:38:50Z</time>
      </trkpt>
      <trkpt lat="44.86579" lon="0.54192">
        <ele>102</ele>
        <time>2016-08-07T09:38:54Z</time>
      </trkpt>
      <trkpt lat="44.86582" lon="0.54192">
        <ele>102</ele>
        <time>2016-08-07T09:38:58Z</time>
      </trkpt>
      <trkpt lat="44.86583" lon="0.54191">
        <ele>102.7</ele>
        <time>2016-08-07T09:39:02Z</time>
      </trkpt>
      <trkpt lat="44.86585" lon="0.54182">
        <ele>103.3</ele>
        <time>2016-08-07T09:39:46Z</time>
      </trkpt>
      <trkpt lat="44.86585" lon="0.54179">
        <ele>103.1</ele>
        <time>2016-08-07T09:39:50Z</time>
      </trkpt>
      <trkpt lat="44.86582" lon="0.54177">
        <ele>103.3</ele>
        <time>2016-08-07T09:39:54Z</time>
      </trkpt>
      <trkpt lat="44.86575" lon="0.54176">
        <ele>103.3</ele>
        <time>2016-08-07T09:39:58Z</time>
      </trkpt>
      <trkpt lat="44.86566" lon="0.54171">
        <ele>102.5</ele>
        <time>2016-08-07T09:40:02Z</time>
      </trkpt>
      <trkpt lat="44.86561" lon="0.5417">
        <ele>102.3</ele>
        <time>2016-08-07T09:40:06Z</time>
      </trkpt>
      <trkpt lat="44.8656" lon="0.54172">
        <ele>102.3</ele>
        <time>2016-08-07T09:40:10Z</time>
      </trkpt>
      <trkpt lat="44.86558" lon="0.54173">
        <ele>101.8</ele>
        <time>2016-08-07T09:40:14Z</time>
      </trkpt>
    </trkseg>
  </trk>
  <rte>
      <rtept lat="44.86769" lon="0.54577">
        <ele>88.5</ele>
      </rtept>
      <rtept lat="44.86558" lon="0.54173">
        <ele>75.3</ele>
      </rtept>
    </rte>
</gpx>